<?xml version="1.0" encoding="UTF-8" standalone="no" ?>
<gpx xmlns="http://www.topografix.com/GPX/1/1" xmlns:xsi="http://www.w3.org/2001/XMLSchema-instance" xsi:schemaLocation="http://www.topografix.com/GPX/1/1 http://www.topografix.com/GPX/1/1/gpx.xsd" version="1.1" creator="VisuGPX - https://www.visugpx.com">
  <metadata>
    <name>L\'Aubépin 69590 mts du lyonnais</name>
    <desc><![CDATA[ballade facile dans les monts du lyonnais,  vallonnés.]]></desc>
  </metadata>
  <trk>
    <name><![CDATA[LYON15-14 03:20:02 PM]]></name>
    <trkseg>
      <trkpt lat="45.60408" lon="4.52493">
        <ele>834.56</ele>
        <time>2014-10-15T08:10:50Z</time>
      </trkpt>
      <trkpt lat="45.60408" lon="4.52493">
        <ele>833.6</ele>
        <time>2014-10-15T08:10:51Z</time>
      </trkpt>
      <trkpt lat="45.60408" lon="4.52493">
        <ele>832.64</ele>
        <time>2014-10-15T08:10:54Z</time>
      </trkpt>
      <trkpt lat="45.60416" lon="4.52491">
        <ele>827.83</ele>
        <time>2014-10-15T08:11:10Z</time>
      </trkpt>
      <trkpt lat="45.60416" lon="4.5249">
        <ele>834.08</ele>
        <time>2014-10-15T08:11:11Z</time>
      </trkpt>
      <trkpt lat="45.60416" lon="4.52489">
        <ele>832.64</ele>
        <time>2014-10-15T08:11:12Z</time>
      </trkpt>
      <trkpt lat="45.60416" lon="4.52486">
        <ele>831.68</ele>
        <time>2014-10-15T08:11:24Z</time>
      </trkpt>
      <trkpt lat="45.60416" lon="4.52475">
        <ele>833.12</ele>
        <time>2014-10-15T08:11:31Z</time>
      </trkpt>
      <trkpt lat="45.60413" lon="4.52467">
        <ele>832.16</ele>
        <time>2014-10-15T08:11:45Z</time>
      </trkpt>
      <trkpt lat="45.60411" lon="4.52456">
        <ele>832.64</ele>
        <time>2014-10-15T08:12:01Z</time>
      </trkpt>
      <trkpt lat="45.60412" lon="4.52452">
        <ele>833.6</ele>
        <time>2014-10-15T08:12:06Z</time>
      </trkpt>
      <trkpt lat="45.60411" lon="4.5245">
        <ele>832.64</ele>
        <time>2014-10-15T08:12:08Z</time>
      </trkpt>
      <trkpt lat="45.6041" lon="4.52435">
        <ele>832.16</ele>
        <time>2014-10-15T08:12:26Z</time>
      </trkpt>
      <trkpt lat="45.60406" lon="4.52415">
        <ele>834.08</ele>
        <time>2014-10-15T08:12:38Z</time>
      </trkpt>
      <trkpt lat="45.60403" lon="4.52403">
        <ele>833.6</ele>
        <time>2014-10-15T08:12:48Z</time>
      </trkpt>
      <trkpt lat="45.60398" lon="4.52379">
        <ele>834.08</ele>
        <time>2014-10-15T08:13:00Z</time>
      </trkpt>
      <trkpt lat="45.60387" lon="4.52362">
        <ele>834.08</ele>
        <time>2014-10-15T08:13:18Z</time>
      </trkpt>
      <trkpt lat="45.6038" lon="4.52354">
        <ele>833.12</ele>
        <time>2014-10-15T08:13:27Z</time>
      </trkpt>
      <trkpt lat="45.60372" lon="4.52343">
        <ele>833.6</ele>
        <time>2014-10-15T08:13:34Z</time>
      </trkpt>
      <trkpt lat="45.60362" lon="4.52326">
        <ele>833.12</ele>
        <time>2014-10-15T08:13:44Z</time>
      </trkpt>
      <trkpt lat="45.60362" lon="4.52326">
        <ele>833.12</ele>
        <time>2014-10-15T08:13:45Z</time>
      </trkpt>
      <trkpt lat="45.60362" lon="4.52309">
        <ele>832.64</ele>
        <time>2014-10-15T08:13:51Z</time>
      </trkpt>
      <trkpt lat="45.60348" lon="4.52283">
        <ele>832.16</ele>
        <time>2014-10-15T08:14:01Z</time>
      </trkpt>
      <trkpt lat="45.60342" lon="4.52274">
        <ele>832.64</ele>
        <time>2014-10-15T08:14:05Z</time>
      </trkpt>
      <trkpt lat="45.60331" lon="4.5226">
        <ele>832.64</ele>
        <time>2014-10-15T08:14:15Z</time>
      </trkpt>
      <trkpt lat="45.60328" lon="4.52246">
        <ele>833.12</ele>
        <time>2014-10-15T08:14:30Z</time>
      </trkpt>
      <trkpt lat="45.60328" lon="4.52245">
        <ele>832.64</ele>
        <time>2014-10-15T08:14:33Z</time>
      </trkpt>
      <trkpt lat="45.60316" lon="4.52244">
        <ele>834.56</ele>
        <time>2014-10-15T08:14:44Z</time>
      </trkpt>
      <trkpt lat="45.60307" lon="4.52245">
        <ele>836</ele>
        <time>2014-10-15T08:14:55Z</time>
      </trkpt>
      <trkpt lat="45.60303" lon="4.52241">
        <ele>834.56</ele>
        <time>2014-10-15T08:15:01Z</time>
      </trkpt>
      <trkpt lat="45.60293" lon="4.52249">
        <ele>836.48</ele>
        <time>2014-10-15T08:15:12Z</time>
      </trkpt>
      <trkpt lat="45.60281" lon="4.52251">
        <ele>836.96</ele>
        <time>2014-10-15T08:15:23Z</time>
      </trkpt>
      <trkpt lat="45.60273" lon="4.52241">
        <ele>837.93</ele>
        <time>2014-10-15T08:15:32Z</time>
      </trkpt>
      <trkpt lat="45.60272" lon="4.52232">
        <ele>839.85</ele>
        <time>2014-10-15T08:15:38Z</time>
      </trkpt>
      <trkpt lat="45.60272" lon="4.52228">
        <ele>839.37</ele>
        <time>2014-10-15T08:15:40Z</time>
      </trkpt>
      <trkpt lat="45.60268" lon="4.5222">
        <ele>840.33</ele>
        <time>2014-10-15T08:15:44Z</time>
      </trkpt>
      <trkpt lat="45.60266" lon="4.52215">
        <ele>839.85</ele>
        <time>2014-10-15T08:15:49Z</time>
      </trkpt>
      <trkpt lat="45.60257" lon="4.522">
        <ele>840.81</ele>
        <time>2014-10-15T08:15:59Z</time>
      </trkpt>
      <trkpt lat="45.60252" lon="4.52193">
        <ele>841.77</ele>
        <time>2014-10-15T08:16:08Z</time>
      </trkpt>
      <trkpt lat="45.60249" lon="4.52186">
        <ele>843.21</ele>
        <time>2014-10-15T08:16:12Z</time>
      </trkpt>
      <trkpt lat="45.60247" lon="4.52171">
        <ele>844.18</ele>
        <time>2014-10-15T08:16:24Z</time>
      </trkpt>
      <trkpt lat="45.60247" lon="4.5217">
        <ele>844.18</ele>
        <time>2014-10-15T08:16:32Z</time>
      </trkpt>
      <trkpt lat="45.60246" lon="4.52171">
        <ele>843.69</ele>
        <time>2014-10-15T08:16:46Z</time>
      </trkpt>
      <trkpt lat="45.60246" lon="4.52171">
        <ele>845.14</ele>
        <time>2014-10-15T08:17:00Z</time>
      </trkpt>
      <trkpt lat="45.60245" lon="4.52172">
        <ele>844.66</ele>
        <time>2014-10-15T08:17:01Z</time>
      </trkpt>
      <trkpt lat="45.60241" lon="4.52184">
        <ele>846.1</ele>
        <time>2014-10-15T08:17:07Z</time>
      </trkpt>
      <trkpt lat="45.60235" lon="4.52199">
        <ele>847.54</ele>
        <time>2014-10-15T08:17:21Z</time>
      </trkpt>
      <trkpt lat="45.60229" lon="4.52202">
        <ele>849.94</ele>
        <time>2014-10-15T08:17:29Z</time>
      </trkpt>
      <trkpt lat="45.60215" lon="4.52216">
        <ele>849.94</ele>
        <time>2014-10-15T08:17:45Z</time>
      </trkpt>
      <trkpt lat="45.60214" lon="4.52217">
        <ele>848.98</ele>
        <time>2014-10-15T08:17:46Z</time>
      </trkpt>
      <trkpt lat="45.60209" lon="4.52221">
        <ele>850.42</ele>
        <time>2014-10-15T08:17:49Z</time>
      </trkpt>
      <trkpt lat="45.60194" lon="4.52234">
        <ele>850.9</ele>
        <time>2014-10-15T08:17:58Z</time>
      </trkpt>
      <trkpt lat="45.60184" lon="4.52246">
        <ele>852.35</ele>
        <time>2014-10-15T08:18:10Z</time>
      </trkpt>
      <trkpt lat="45.60183" lon="4.52246">
        <ele>851.38</ele>
        <time>2014-10-15T08:18:11Z</time>
      </trkpt>
      <trkpt lat="45.60174" lon="4.52254">
        <ele>854.27</ele>
        <time>2014-10-15T08:18:23Z</time>
      </trkpt>
      <trkpt lat="45.60167" lon="4.5226">
        <ele>855.23</ele>
        <time>2014-10-15T08:18:35Z</time>
      </trkpt>
      <trkpt lat="45.60166" lon="4.5226">
        <ele>855.23</ele>
        <time>2014-10-15T08:18:36Z</time>
      </trkpt>
      <trkpt lat="45.60157" lon="4.52267">
        <ele>856.67</ele>
        <time>2014-10-15T08:18:46Z</time>
      </trkpt>
      <trkpt lat="45.60148" lon="4.52274">
        <ele>858.11</ele>
        <time>2014-10-15T08:18:57Z</time>
      </trkpt>
      <trkpt lat="45.6014" lon="4.52284">
        <ele>859.08</ele>
        <time>2014-10-15T08:19:09Z</time>
      </trkpt>
      <trkpt lat="45.60133" lon="4.52293">
        <ele>861</ele>
        <time>2014-10-15T08:19:20Z</time>
      </trkpt>
      <trkpt lat="45.60127" lon="4.523">
        <ele>862.92</ele>
        <time>2014-10-15T08:19:30Z</time>
      </trkpt>
      <trkpt lat="45.60126" lon="4.52302">
        <ele>861.96</ele>
        <time>2014-10-15T08:19:32Z</time>
      </trkpt>
      <trkpt lat="45.60116" lon="4.5231">
        <ele>863.88</ele>
        <time>2014-10-15T08:19:42Z</time>
      </trkpt>
      <trkpt lat="45.60108" lon="4.52317">
        <ele>863.88</ele>
        <time>2014-10-15T08:19:52Z</time>
      </trkpt>
      <trkpt lat="45.601" lon="4.52326">
        <ele>864.84</ele>
        <time>2014-10-15T08:20:02Z</time>
      </trkpt>
      <trkpt lat="45.60094" lon="4.52334">
        <ele>865.32</ele>
        <time>2014-10-15T08:20:11Z</time>
      </trkpt>
      <trkpt lat="45.60091" lon="4.52337">
        <ele>866.29</ele>
        <time>2014-10-15T08:20:22Z</time>
      </trkpt>
      <trkpt lat="45.60086" lon="4.52345">
        <ele>867.25</ele>
        <time>2014-10-15T08:20:33Z</time>
      </trkpt>
      <trkpt lat="45.60084" lon="4.52347">
        <ele>867.73</ele>
        <time>2014-10-15T08:20:46Z</time>
      </trkpt>
      <trkpt lat="45.60084" lon="4.52347">
        <ele>865.8</ele>
        <time>2014-10-15T08:21:00Z</time>
      </trkpt>
      <trkpt lat="45.60083" lon="4.52347">
        <ele>866.77</ele>
        <time>2014-10-15T08:21:34Z</time>
      </trkpt>
      <trkpt lat="45.60078" lon="4.52354">
        <ele>866.77</ele>
        <time>2014-10-15T08:21:41Z</time>
      </trkpt>
      <trkpt lat="45.60066" lon="4.52362">
        <ele>868.69</ele>
        <time>2014-10-15T08:21:51Z</time>
      </trkpt>
      <trkpt lat="45.60058" lon="4.52369">
        <ele>867.73</ele>
        <time>2014-10-15T08:22:00Z</time>
      </trkpt>
      <trkpt lat="45.60051" lon="4.52371">
        <ele>869.17</ele>
        <time>2014-10-15T08:22:06Z</time>
      </trkpt>
      <trkpt lat="45.60049" lon="4.52372">
        <ele>868.69</ele>
        <time>2014-10-15T08:22:08Z</time>
      </trkpt>
      <trkpt lat="45.60041" lon="4.5238">
        <ele>869.17</ele>
        <time>2014-10-15T08:22:16Z</time>
      </trkpt>
      <trkpt lat="45.60031" lon="4.52386">
        <ele>869.17</ele>
        <time>2014-10-15T08:22:26Z</time>
      </trkpt>
      <trkpt lat="45.60023" lon="4.5239">
        <ele>871.57</ele>
        <time>2014-10-15T08:22:35Z</time>
      </trkpt>
      <trkpt lat="45.60019" lon="4.52392">
        <ele>870.61</ele>
        <time>2014-10-15T08:22:45Z</time>
      </trkpt>
      <trkpt lat="45.60016" lon="4.52395">
        <ele>871.57</ele>
        <time>2014-10-15T08:22:50Z</time>
      </trkpt>
      <trkpt lat="45.60012" lon="4.52397">
        <ele>872.53</ele>
        <time>2014-10-15T08:22:55Z</time>
      </trkpt>
      <trkpt lat="45.60003" lon="4.52402">
        <ele>872.53</ele>
        <time>2014-10-15T08:23:05Z</time>
      </trkpt>
      <trkpt lat="45.59994" lon="4.5241">
        <ele>873.98</ele>
        <time>2014-10-15T08:23:14Z</time>
      </trkpt>
      <trkpt lat="45.59986" lon="4.52416">
        <ele>874.46</ele>
        <time>2014-10-15T08:23:24Z</time>
      </trkpt>
      <trkpt lat="45.59978" lon="4.52428">
        <ele>876.38</ele>
        <time>2014-10-15T08:23:36Z</time>
      </trkpt>
      <trkpt lat="45.59973" lon="4.52434">
        <ele>877.82</ele>
        <time>2014-10-15T08:23:48Z</time>
      </trkpt>
      <trkpt lat="45.59962" lon="4.52447">
        <ele>878.78</ele>
        <time>2014-10-15T08:24:00Z</time>
      </trkpt>
      <trkpt lat="45.59954" lon="4.52462">
        <ele>880.71</ele>
        <time>2014-10-15T08:24:12Z</time>
      </trkpt>
      <trkpt lat="45.59946" lon="4.52472">
        <ele>882.63</ele>
        <time>2014-10-15T08:24:23Z</time>
      </trkpt>
      <trkpt lat="45.59943" lon="4.52476">
        <ele>883.11</ele>
        <time>2014-10-15T08:24:29Z</time>
      </trkpt>
      <trkpt lat="45.59934" lon="4.52487">
        <ele>884.07</ele>
        <time>2014-10-15T08:24:39Z</time>
      </trkpt>
      <trkpt lat="45.59933" lon="4.52488">
        <ele>884.07</ele>
        <time>2014-10-15T08:24:40Z</time>
      </trkpt>
      <trkpt lat="45.59926" lon="4.52498">
        <ele>885.99</ele>
        <time>2014-10-15T08:24:52Z</time>
      </trkpt>
      <trkpt lat="45.59925" lon="4.52499">
        <ele>887.43</ele>
        <time>2014-10-15T08:24:53Z</time>
      </trkpt>
      <trkpt lat="45.59921" lon="4.52504">
        <ele>886.47</ele>
        <time>2014-10-15T08:25:00Z</time>
      </trkpt>
      <trkpt lat="45.59914" lon="4.52513">
        <ele>888.4</ele>
        <time>2014-10-15T08:25:12Z</time>
      </trkpt>
      <trkpt lat="45.59907" lon="4.52522">
        <ele>890.32</ele>
        <time>2014-10-15T08:25:22Z</time>
      </trkpt>
      <trkpt lat="45.59902" lon="4.52528">
        <ele>890.8</ele>
        <time>2014-10-15T08:25:31Z</time>
      </trkpt>
      <trkpt lat="45.59895" lon="4.52535">
        <ele>893.2</ele>
        <time>2014-10-15T08:25:42Z</time>
      </trkpt>
      <trkpt lat="45.59889" lon="4.5254">
        <ele>894.16</ele>
        <time>2014-10-15T08:25:53Z</time>
      </trkpt>
      <trkpt lat="45.5988" lon="4.52546">
        <ele>894.64</ele>
        <time>2014-10-15T08:26:04Z</time>
      </trkpt>
      <trkpt lat="45.59871" lon="4.52554">
        <ele>896.09</ele>
        <time>2014-10-15T08:26:14Z</time>
      </trkpt>
      <trkpt lat="45.59863" lon="4.52563">
        <ele>896.57</ele>
        <time>2014-10-15T08:26:23Z</time>
      </trkpt>
      <trkpt lat="45.59853" lon="4.52571">
        <ele>898.01</ele>
        <time>2014-10-15T08:26:34Z</time>
      </trkpt>
      <trkpt lat="45.5984" lon="4.52585">
        <ele>897.53</ele>
        <time>2014-10-15T08:26:47Z</time>
      </trkpt>
      <trkpt lat="45.59836" lon="4.52587">
        <ele>897.05</ele>
        <time>2014-10-15T08:26:52Z</time>
      </trkpt>
      <trkpt lat="45.59822" lon="4.52598">
        <ele>897.53</ele>
        <time>2014-10-15T08:27:05Z</time>
      </trkpt>
      <trkpt lat="45.59815" lon="4.52606">
        <ele>896.57</ele>
        <time>2014-10-15T08:27:14Z</time>
      </trkpt>
      <trkpt lat="45.59807" lon="4.52614">
        <ele>895.61</ele>
        <time>2014-10-15T08:27:22Z</time>
      </trkpt>
      <trkpt lat="45.59797" lon="4.52622">
        <ele>894.16</ele>
        <time>2014-10-15T08:27:30Z</time>
      </trkpt>
      <trkpt lat="45.59794" lon="4.52625">
        <ele>894.16</ele>
        <time>2014-10-15T08:27:33Z</time>
      </trkpt>
      <trkpt lat="45.59785" lon="4.5263">
        <ele>894.16</ele>
        <time>2014-10-15T08:27:41Z</time>
      </trkpt>
      <trkpt lat="45.59776" lon="4.52633">
        <ele>892.72</ele>
        <time>2014-10-15T08:27:49Z</time>
      </trkpt>
      <trkpt lat="45.59774" lon="4.52634">
        <ele>892.72</ele>
        <time>2014-10-15T08:27:51Z</time>
      </trkpt>
      <trkpt lat="45.59763" lon="4.52637">
        <ele>893.2</ele>
        <time>2014-10-15T08:28:01Z</time>
      </trkpt>
      <trkpt lat="45.59759" lon="4.52637">
        <ele>892.24</ele>
        <time>2014-10-15T08:28:06Z</time>
      </trkpt>
      <trkpt lat="45.59756" lon="4.52636">
        <ele>891.28</ele>
        <time>2014-10-15T08:28:09Z</time>
      </trkpt>
      <trkpt lat="45.59753" lon="4.52636">
        <ele>890.32</ele>
        <time>2014-10-15T08:28:13Z</time>
      </trkpt>
      <trkpt lat="45.5975" lon="4.52637">
        <ele>890.32</ele>
        <time>2014-10-15T08:28:15Z</time>
      </trkpt>
      <trkpt lat="45.59738" lon="4.52638">
        <ele>888.4</ele>
        <time>2014-10-15T08:28:26Z</time>
      </trkpt>
      <trkpt lat="45.5973" lon="4.52637">
        <ele>888.4</ele>
        <time>2014-10-15T08:28:35Z</time>
      </trkpt>
      <trkpt lat="45.59725" lon="4.52637">
        <ele>887.91</ele>
        <time>2014-10-15T08:28:39Z</time>
      </trkpt>
      <trkpt lat="45.5972" lon="4.52638">
        <ele>886.95</ele>
        <time>2014-10-15T08:28:46Z</time>
      </trkpt>
      <trkpt lat="45.5971" lon="4.52638">
        <ele>885.99</ele>
        <time>2014-10-15T08:28:56Z</time>
      </trkpt>
      <trkpt lat="45.59706" lon="4.52638">
        <ele>884.55</ele>
        <time>2014-10-15T08:29:02Z</time>
      </trkpt>
      <trkpt lat="45.59693" lon="4.52637">
        <ele>883.59</ele>
        <time>2014-10-15T08:29:13Z</time>
      </trkpt>
      <trkpt lat="45.5969" lon="4.52637">
        <ele>882.15</ele>
        <time>2014-10-15T08:29:23Z</time>
      </trkpt>
      <trkpt lat="45.59687" lon="4.52637">
        <ele>881.19</ele>
        <time>2014-10-15T08:29:35Z</time>
      </trkpt>
      <trkpt lat="45.59678" lon="4.52635">
        <ele>881.67</ele>
        <time>2014-10-15T08:29:43Z</time>
      </trkpt>
      <trkpt lat="45.59677" lon="4.52634">
        <ele>881.19</ele>
        <time>2014-10-15T08:29:45Z</time>
      </trkpt>
      <trkpt lat="45.59664" lon="4.52638">
        <ele>878.3</ele>
        <time>2014-10-15T08:29:57Z</time>
      </trkpt>
      <trkpt lat="45.59661" lon="4.52637">
        <ele>878.3</ele>
        <time>2014-10-15T08:29:59Z</time>
      </trkpt>
      <trkpt lat="45.59653" lon="4.52637">
        <ele>876.38</ele>
        <time>2014-10-15T08:30:08Z</time>
      </trkpt>
      <trkpt lat="45.59642" lon="4.52637">
        <ele>873.5</ele>
        <time>2014-10-15T08:30:19Z</time>
      </trkpt>
      <trkpt lat="45.59642" lon="4.52636">
        <ele>874.46</ele>
        <time>2014-10-15T08:30:20Z</time>
      </trkpt>
      <trkpt lat="45.59634" lon="4.52633">
        <ele>873.5</ele>
        <time>2014-10-15T08:30:30Z</time>
      </trkpt>
      <trkpt lat="45.59632" lon="4.52633">
        <ele>873.98</ele>
        <time>2014-10-15T08:30:35Z</time>
      </trkpt>
      <trkpt lat="45.5963" lon="4.52632">
        <ele>872.53</ele>
        <time>2014-10-15T08:30:37Z</time>
      </trkpt>
      <trkpt lat="45.59627" lon="4.5263">
        <ele>871.57</ele>
        <time>2014-10-15T08:30:40Z</time>
      </trkpt>
      <trkpt lat="45.59619" lon="4.52627">
        <ele>871.57</ele>
        <time>2014-10-15T08:30:49Z</time>
      </trkpt>
      <trkpt lat="45.59614" lon="4.52629">
        <ele>870.61</ele>
        <time>2014-10-15T08:30:54Z</time>
      </trkpt>
      <trkpt lat="45.59602" lon="4.52632">
        <ele>868.21</ele>
        <time>2014-10-15T08:31:02Z</time>
      </trkpt>
      <trkpt lat="45.59596" lon="4.5263">
        <ele>866.29</ele>
        <time>2014-10-15T08:31:11Z</time>
      </trkpt>
      <trkpt lat="45.59591" lon="4.52627">
        <ele>866.77</ele>
        <time>2014-10-15T08:31:19Z</time>
      </trkpt>
      <trkpt lat="45.59582" lon="4.52627">
        <ele>863.4</ele>
        <time>2014-10-15T08:31:25Z</time>
      </trkpt>
      <trkpt lat="45.59578" lon="4.52628">
        <ele>863.4</ele>
        <time>2014-10-15T08:31:29Z</time>
      </trkpt>
      <trkpt lat="45.59565" lon="4.52629">
        <ele>862.44</ele>
        <time>2014-10-15T08:31:40Z</time>
      </trkpt>
      <trkpt lat="45.5956" lon="4.52629">
        <ele>861.48</ele>
        <time>2014-10-15T08:31:43Z</time>
      </trkpt>
      <trkpt lat="45.59552" lon="4.52629">
        <ele>861</ele>
        <time>2014-10-15T08:31:52Z</time>
      </trkpt>
      <trkpt lat="45.59542" lon="4.5263">
        <ele>860.52</ele>
        <time>2014-10-15T08:32:02Z</time>
      </trkpt>
      <trkpt lat="45.59535" lon="4.52632">
        <ele>858.59</ele>
        <time>2014-10-15T08:32:11Z</time>
      </trkpt>
      <trkpt lat="45.59534" lon="4.52632">
        <ele>859.56</ele>
        <time>2014-10-15T08:32:12Z</time>
      </trkpt>
      <trkpt lat="45.59521" lon="4.52633">
        <ele>858.11</ele>
        <time>2014-10-15T08:32:22Z</time>
      </trkpt>
      <trkpt lat="45.59514" lon="4.52635">
        <ele>857.63</ele>
        <time>2014-10-15T08:32:29Z</time>
      </trkpt>
      <trkpt lat="45.59501" lon="4.52638">
        <ele>856.19</ele>
        <time>2014-10-15T08:32:39Z</time>
      </trkpt>
      <trkpt lat="45.59497" lon="4.5264">
        <ele>855.71</ele>
        <time>2014-10-15T08:32:41Z</time>
      </trkpt>
      <trkpt lat="45.59488" lon="4.52642">
        <ele>854.27</ele>
        <time>2014-10-15T08:32:53Z</time>
      </trkpt>
      <trkpt lat="45.59475" lon="4.52645">
        <ele>854.27</ele>
        <time>2014-10-15T08:33:02Z</time>
      </trkpt>
      <trkpt lat="45.59467" lon="4.52644">
        <ele>851.87</ele>
        <time>2014-10-15T08:33:14Z</time>
      </trkpt>
      <trkpt lat="45.59455" lon="4.52647">
        <ele>850.9</ele>
        <time>2014-10-15T08:33:24Z</time>
      </trkpt>
      <trkpt lat="45.59448" lon="4.52652">
        <ele>849.94</ele>
        <time>2014-10-15T08:33:33Z</time>
      </trkpt>
      <trkpt lat="45.59441" lon="4.52658">
        <ele>848.02</ele>
        <time>2014-10-15T08:33:40Z</time>
      </trkpt>
      <trkpt lat="45.59431" lon="4.52657">
        <ele>847.06</ele>
        <time>2014-10-15T08:33:49Z</time>
      </trkpt>
      <trkpt lat="45.59419" lon="4.52657">
        <ele>847.06</ele>
        <time>2014-10-15T08:33:59Z</time>
      </trkpt>
      <trkpt lat="45.59412" lon="4.52656">
        <ele>844.66</ele>
        <time>2014-10-15T08:34:06Z</time>
      </trkpt>
      <trkpt lat="45.59401" lon="4.52652">
        <ele>843.21</ele>
        <time>2014-10-15T08:34:18Z</time>
      </trkpt>
      <trkpt lat="45.59389" lon="4.52649">
        <ele>840.33</ele>
        <time>2014-10-15T08:34:29Z</time>
      </trkpt>
      <trkpt lat="45.59388" lon="4.52649">
        <ele>840.33</ele>
        <time>2014-10-15T08:34:30Z</time>
      </trkpt>
      <trkpt lat="45.59378" lon="4.52647">
        <ele>837.93</ele>
        <time>2014-10-15T08:34:40Z</time>
      </trkpt>
      <trkpt lat="45.5937" lon="4.52643">
        <ele>836.48</ele>
        <time>2014-10-15T08:34:50Z</time>
      </trkpt>
      <trkpt lat="45.59366" lon="4.52639">
        <ele>835.04</ele>
        <time>2014-10-15T08:34:55Z</time>
      </trkpt>
      <trkpt lat="45.59363" lon="4.52639">
        <ele>835.52</ele>
        <time>2014-10-15T08:34:58Z</time>
      </trkpt>
      <trkpt lat="45.59355" lon="4.52634">
        <ele>834.08</ele>
        <time>2014-10-15T08:35:05Z</time>
      </trkpt>
      <trkpt lat="45.59342" lon="4.5263">
        <ele>833.12</ele>
        <time>2014-10-15T08:35:15Z</time>
      </trkpt>
      <trkpt lat="45.59336" lon="4.52629">
        <ele>833.12</ele>
        <time>2014-10-15T08:35:26Z</time>
      </trkpt>
      <trkpt lat="45.59328" lon="4.52621">
        <ele>831.68</ele>
        <time>2014-10-15T08:35:37Z</time>
      </trkpt>
      <trkpt lat="45.59326" lon="4.52621">
        <ele>831.2</ele>
        <time>2014-10-15T08:35:39Z</time>
      </trkpt>
      <trkpt lat="45.59315" lon="4.52619">
        <ele>830.24</ele>
        <time>2014-10-15T08:35:49Z</time>
      </trkpt>
      <trkpt lat="45.5931" lon="4.52617">
        <ele>828.31</ele>
        <time>2014-10-15T08:35:55Z</time>
      </trkpt>
      <trkpt lat="45.59308" lon="4.52618">
        <ele>829.27</ele>
        <time>2014-10-15T08:35:57Z</time>
      </trkpt>
      <trkpt lat="45.59298" lon="4.52617">
        <ele>827.35</ele>
        <time>2014-10-15T08:36:07Z</time>
      </trkpt>
      <trkpt lat="45.59294" lon="4.52616">
        <ele>825.43</ele>
        <time>2014-10-15T08:36:10Z</time>
      </trkpt>
      <trkpt lat="45.59287" lon="4.52616">
        <ele>825.43</ele>
        <time>2014-10-15T08:36:17Z</time>
      </trkpt>
      <trkpt lat="45.59278" lon="4.52614">
        <ele>824.95</ele>
        <time>2014-10-15T08:36:25Z</time>
      </trkpt>
      <trkpt lat="45.59276" lon="4.52613">
        <ele>824.47</ele>
        <time>2014-10-15T08:36:27Z</time>
      </trkpt>
      <trkpt lat="45.59268" lon="4.52612">
        <ele>823.99</ele>
        <time>2014-10-15T08:36:36Z</time>
      </trkpt>
      <trkpt lat="45.59263" lon="4.52614">
        <ele>823.03</ele>
        <time>2014-10-15T08:36:40Z</time>
      </trkpt>
      <trkpt lat="45.59255" lon="4.52615">
        <ele>820.62</ele>
        <time>2014-10-15T08:36:48Z</time>
      </trkpt>
      <trkpt lat="45.59248" lon="4.52616">
        <ele>820.62</ele>
        <time>2014-10-15T08:36:55Z</time>
      </trkpt>
      <trkpt lat="45.59245" lon="4.52618">
        <ele>820.62</ele>
        <time>2014-10-15T08:36:58Z</time>
      </trkpt>
      <trkpt lat="45.5923" lon="4.5262">
        <ele>819.66</ele>
        <time>2014-10-15T08:37:10Z</time>
      </trkpt>
      <trkpt lat="45.59227" lon="4.5262">
        <ele>818.22</ele>
        <time>2014-10-15T08:37:13Z</time>
      </trkpt>
      <trkpt lat="45.59214" lon="4.52621">
        <ele>819.18</ele>
        <time>2014-10-15T08:37:24Z</time>
      </trkpt>
      <trkpt lat="45.59207" lon="4.5262">
        <ele>816.3</ele>
        <time>2014-10-15T08:37:29Z</time>
      </trkpt>
      <trkpt lat="45.59205" lon="4.52621">
        <ele>816.78</ele>
        <time>2014-10-15T08:37:33Z</time>
      </trkpt>
      <trkpt lat="45.59201" lon="4.52621">
        <ele>816.3</ele>
        <time>2014-10-15T08:37:36Z</time>
      </trkpt>
      <trkpt lat="45.59192" lon="4.52621">
        <ele>814.37</ele>
        <time>2014-10-15T08:37:47Z</time>
      </trkpt>
      <trkpt lat="45.59182" lon="4.5262">
        <ele>812.93</ele>
        <time>2014-10-15T08:37:57Z</time>
      </trkpt>
      <trkpt lat="45.59174" lon="4.52619">
        <ele>811.97</ele>
        <time>2014-10-15T08:38:02Z</time>
      </trkpt>
      <trkpt lat="45.59162" lon="4.52618">
        <ele>811.97</ele>
        <time>2014-10-15T08:38:12Z</time>
      </trkpt>
      <trkpt lat="45.59153" lon="4.52619">
        <ele>809.57</ele>
        <time>2014-10-15T08:38:22Z</time>
      </trkpt>
      <trkpt lat="45.59149" lon="4.52619">
        <ele>808.61</ele>
        <time>2014-10-15T08:38:28Z</time>
      </trkpt>
      <trkpt lat="45.59147" lon="4.52619">
        <ele>808.61</ele>
        <time>2014-10-15T08:38:30Z</time>
      </trkpt>
      <trkpt lat="45.59142" lon="4.52625">
        <ele>807.16</ele>
        <time>2014-10-15T08:38:38Z</time>
      </trkpt>
      <trkpt lat="45.59148" lon="4.52637">
        <ele>806.2</ele>
        <time>2014-10-15T08:38:48Z</time>
      </trkpt>
      <trkpt lat="45.59153" lon="4.52648">
        <ele>805.24</ele>
        <time>2014-10-15T08:38:58Z</time>
      </trkpt>
      <trkpt lat="45.59153" lon="4.52652">
        <ele>805.24</ele>
        <time>2014-10-15T08:39:02Z</time>
      </trkpt>
      <trkpt lat="45.59159" lon="4.52661">
        <ele>805.24</ele>
        <time>2014-10-15T08:39:10Z</time>
      </trkpt>
      <trkpt lat="45.59158" lon="4.52673">
        <ele>804.28</ele>
        <time>2014-10-15T08:39:17Z</time>
      </trkpt>
      <trkpt lat="45.5915" lon="4.52687">
        <ele>802.84</ele>
        <time>2014-10-15T08:39:27Z</time>
      </trkpt>
      <trkpt lat="45.5914" lon="4.52696">
        <ele>801.88</ele>
        <time>2014-10-15T08:39:37Z</time>
      </trkpt>
      <trkpt lat="45.59137" lon="4.52699">
        <ele>800.92</ele>
        <time>2014-10-15T08:39:52Z</time>
      </trkpt>
      <trkpt lat="45.59125" lon="4.52703">
        <ele>801.4</ele>
        <time>2014-10-15T08:40:04Z</time>
      </trkpt>
      <trkpt lat="45.59121" lon="4.52705">
        <ele>799.95</ele>
        <time>2014-10-15T08:40:07Z</time>
      </trkpt>
      <trkpt lat="45.59115" lon="4.52708">
        <ele>799.47</ele>
        <time>2014-10-15T08:40:13Z</time>
      </trkpt>
      <trkpt lat="45.59112" lon="4.52708">
        <ele>798.51</ele>
        <time>2014-10-15T08:40:15Z</time>
      </trkpt>
      <trkpt lat="45.5911" lon="4.52708">
        <ele>798.99</ele>
        <time>2014-10-15T08:40:17Z</time>
      </trkpt>
      <trkpt lat="45.59097" lon="4.52713">
        <ele>798.03</ele>
        <time>2014-10-15T08:40:28Z</time>
      </trkpt>
      <trkpt lat="45.59084" lon="4.52717">
        <ele>796.11</ele>
        <time>2014-10-15T08:40:40Z</time>
      </trkpt>
      <trkpt lat="45.59081" lon="4.5272">
        <ele>797.07</ele>
        <time>2014-10-15T08:40:46Z</time>
      </trkpt>
      <trkpt lat="45.59075" lon="4.52727">
        <ele>796.11</ele>
        <time>2014-10-15T08:40:56Z</time>
      </trkpt>
      <trkpt lat="45.59065" lon="4.52735">
        <ele>794.19</ele>
        <time>2014-10-15T08:41:06Z</time>
      </trkpt>
      <trkpt lat="45.59055" lon="4.52741">
        <ele>793.71</ele>
        <time>2014-10-15T08:41:18Z</time>
      </trkpt>
      <trkpt lat="45.59049" lon="4.52745">
        <ele>791.3</ele>
        <time>2014-10-15T08:41:25Z</time>
      </trkpt>
      <trkpt lat="45.59041" lon="4.5275">
        <ele>790.34</ele>
        <time>2014-10-15T08:41:35Z</time>
      </trkpt>
      <trkpt lat="45.59039" lon="4.52751">
        <ele>790.82</ele>
        <time>2014-10-15T08:41:36Z</time>
      </trkpt>
      <trkpt lat="45.59035" lon="4.52756">
        <ele>788.42</ele>
        <time>2014-10-15T08:41:42Z</time>
      </trkpt>
      <trkpt lat="45.59024" lon="4.52762">
        <ele>786.5</ele>
        <time>2014-10-15T08:41:52Z</time>
      </trkpt>
      <trkpt lat="45.59017" lon="4.52767">
        <ele>785.05</ele>
        <time>2014-10-15T08:42:03Z</time>
      </trkpt>
      <trkpt lat="45.5901" lon="4.52771">
        <ele>783.13</ele>
        <time>2014-10-15T08:42:08Z</time>
      </trkpt>
      <trkpt lat="45.59" lon="4.52775">
        <ele>782.17</ele>
        <time>2014-10-15T08:42:18Z</time>
      </trkpt>
      <trkpt lat="45.58999" lon="4.52777">
        <ele>780.73</ele>
        <time>2014-10-15T08:42:21Z</time>
      </trkpt>
      <trkpt lat="45.58991" lon="4.52787">
        <ele>779.29</ele>
        <time>2014-10-15T08:42:34Z</time>
      </trkpt>
      <trkpt lat="45.58982" lon="4.52794">
        <ele>777.36</ele>
        <time>2014-10-15T08:42:44Z</time>
      </trkpt>
      <trkpt lat="45.5898" lon="4.52793">
        <ele>775.92</ele>
        <time>2014-10-15T08:42:47Z</time>
      </trkpt>
      <trkpt lat="45.58975" lon="4.52795">
        <ele>775.92</ele>
        <time>2014-10-15T08:42:52Z</time>
      </trkpt>
      <trkpt lat="45.58974" lon="4.52798">
        <ele>774.96</ele>
        <time>2014-10-15T08:42:55Z</time>
      </trkpt>
      <trkpt lat="45.58973" lon="4.52799">
        <ele>774</ele>
        <time>2014-10-15T08:42:56Z</time>
      </trkpt>
      <trkpt lat="45.58967" lon="4.52802">
        <ele>773.52</ele>
        <time>2014-10-15T08:43:03Z</time>
      </trkpt>
      <trkpt lat="45.58963" lon="4.52804">
        <ele>772.08</ele>
        <time>2014-10-15T08:43:09Z</time>
      </trkpt>
      <trkpt lat="45.58952" lon="4.52807">
        <ele>770.15</ele>
        <time>2014-10-15T08:43:20Z</time>
      </trkpt>
      <trkpt lat="45.58948" lon="4.52808">
        <ele>770.15</ele>
        <time>2014-10-15T08:43:23Z</time>
      </trkpt>
      <trkpt lat="45.58944" lon="4.52811">
        <ele>769.19</ele>
        <time>2014-10-15T08:43:27Z</time>
      </trkpt>
      <trkpt lat="45.58937" lon="4.52814">
        <ele>767.27</ele>
        <time>2014-10-15T08:43:35Z</time>
      </trkpt>
      <trkpt lat="45.5893" lon="4.52815">
        <ele>766.31</ele>
        <time>2014-10-15T08:43:40Z</time>
      </trkpt>
      <trkpt lat="45.58921" lon="4.52816">
        <ele>766.31</ele>
        <time>2014-10-15T08:43:50Z</time>
      </trkpt>
      <trkpt lat="45.5891" lon="4.52819">
        <ele>766.31</ele>
        <time>2014-10-15T08:43:59Z</time>
      </trkpt>
      <trkpt lat="45.58902" lon="4.52821">
        <ele>763.9</ele>
        <time>2014-10-15T08:44:08Z</time>
      </trkpt>
      <trkpt lat="45.58895" lon="4.52825">
        <ele>763.42</ele>
        <time>2014-10-15T08:44:14Z</time>
      </trkpt>
      <trkpt lat="45.58893" lon="4.52824">
        <ele>763.9</ele>
        <time>2014-10-15T08:44:18Z</time>
      </trkpt>
      <trkpt lat="45.5888" lon="4.52828">
        <ele>762.94</ele>
        <time>2014-10-15T08:44:28Z</time>
      </trkpt>
      <trkpt lat="45.58869" lon="4.52832">
        <ele>760.54</ele>
        <time>2014-10-15T08:44:40Z</time>
      </trkpt>
      <trkpt lat="45.58857" lon="4.52832">
        <ele>758.62</ele>
        <time>2014-10-15T08:44:51Z</time>
      </trkpt>
      <trkpt lat="45.58845" lon="4.52823">
        <ele>758.14</ele>
        <time>2014-10-15T08:45:01Z</time>
      </trkpt>
      <trkpt lat="45.58839" lon="4.52817">
        <ele>758.14</ele>
        <time>2014-10-15T08:45:10Z</time>
      </trkpt>
      <trkpt lat="45.58834" lon="4.52809">
        <ele>757.18</ele>
        <time>2014-10-15T08:45:20Z</time>
      </trkpt>
      <trkpt lat="45.58833" lon="4.52808">
        <ele>757.18</ele>
        <time>2014-10-15T08:45:22Z</time>
      </trkpt>
      <trkpt lat="45.58827" lon="4.52803">
        <ele>757.66</ele>
        <time>2014-10-15T08:45:31Z</time>
      </trkpt>
      <trkpt lat="45.58814" lon="4.52801">
        <ele>757.66</ele>
        <time>2014-10-15T08:45:43Z</time>
      </trkpt>
      <trkpt lat="45.58802" lon="4.52804">
        <ele>758.14</ele>
        <time>2014-10-15T08:45:53Z</time>
      </trkpt>
      <trkpt lat="45.58797" lon="4.52814">
        <ele>757.18</ele>
        <time>2014-10-15T08:46:03Z</time>
      </trkpt>
      <trkpt lat="45.58794" lon="4.52827">
        <ele>757.66</ele>
        <time>2014-10-15T08:46:11Z</time>
      </trkpt>
      <trkpt lat="45.5879" lon="4.52841">
        <ele>758.14</ele>
        <time>2014-10-15T08:46:20Z</time>
      </trkpt>
      <trkpt lat="45.58788" lon="4.52845">
        <ele>757.66</ele>
        <time>2014-10-15T08:46:22Z</time>
      </trkpt>
      <trkpt lat="45.58782" lon="4.52851">
        <ele>758.62</ele>
        <time>2014-10-15T08:46:32Z</time>
      </trkpt>
      <trkpt lat="45.58773" lon="4.52855">
        <ele>759.58</ele>
        <time>2014-10-15T08:46:41Z</time>
      </trkpt>
      <trkpt lat="45.58769" lon="4.5286">
        <ele>759.58</ele>
        <time>2014-10-15T08:46:47Z</time>
      </trkpt>
      <trkpt lat="45.58768" lon="4.52863">
        <ele>760.54</ele>
        <time>2014-10-15T08:46:49Z</time>
      </trkpt>
      <trkpt lat="45.58764" lon="4.52871">
        <ele>761.02</ele>
        <time>2014-10-15T08:46:59Z</time>
      </trkpt>
      <trkpt lat="45.58764" lon="4.52879">
        <ele>761.98</ele>
        <time>2014-10-15T08:47:15Z</time>
      </trkpt>
      <trkpt lat="45.58763" lon="4.52889">
        <ele>762.94</ele>
        <time>2014-10-15T08:47:23Z</time>
      </trkpt>
      <trkpt lat="45.58761" lon="4.52891">
        <ele>761.98</ele>
        <time>2014-10-15T08:47:25Z</time>
      </trkpt>
      <trkpt lat="45.58759" lon="4.529">
        <ele>763.9</ele>
        <time>2014-10-15T08:47:34Z</time>
      </trkpt>
      <trkpt lat="45.58755" lon="4.52912">
        <ele>764.39</ele>
        <time>2014-10-15T08:47:43Z</time>
      </trkpt>
      <trkpt lat="45.58754" lon="4.52917">
        <ele>765.35</ele>
        <time>2014-10-15T08:47:47Z</time>
      </trkpt>
      <trkpt lat="45.58752" lon="4.52927">
        <ele>766.79</ele>
        <time>2014-10-15T08:47:56Z</time>
      </trkpt>
      <trkpt lat="45.58748" lon="4.52932">
        <ele>766.79</ele>
        <time>2014-10-15T08:48:00Z</time>
      </trkpt>
      <trkpt lat="45.58741" lon="4.52942">
        <ele>766.79</ele>
        <time>2014-10-15T08:48:10Z</time>
      </trkpt>
      <trkpt lat="45.58737" lon="4.52946">
        <ele>767.75</ele>
        <time>2014-10-15T08:48:14Z</time>
      </trkpt>
      <trkpt lat="45.58732" lon="4.52952">
        <ele>768.71</ele>
        <time>2014-10-15T08:48:22Z</time>
      </trkpt>
      <trkpt lat="45.58721" lon="4.52951">
        <ele>770.63</ele>
        <time>2014-10-15T08:48:33Z</time>
      </trkpt>
      <trkpt lat="45.58718" lon="4.52949">
        <ele>769.67</ele>
        <time>2014-10-15T08:48:36Z</time>
      </trkpt>
      <trkpt lat="45.58707" lon="4.52948">
        <ele>771.6</ele>
        <time>2014-10-15T08:48:47Z</time>
      </trkpt>
      <trkpt lat="45.58699" lon="4.52945">
        <ele>774</ele>
        <time>2014-10-15T08:48:57Z</time>
      </trkpt>
      <trkpt lat="45.58693" lon="4.52942">
        <ele>774.96</ele>
        <time>2014-10-15T08:49:03Z</time>
      </trkpt>
      <trkpt lat="45.58691" lon="4.52958">
        <ele>774.48</ele>
        <time>2014-10-15T08:49:14Z</time>
      </trkpt>
      <trkpt lat="45.58688" lon="4.52977">
        <ele>773.04</ele>
        <time>2014-10-15T08:49:25Z</time>
      </trkpt>
      <trkpt lat="45.58687" lon="4.52977">
        <ele>771.6</ele>
        <time>2014-10-15T08:51:12Z</time>
      </trkpt>
      <trkpt lat="45.58687" lon="4.52977">
        <ele>773.04</ele>
        <time>2014-10-15T08:51:57Z</time>
      </trkpt>
      <trkpt lat="45.58687" lon="4.52979">
        <ele>772.56</ele>
        <time>2014-10-15T08:51:59Z</time>
      </trkpt>
      <trkpt lat="45.58684" lon="4.52984">
        <ele>771.11</ele>
        <time>2014-10-15T08:52:04Z</time>
      </trkpt>
      <trkpt lat="45.58676" lon="4.52987">
        <ele>771.11</ele>
        <time>2014-10-15T08:52:08Z</time>
      </trkpt>
      <trkpt lat="45.58674" lon="4.52997">
        <ele>769.67</ele>
        <time>2014-10-15T08:52:20Z</time>
      </trkpt>
      <trkpt lat="45.58672" lon="4.52999">
        <ele>769.19</ele>
        <time>2014-10-15T08:52:22Z</time>
      </trkpt>
      <trkpt lat="45.58662" lon="4.53007">
        <ele>769.19</ele>
        <time>2014-10-15T08:52:28Z</time>
      </trkpt>
      <trkpt lat="45.58649" lon="4.5302">
        <ele>768.23</ele>
        <time>2014-10-15T08:52:39Z</time>
      </trkpt>
      <trkpt lat="45.58644" lon="4.53027">
        <ele>768.71</ele>
        <time>2014-10-15T08:52:50Z</time>
      </trkpt>
      <trkpt lat="45.58644" lon="4.53029">
        <ele>768.23</ele>
        <time>2014-10-15T08:52:55Z</time>
      </trkpt>
      <trkpt lat="45.58643" lon="4.53031">
        <ele>768.71</ele>
        <time>2014-10-15T08:52:58Z</time>
      </trkpt>
      <trkpt lat="45.58641" lon="4.5304">
        <ele>768.71</ele>
        <time>2014-10-15T08:53:07Z</time>
      </trkpt>
      <trkpt lat="45.58641" lon="4.53042">
        <ele>768.71</ele>
        <time>2014-10-15T08:53:10Z</time>
      </trkpt>
      <trkpt lat="45.58643" lon="4.53046">
        <ele>768.71</ele>
        <time>2014-10-15T08:53:13Z</time>
      </trkpt>
      <trkpt lat="45.58644" lon="4.53047">
        <ele>768.23</ele>
        <time>2014-10-15T08:53:15Z</time>
      </trkpt>
      <trkpt lat="45.58643" lon="4.53061">
        <ele>767.75</ele>
        <time>2014-10-15T08:53:26Z</time>
      </trkpt>
      <trkpt lat="45.58642" lon="4.53074">
        <ele>768.23</ele>
        <time>2014-10-15T08:53:34Z</time>
      </trkpt>
      <trkpt lat="45.58643" lon="4.53084">
        <ele>768.71</ele>
        <time>2014-10-15T08:53:41Z</time>
      </trkpt>
      <trkpt lat="45.58641" lon="4.5309">
        <ele>769.19</ele>
        <time>2014-10-15T08:53:45Z</time>
      </trkpt>
      <trkpt lat="45.58645" lon="4.53097">
        <ele>767.75</ele>
        <time>2014-10-15T08:53:49Z</time>
      </trkpt>
      <trkpt lat="45.58644" lon="4.53104">
        <ele>768.23</ele>
        <time>2014-10-15T08:53:55Z</time>
      </trkpt>
      <trkpt lat="45.58646" lon="4.5312">
        <ele>768.71</ele>
        <time>2014-10-15T08:54:05Z</time>
      </trkpt>
      <trkpt lat="45.58647" lon="4.53123">
        <ele>768.71</ele>
        <time>2014-10-15T08:54:09Z</time>
      </trkpt>
      <trkpt lat="45.58654" lon="4.53134">
        <ele>767.27</ele>
        <time>2014-10-15T08:54:18Z</time>
      </trkpt>
      <trkpt lat="45.58659" lon="4.53151">
        <ele>768.71</ele>
        <time>2014-10-15T08:54:29Z</time>
      </trkpt>
      <trkpt lat="45.58663" lon="4.53167">
        <ele>769.67</ele>
        <time>2014-10-15T08:54:39Z</time>
      </trkpt>
      <trkpt lat="45.58664" lon="4.53169">
        <ele>768.23</ele>
        <time>2014-10-15T08:54:42Z</time>
      </trkpt>
      <trkpt lat="45.58664" lon="4.53172">
        <ele>768.71</ele>
        <time>2014-10-15T08:54:44Z</time>
      </trkpt>
      <trkpt lat="45.58672" lon="4.53185">
        <ele>768.71</ele>
        <time>2014-10-15T08:54:54Z</time>
      </trkpt>
      <trkpt lat="45.58677" lon="4.53198">
        <ele>769.67</ele>
        <time>2014-10-15T08:55:03Z</time>
      </trkpt>
      <trkpt lat="45.58679" lon="4.5321">
        <ele>769.19</ele>
        <time>2014-10-15T08:55:12Z</time>
      </trkpt>
      <trkpt lat="45.58679" lon="4.53224">
        <ele>769.67</ele>
        <time>2014-10-15T08:55:21Z</time>
      </trkpt>
      <trkpt lat="45.58681" lon="4.53231">
        <ele>769.67</ele>
        <time>2014-10-15T08:55:26Z</time>
      </trkpt>
      <trkpt lat="45.58681" lon="4.53243">
        <ele>771.11</ele>
        <time>2014-10-15T08:55:36Z</time>
      </trkpt>
      <trkpt lat="45.58681" lon="4.53251">
        <ele>771.6</ele>
        <time>2014-10-15T08:55:43Z</time>
      </trkpt>
      <trkpt lat="45.5868" lon="4.5326">
        <ele>773.04</ele>
        <time>2014-10-15T08:55:52Z</time>
      </trkpt>
      <trkpt lat="45.58679" lon="4.53263">
        <ele>773.04</ele>
        <time>2014-10-15T08:55:54Z</time>
      </trkpt>
      <trkpt lat="45.58677" lon="4.53269">
        <ele>774.96</ele>
        <time>2014-10-15T08:56:04Z</time>
      </trkpt>
      <trkpt lat="45.58676" lon="4.53272">
        <ele>775.44</ele>
        <time>2014-10-15T08:56:09Z</time>
      </trkpt>
      <trkpt lat="45.58675" lon="4.53276">
        <ele>776.4</ele>
        <time>2014-10-15T08:56:25Z</time>
      </trkpt>
      <trkpt lat="45.58673" lon="4.53279">
        <ele>777.36</ele>
        <time>2014-10-15T08:56:39Z</time>
      </trkpt>
      <trkpt lat="45.58673" lon="4.5328">
        <ele>776.88</ele>
        <time>2014-10-15T08:56:49Z</time>
      </trkpt>
      <trkpt lat="45.58667" lon="4.53281">
        <ele>778.81</ele>
        <time>2014-10-15T08:57:01Z</time>
      </trkpt>
      <trkpt lat="45.58662" lon="4.53282">
        <ele>779.77</ele>
        <time>2014-10-15T08:57:13Z</time>
      </trkpt>
      <trkpt lat="45.58652" lon="4.5328">
        <ele>781.21</ele>
        <time>2014-10-15T08:57:30Z</time>
      </trkpt>
      <trkpt lat="45.58642" lon="4.53286">
        <ele>784.57</ele>
        <time>2014-10-15T08:57:44Z</time>
      </trkpt>
      <trkpt lat="45.58641" lon="4.53289">
        <ele>784.57</ele>
        <time>2014-10-15T08:57:50Z</time>
      </trkpt>
      <trkpt lat="45.58639" lon="4.53297">
        <ele>786.98</ele>
        <time>2014-10-15T08:57:59Z</time>
      </trkpt>
      <trkpt lat="45.58637" lon="4.53305">
        <ele>787.94</ele>
        <time>2014-10-15T08:58:08Z</time>
      </trkpt>
      <trkpt lat="45.58636" lon="4.5331">
        <ele>788.9</ele>
        <time>2014-10-15T08:58:12Z</time>
      </trkpt>
      <trkpt lat="45.58637" lon="4.53317">
        <ele>789.38</ele>
        <time>2014-10-15T08:58:21Z</time>
      </trkpt>
      <trkpt lat="45.58637" lon="4.53328">
        <ele>790.34</ele>
        <time>2014-10-15T08:58:32Z</time>
      </trkpt>
      <trkpt lat="45.58636" lon="4.53337">
        <ele>791.3</ele>
        <time>2014-10-15T08:58:41Z</time>
      </trkpt>
      <trkpt lat="45.58636" lon="4.5335">
        <ele>792.74</ele>
        <time>2014-10-15T08:58:51Z</time>
      </trkpt>
      <trkpt lat="45.58638" lon="4.53357">
        <ele>792.74</ele>
        <time>2014-10-15T08:58:57Z</time>
      </trkpt>
      <trkpt lat="45.58639" lon="4.53365">
        <ele>793.71</ele>
        <time>2014-10-15T08:59:06Z</time>
      </trkpt>
      <trkpt lat="45.5864" lon="4.53374">
        <ele>794.19</ele>
        <time>2014-10-15T08:59:13Z</time>
      </trkpt>
      <trkpt lat="45.5864" lon="4.53385">
        <ele>795.63</ele>
        <time>2014-10-15T08:59:22Z</time>
      </trkpt>
      <trkpt lat="45.5864" lon="4.53395">
        <ele>796.11</ele>
        <time>2014-10-15T08:59:31Z</time>
      </trkpt>
      <trkpt lat="45.58643" lon="4.53405">
        <ele>797.55</ele>
        <time>2014-10-15T08:59:41Z</time>
      </trkpt>
      <trkpt lat="45.58642" lon="4.53417">
        <ele>798.51</ele>
        <time>2014-10-15T08:59:50Z</time>
      </trkpt>
      <trkpt lat="45.58643" lon="4.53425">
        <ele>798.99</ele>
        <time>2014-10-15T08:59:56Z</time>
      </trkpt>
      <trkpt lat="45.58644" lon="4.53434">
        <ele>799.95</ele>
        <time>2014-10-15T09:00:06Z</time>
      </trkpt>
      <trkpt lat="45.58645" lon="4.53441">
        <ele>801.4</ele>
        <time>2014-10-15T09:00:13Z</time>
      </trkpt>
      <trkpt lat="45.58646" lon="4.53449">
        <ele>802.36</ele>
        <time>2014-10-15T09:00:23Z</time>
      </trkpt>
      <trkpt lat="45.58646" lon="4.53454">
        <ele>802.36</ele>
        <time>2014-10-15T09:00:27Z</time>
      </trkpt>
      <trkpt lat="45.58646" lon="4.53459">
        <ele>802.84</ele>
        <time>2014-10-15T09:00:32Z</time>
      </trkpt>
      <trkpt lat="45.58646" lon="4.53462">
        <ele>804.28</ele>
        <time>2014-10-15T09:00:34Z</time>
      </trkpt>
      <trkpt lat="45.58648" lon="4.53473">
        <ele>804.28</ele>
        <time>2014-10-15T09:00:45Z</time>
      </trkpt>
      <trkpt lat="45.58646" lon="4.53481">
        <ele>805.24</ele>
        <time>2014-10-15T09:00:53Z</time>
      </trkpt>
      <trkpt lat="45.58645" lon="4.53493">
        <ele>806.68</ele>
        <time>2014-10-15T09:01:01Z</time>
      </trkpt>
      <trkpt lat="45.58645" lon="4.53503">
        <ele>808.61</ele>
        <time>2014-10-15T09:01:10Z</time>
      </trkpt>
      <trkpt lat="45.58644" lon="4.53504">
        <ele>808.61</ele>
        <time>2014-10-15T09:01:44Z</time>
      </trkpt>
      <trkpt lat="45.58645" lon="4.53511">
        <ele>809.57</ele>
        <time>2014-10-15T09:01:58Z</time>
      </trkpt>
      <trkpt lat="45.58645" lon="4.53511">
        <ele>809.09</ele>
        <time>2014-10-15T09:02:34Z</time>
      </trkpt>
      <trkpt lat="45.58648" lon="4.53515">
        <ele>809.09</ele>
        <time>2014-10-15T09:03:50Z</time>
      </trkpt>
      <trkpt lat="45.58651" lon="4.53526">
        <ele>810.05</ele>
        <time>2014-10-15T09:04:00Z</time>
      </trkpt>
      <trkpt lat="45.58653" lon="4.53532">
        <ele>811.01</ele>
        <time>2014-10-15T09:04:20Z</time>
      </trkpt>
      <trkpt lat="45.58655" lon="4.53537">
        <ele>810.05</ele>
        <time>2014-10-15T09:04:25Z</time>
      </trkpt>
      <trkpt lat="45.5866" lon="4.53554">
        <ele>811.01</ele>
        <time>2014-10-15T09:04:35Z</time>
      </trkpt>
      <trkpt lat="45.58666" lon="4.53561">
        <ele>811.97</ele>
        <time>2014-10-15T09:04:44Z</time>
      </trkpt>
      <trkpt lat="45.58666" lon="4.53564">
        <ele>811.97</ele>
        <time>2014-10-15T09:04:49Z</time>
      </trkpt>
      <trkpt lat="45.58668" lon="4.5357">
        <ele>812.45</ele>
        <time>2014-10-15T09:04:59Z</time>
      </trkpt>
      <trkpt lat="45.58671" lon="4.53568">
        <ele>812.93</ele>
        <time>2014-10-15T09:05:11Z</time>
      </trkpt>
      <trkpt lat="45.58671" lon="4.53568">
        <ele>813.41</ele>
        <time>2014-10-15T09:05:40Z</time>
      </trkpt>
      <trkpt lat="45.58675" lon="4.53572">
        <ele>812.93</ele>
        <time>2014-10-15T09:06:00Z</time>
      </trkpt>
      <trkpt lat="45.5868" lon="4.53584">
        <ele>813.41</ele>
        <time>2014-10-15T09:06:09Z</time>
      </trkpt>
      <trkpt lat="45.5869" lon="4.53594">
        <ele>813.89</ele>
        <time>2014-10-15T09:06:18Z</time>
      </trkpt>
      <trkpt lat="45.58693" lon="4.53598">
        <ele>812.93</ele>
        <time>2014-10-15T09:06:22Z</time>
      </trkpt>
      <trkpt lat="45.58701" lon="4.53608">
        <ele>813.41</ele>
        <time>2014-10-15T09:06:32Z</time>
      </trkpt>
      <trkpt lat="45.58702" lon="4.5361">
        <ele>812.45</ele>
        <time>2014-10-15T09:06:34Z</time>
      </trkpt>
      <trkpt lat="45.58707" lon="4.5362">
        <ele>812.45</ele>
        <time>2014-10-15T09:06:44Z</time>
      </trkpt>
      <trkpt lat="45.58712" lon="4.53633">
        <ele>811.01</ele>
        <time>2014-10-15T09:06:53Z</time>
      </trkpt>
      <trkpt lat="45.58716" lon="4.53638">
        <ele>811.49</ele>
        <time>2014-10-15T09:06:57Z</time>
      </trkpt>
      <trkpt lat="45.58727" lon="4.53648">
        <ele>809.57</ele>
        <time>2014-10-15T09:07:05Z</time>
      </trkpt>
      <trkpt lat="45.58727" lon="4.5365">
        <ele>811.01</ele>
        <time>2014-10-15T09:07:08Z</time>
      </trkpt>
      <trkpt lat="45.58727" lon="4.5365">
        <ele>811.01</ele>
        <time>2014-10-15T09:07:09Z</time>
      </trkpt>
      <trkpt lat="45.58729" lon="4.53652">
        <ele>811.01</ele>
        <time>2014-10-15T09:07:11Z</time>
      </trkpt>
      <trkpt lat="45.58734" lon="4.53658">
        <ele>809.57</ele>
        <time>2014-10-15T09:07:15Z</time>
      </trkpt>
      <trkpt lat="45.58741" lon="4.53668">
        <ele>810.05</ele>
        <time>2014-10-15T09:07:25Z</time>
      </trkpt>
      <trkpt lat="45.58744" lon="4.53675">
        <ele>809.09</ele>
        <time>2014-10-15T09:07:29Z</time>
      </trkpt>
      <trkpt lat="45.58746" lon="4.53678">
        <ele>809.57</ele>
        <time>2014-10-15T09:07:31Z</time>
      </trkpt>
      <trkpt lat="45.58755" lon="4.53692">
        <ele>808.61</ele>
        <time>2014-10-15T09:07:39Z</time>
      </trkpt>
      <trkpt lat="45.58771" lon="4.53714">
        <ele>809.57</ele>
        <time>2014-10-15T09:07:52Z</time>
      </trkpt>
      <trkpt lat="45.58775" lon="4.53718">
        <ele>809.09</ele>
        <time>2014-10-15T09:08:02Z</time>
      </trkpt>
      <trkpt lat="45.58777" lon="4.53722">
        <ele>808.61</ele>
        <time>2014-10-15T09:08:11Z</time>
      </trkpt>
      <trkpt lat="45.58776" lon="4.53727">
        <ele>810.53</ele>
        <time>2014-10-15T09:08:23Z</time>
      </trkpt>
      <trkpt lat="45.58776" lon="4.53728">
        <ele>810.53</ele>
        <time>2014-10-15T09:08:24Z</time>
      </trkpt>
      <trkpt lat="45.58769" lon="4.53735">
        <ele>810.53</ele>
        <time>2014-10-15T09:08:35Z</time>
      </trkpt>
      <trkpt lat="45.58761" lon="4.53742">
        <ele>811.49</ele>
        <time>2014-10-15T09:08:44Z</time>
      </trkpt>
      <trkpt lat="45.58756" lon="4.53747">
        <ele>814.37</ele>
        <time>2014-10-15T09:08:55Z</time>
      </trkpt>
      <trkpt lat="45.5875" lon="4.53753">
        <ele>814.37</ele>
        <time>2014-10-15T09:09:09Z</time>
      </trkpt>
      <trkpt lat="45.58748" lon="4.53753">
        <ele>815.34</ele>
        <time>2014-10-15T09:09:33Z</time>
      </trkpt>
      <trkpt lat="45.58747" lon="4.53754">
        <ele>815.34</ele>
        <time>2014-10-15T09:09:47Z</time>
      </trkpt>
      <trkpt lat="45.58746" lon="4.53755">
        <ele>815.82</ele>
        <time>2014-10-15T09:10:13Z</time>
      </trkpt>
      <trkpt lat="45.58745" lon="4.53756">
        <ele>815.82</ele>
        <time>2014-10-15T09:10:59Z</time>
      </trkpt>
      <trkpt lat="45.58742" lon="4.53758">
        <ele>815.34</ele>
        <time>2014-10-15T09:11:16Z</time>
      </trkpt>
      <trkpt lat="45.58742" lon="4.53758">
        <ele>816.78</ele>
        <time>2014-10-15T09:11:30Z</time>
      </trkpt>
      <trkpt lat="45.58735" lon="4.53762">
        <ele>818.22</ele>
        <time>2014-10-15T09:11:40Z</time>
      </trkpt>
      <trkpt lat="45.58729" lon="4.53765">
        <ele>819.18</ele>
        <time>2014-10-15T09:11:51Z</time>
      </trkpt>
      <trkpt lat="45.58726" lon="4.53766">
        <ele>821.58</ele>
        <time>2014-10-15T09:12:05Z</time>
      </trkpt>
      <trkpt lat="45.58723" lon="4.53766">
        <ele>823.03</ele>
        <time>2014-10-15T09:12:19Z</time>
      </trkpt>
      <trkpt lat="45.58719" lon="4.53767">
        <ele>823.99</ele>
        <time>2014-10-15T09:12:28Z</time>
      </trkpt>
      <trkpt lat="45.58715" lon="4.5377">
        <ele>825.91</ele>
        <time>2014-10-15T09:12:31Z</time>
      </trkpt>
      <trkpt lat="45.5871" lon="4.53771">
        <ele>823.99</ele>
        <time>2014-10-15T09:12:33Z</time>
      </trkpt>
      <trkpt lat="45.58702" lon="4.53778">
        <ele>824.95</ele>
        <time>2014-10-15T09:12:40Z</time>
      </trkpt>
      <trkpt lat="45.58698" lon="4.5378">
        <ele>825.91</ele>
        <time>2014-10-15T09:12:43Z</time>
      </trkpt>
      <trkpt lat="45.58694" lon="4.5378">
        <ele>826.39</ele>
        <time>2014-10-15T09:12:47Z</time>
      </trkpt>
      <trkpt lat="45.58689" lon="4.53781">
        <ele>826.39</ele>
        <time>2014-10-15T09:13:01Z</time>
      </trkpt>
      <trkpt lat="45.58689" lon="4.53781">
        <ele>825.91</ele>
        <time>2014-10-15T09:13:21Z</time>
      </trkpt>
      <trkpt lat="45.58688" lon="4.53782">
        <ele>826.87</ele>
        <time>2014-10-15T09:13:23Z</time>
      </trkpt>
      <trkpt lat="45.58687" lon="4.53783">
        <ele>827.35</ele>
        <time>2014-10-15T09:13:28Z</time>
      </trkpt>
      <trkpt lat="45.58686" lon="4.53789">
        <ele>828.31</ele>
        <time>2014-10-15T09:13:34Z</time>
      </trkpt>
      <trkpt lat="45.5868" lon="4.53795">
        <ele>828.79</ele>
        <time>2014-10-15T09:13:42Z</time>
      </trkpt>
      <trkpt lat="45.58677" lon="4.53798">
        <ele>828.79</ele>
        <time>2014-10-15T09:13:47Z</time>
      </trkpt>
      <trkpt lat="45.58672" lon="4.53803">
        <ele>830.72</ele>
        <time>2014-10-15T09:13:55Z</time>
      </trkpt>
      <trkpt lat="45.58668" lon="4.53807">
        <ele>831.2</ele>
        <time>2014-10-15T09:14:02Z</time>
      </trkpt>
      <trkpt lat="45.58664" lon="4.53811">
        <ele>831.68</ele>
        <time>2014-10-15T09:14:10Z</time>
      </trkpt>
      <trkpt lat="45.58662" lon="4.53814">
        <ele>831.68</ele>
        <time>2014-10-15T09:14:13Z</time>
      </trkpt>
      <trkpt lat="45.58656" lon="4.53819">
        <ele>834.08</ele>
        <time>2014-10-15T09:14:22Z</time>
      </trkpt>
      <trkpt lat="45.58653" lon="4.53822">
        <ele>834.08</ele>
        <time>2014-10-15T09:14:29Z</time>
      </trkpt>
      <trkpt lat="45.58652" lon="4.53823">
        <ele>834.56</ele>
        <time>2014-10-15T09:14:32Z</time>
      </trkpt>
      <trkpt lat="45.58649" lon="4.53827">
        <ele>836</ele>
        <time>2014-10-15T09:14:36Z</time>
      </trkpt>
      <trkpt lat="45.5864" lon="4.5383">
        <ele>835.52</ele>
        <time>2014-10-15T09:14:44Z</time>
      </trkpt>
      <trkpt lat="45.58637" lon="4.53832">
        <ele>836.48</ele>
        <time>2014-10-15T09:14:48Z</time>
      </trkpt>
      <trkpt lat="45.58632" lon="4.53836">
        <ele>837.93</ele>
        <time>2014-10-15T09:14:55Z</time>
      </trkpt>
      <trkpt lat="45.58629" lon="4.53837">
        <ele>838.41</ele>
        <time>2014-10-15T09:14:58Z</time>
      </trkpt>
      <trkpt lat="45.58622" lon="4.53843">
        <ele>839.85</ele>
        <time>2014-10-15T09:15:10Z</time>
      </trkpt>
      <trkpt lat="45.5862" lon="4.53845">
        <ele>840.33</ele>
        <time>2014-10-15T09:15:20Z</time>
      </trkpt>
      <trkpt lat="45.58611" lon="4.5385">
        <ele>842.25</ele>
        <time>2014-10-15T09:15:29Z</time>
      </trkpt>
      <trkpt lat="45.58609" lon="4.53852">
        <ele>842.25</ele>
        <time>2014-10-15T09:15:31Z</time>
      </trkpt>
      <trkpt lat="45.58606" lon="4.53855">
        <ele>842.25</ele>
        <time>2014-10-15T09:15:35Z</time>
      </trkpt>
      <trkpt lat="45.58604" lon="4.53856">
        <ele>843.21</ele>
        <time>2014-10-15T09:15:38Z</time>
      </trkpt>
      <trkpt lat="45.58595" lon="4.53859">
        <ele>843.69</ele>
        <time>2014-10-15T09:15:47Z</time>
      </trkpt>
      <trkpt lat="45.58589" lon="4.53865">
        <ele>845.14</ele>
        <time>2014-10-15T09:15:56Z</time>
      </trkpt>
      <trkpt lat="45.58589" lon="4.53865">
        <ele>846.1</ele>
        <time>2014-10-15T09:15:57Z</time>
      </trkpt>
      <trkpt lat="45.58584" lon="4.5387">
        <ele>846.1</ele>
        <time>2014-10-15T09:16:06Z</time>
      </trkpt>
      <trkpt lat="45.58582" lon="4.53873">
        <ele>848.02</ele>
        <time>2014-10-15T09:16:10Z</time>
      </trkpt>
      <trkpt lat="45.58579" lon="4.53874">
        <ele>847.06</ele>
        <time>2014-10-15T09:16:13Z</time>
      </trkpt>
      <trkpt lat="45.58575" lon="4.53878">
        <ele>850.9</ele>
        <time>2014-10-15T09:16:25Z</time>
      </trkpt>
      <trkpt lat="45.58565" lon="4.53885">
        <ele>851.38</ele>
        <time>2014-10-15T09:16:37Z</time>
      </trkpt>
      <trkpt lat="45.58557" lon="4.53888">
        <ele>851.87</ele>
        <time>2014-10-15T09:16:45Z</time>
      </trkpt>
      <trkpt lat="45.58554" lon="4.53891">
        <ele>853.31</ele>
        <time>2014-10-15T09:16:48Z</time>
      </trkpt>
      <trkpt lat="45.5855" lon="4.53891">
        <ele>855.71</ele>
        <time>2014-10-15T09:17:01Z</time>
      </trkpt>
      <trkpt lat="45.58544" lon="4.53894">
        <ele>855.71</ele>
        <time>2014-10-15T09:17:08Z</time>
      </trkpt>
      <trkpt lat="45.58533" lon="4.53901">
        <ele>857.15</ele>
        <time>2014-10-15T09:17:19Z</time>
      </trkpt>
      <trkpt lat="45.58525" lon="4.53904">
        <ele>858.11</ele>
        <time>2014-10-15T09:17:30Z</time>
      </trkpt>
      <trkpt lat="45.58515" lon="4.53913">
        <ele>858.59</ele>
        <time>2014-10-15T09:17:40Z</time>
      </trkpt>
      <trkpt lat="45.58505" lon="4.53918">
        <ele>860.52</ele>
        <time>2014-10-15T09:17:51Z</time>
      </trkpt>
      <trkpt lat="45.58501" lon="4.53924">
        <ele>861</ele>
        <time>2014-10-15T09:17:55Z</time>
      </trkpt>
      <trkpt lat="45.58492" lon="4.53932">
        <ele>861.48</ele>
        <time>2014-10-15T09:18:04Z</time>
      </trkpt>
      <trkpt lat="45.5849" lon="4.53936">
        <ele>861.96</ele>
        <time>2014-10-15T09:18:08Z</time>
      </trkpt>
      <trkpt lat="45.58482" lon="4.53949">
        <ele>863.4</ele>
        <time>2014-10-15T09:18:18Z</time>
      </trkpt>
      <trkpt lat="45.58478" lon="4.53951">
        <ele>862.92</ele>
        <time>2014-10-15T09:18:24Z</time>
      </trkpt>
      <trkpt lat="45.58476" lon="4.53952">
        <ele>864.36</ele>
        <time>2014-10-15T09:18:27Z</time>
      </trkpt>
      <trkpt lat="45.58469" lon="4.53957">
        <ele>865.8</ele>
        <time>2014-10-15T09:18:36Z</time>
      </trkpt>
      <trkpt lat="45.58467" lon="4.53958">
        <ele>865.32</ele>
        <time>2014-10-15T09:18:38Z</time>
      </trkpt>
      <trkpt lat="45.58458" lon="4.53965">
        <ele>867.25</ele>
        <time>2014-10-15T09:18:47Z</time>
      </trkpt>
      <trkpt lat="45.58456" lon="4.53967">
        <ele>867.25</ele>
        <time>2014-10-15T09:18:50Z</time>
      </trkpt>
      <trkpt lat="45.58448" lon="4.53973">
        <ele>868.69</ele>
        <time>2014-10-15T09:19:00Z</time>
      </trkpt>
      <trkpt lat="45.58445" lon="4.53975">
        <ele>869.65</ele>
        <time>2014-10-15T09:19:05Z</time>
      </trkpt>
      <trkpt lat="45.58443" lon="4.53978">
        <ele>870.61</ele>
        <time>2014-10-15T09:19:12Z</time>
      </trkpt>
      <trkpt lat="45.5844" lon="4.53979">
        <ele>871.57</ele>
        <time>2014-10-15T09:19:15Z</time>
      </trkpt>
      <trkpt lat="45.58434" lon="4.53984">
        <ele>871.09</ele>
        <time>2014-10-15T09:19:21Z</time>
      </trkpt>
      <trkpt lat="45.58426" lon="4.53983">
        <ele>872.53</ele>
        <time>2014-10-15T09:19:30Z</time>
      </trkpt>
      <trkpt lat="45.58417" lon="4.53977">
        <ele>872.53</ele>
        <time>2014-10-15T09:19:38Z</time>
      </trkpt>
      <trkpt lat="45.58408" lon="4.53969">
        <ele>872.05</ele>
        <time>2014-10-15T09:19:48Z</time>
      </trkpt>
      <trkpt lat="45.58402" lon="4.53965">
        <ele>871.57</ele>
        <time>2014-10-15T09:19:58Z</time>
      </trkpt>
      <trkpt lat="45.58395" lon="4.53959">
        <ele>872.05</ele>
        <time>2014-10-15T09:20:06Z</time>
      </trkpt>
      <trkpt lat="45.58392" lon="4.53954">
        <ele>871.57</ele>
        <time>2014-10-15T09:20:14Z</time>
      </trkpt>
      <trkpt lat="45.58384" lon="4.5395">
        <ele>869.65</ele>
        <time>2014-10-15T09:20:22Z</time>
      </trkpt>
      <trkpt lat="45.58375" lon="4.53946">
        <ele>870.13</ele>
        <time>2014-10-15T09:20:31Z</time>
      </trkpt>
      <trkpt lat="45.58375" lon="4.53945">
        <ele>870.13</ele>
        <time>2014-10-15T09:20:32Z</time>
      </trkpt>
      <trkpt lat="45.58374" lon="4.53942">
        <ele>870.13</ele>
        <time>2014-10-15T09:20:50Z</time>
      </trkpt>
      <trkpt lat="45.58374" lon="4.53943">
        <ele>869.17</ele>
        <time>2014-10-15T09:21:09Z</time>
      </trkpt>
      <trkpt lat="45.58374" lon="4.53943">
        <ele>870.13</ele>
        <time>2014-10-15T09:21:12Z</time>
      </trkpt>
      <trkpt lat="45.58374" lon="4.53943">
        <ele>868.69</ele>
        <time>2014-10-15T09:21:14Z</time>
      </trkpt>
      <trkpt lat="45.58371" lon="4.53936">
        <ele>869.17</ele>
        <time>2014-10-15T09:21:45Z</time>
      </trkpt>
      <trkpt lat="45.58371" lon="4.53936">
        <ele>868.69</ele>
        <time>2014-10-15T09:21:47Z</time>
      </trkpt>
      <trkpt lat="45.5837" lon="4.53931">
        <ele>869.17</ele>
        <time>2014-10-15T09:22:01Z</time>
      </trkpt>
      <trkpt lat="45.5837" lon="4.53931">
        <ele>869.65</ele>
        <time>2014-10-15T09:22:07Z</time>
      </trkpt>
      <trkpt lat="45.58367" lon="4.5393">
        <ele>868.69</ele>
        <time>2014-10-15T09:22:34Z</time>
      </trkpt>
      <trkpt lat="45.58361" lon="4.53927">
        <ele>868.69</ele>
        <time>2014-10-15T09:22:42Z</time>
      </trkpt>
      <trkpt lat="45.58355" lon="4.53924">
        <ele>867.25</ele>
        <time>2014-10-15T09:22:53Z</time>
      </trkpt>
      <trkpt lat="45.58355" lon="4.53925">
        <ele>867.73</ele>
        <time>2014-10-15T09:23:37Z</time>
      </trkpt>
      <trkpt lat="45.58355" lon="4.53925">
        <ele>867.25</ele>
        <time>2014-10-15T09:23:48Z</time>
      </trkpt>
      <trkpt lat="45.58353" lon="4.53931">
        <ele>866.29</ele>
        <time>2014-10-15T09:23:54Z</time>
      </trkpt>
      <trkpt lat="45.58353" lon="4.53936">
        <ele>867.25</ele>
        <time>2014-10-15T09:24:01Z</time>
      </trkpt>
      <trkpt lat="45.58353" lon="4.53943">
        <ele>866.29</ele>
        <time>2014-10-15T09:24:14Z</time>
      </trkpt>
      <trkpt lat="45.58352" lon="4.53944">
        <ele>866.29</ele>
        <time>2014-10-15T09:24:30Z</time>
      </trkpt>
      <trkpt lat="45.58352" lon="4.53946">
        <ele>866.29</ele>
        <time>2014-10-15T09:24:42Z</time>
      </trkpt>
      <trkpt lat="45.58351" lon="4.53951">
        <ele>867.73</ele>
        <time>2014-10-15T09:24:45Z</time>
      </trkpt>
      <trkpt lat="45.58344" lon="4.53959">
        <ele>866.29</ele>
        <time>2014-10-15T09:24:55Z</time>
      </trkpt>
      <trkpt lat="45.58342" lon="4.5396">
        <ele>865.32</ele>
        <time>2014-10-15T09:24:57Z</time>
      </trkpt>
      <trkpt lat="45.58331" lon="4.53963">
        <ele>864.84</ele>
        <time>2014-10-15T09:25:06Z</time>
      </trkpt>
      <trkpt lat="45.58319" lon="4.53967">
        <ele>864.84</ele>
        <time>2014-10-15T09:25:16Z</time>
      </trkpt>
      <trkpt lat="45.58311" lon="4.5397">
        <ele>863.4</ele>
        <time>2014-10-15T09:25:27Z</time>
      </trkpt>
      <trkpt lat="45.58307" lon="4.5397">
        <ele>862.44</ele>
        <time>2014-10-15T09:25:30Z</time>
      </trkpt>
      <trkpt lat="45.58299" lon="4.53972">
        <ele>861.96</ele>
        <time>2014-10-15T09:25:39Z</time>
      </trkpt>
      <trkpt lat="45.58288" lon="4.53976">
        <ele>858.59</ele>
        <time>2014-10-15T09:25:52Z</time>
      </trkpt>
      <trkpt lat="45.58285" lon="4.53977">
        <ele>859.56</ele>
        <time>2014-10-15T09:25:55Z</time>
      </trkpt>
      <trkpt lat="45.58278" lon="4.53979">
        <ele>858.11</ele>
        <time>2014-10-15T09:26:03Z</time>
      </trkpt>
      <trkpt lat="45.58267" lon="4.53984">
        <ele>857.63</ele>
        <time>2014-10-15T09:26:14Z</time>
      </trkpt>
      <trkpt lat="45.5826" lon="4.53988">
        <ele>857.15</ele>
        <time>2014-10-15T09:26:20Z</time>
      </trkpt>
      <trkpt lat="45.58256" lon="4.53994">
        <ele>855.23</ele>
        <time>2014-10-15T09:26:26Z</time>
      </trkpt>
      <trkpt lat="45.58251" lon="4.54">
        <ele>855.71</ele>
        <time>2014-10-15T09:26:31Z</time>
      </trkpt>
      <trkpt lat="45.58249" lon="4.54003">
        <ele>856.19</ele>
        <time>2014-10-15T09:26:33Z</time>
      </trkpt>
      <trkpt lat="45.58239" lon="4.54014">
        <ele>854.75</ele>
        <time>2014-10-15T09:26:44Z</time>
      </trkpt>
      <trkpt lat="45.58234" lon="4.54019">
        <ele>854.75</ele>
        <time>2014-10-15T09:26:49Z</time>
      </trkpt>
      <trkpt lat="45.58231" lon="4.54025">
        <ele>853.79</ele>
        <time>2014-10-15T09:26:54Z</time>
      </trkpt>
      <trkpt lat="45.58226" lon="4.54033">
        <ele>851.87</ele>
        <time>2014-10-15T09:27:00Z</time>
      </trkpt>
      <trkpt lat="45.58217" lon="4.54042">
        <ele>853.31</ele>
        <time>2014-10-15T09:27:09Z</time>
      </trkpt>
      <trkpt lat="45.58212" lon="4.54047">
        <ele>852.83</ele>
        <time>2014-10-15T09:27:14Z</time>
      </trkpt>
      <trkpt lat="45.5821" lon="4.5405">
        <ele>851.38</ele>
        <time>2014-10-15T09:27:18Z</time>
      </trkpt>
      <trkpt lat="45.58201" lon="4.54059">
        <ele>850.9</ele>
        <time>2014-10-15T09:27:27Z</time>
      </trkpt>
      <trkpt lat="45.58192" lon="4.54066">
        <ele>848.98</ele>
        <time>2014-10-15T09:27:35Z</time>
      </trkpt>
      <trkpt lat="45.58183" lon="4.54073">
        <ele>849.94</ele>
        <time>2014-10-15T09:27:44Z</time>
      </trkpt>
      <trkpt lat="45.58173" lon="4.54079">
        <ele>848.98</ele>
        <time>2014-10-15T09:27:55Z</time>
      </trkpt>
      <trkpt lat="45.58164" lon="4.54085">
        <ele>847.54</ele>
        <time>2014-10-15T09:28:04Z</time>
      </trkpt>
      <trkpt lat="45.58158" lon="4.54088">
        <ele>847.54</ele>
        <time>2014-10-15T09:28:11Z</time>
      </trkpt>
      <trkpt lat="45.58152" lon="4.54095">
        <ele>848.5</ele>
        <time>2014-10-15T09:28:19Z</time>
      </trkpt>
      <trkpt lat="45.58141" lon="4.54103">
        <ele>847.06</ele>
        <time>2014-10-15T09:28:29Z</time>
      </trkpt>
      <trkpt lat="45.58137" lon="4.54107">
        <ele>846.58</ele>
        <time>2014-10-15T09:28:35Z</time>
      </trkpt>
      <trkpt lat="45.58128" lon="4.54118">
        <ele>846.1</ele>
        <time>2014-10-15T09:28:44Z</time>
      </trkpt>
      <trkpt lat="45.58124" lon="4.54121">
        <ele>847.06</ele>
        <time>2014-10-15T09:28:48Z</time>
      </trkpt>
      <trkpt lat="45.58116" lon="4.54128">
        <ele>845.62</ele>
        <time>2014-10-15T09:28:57Z</time>
      </trkpt>
      <trkpt lat="45.58113" lon="4.5413">
        <ele>845.62</ele>
        <time>2014-10-15T09:29:01Z</time>
      </trkpt>
      <trkpt lat="45.58105" lon="4.54142">
        <ele>845.62</ele>
        <time>2014-10-15T09:29:11Z</time>
      </trkpt>
      <trkpt lat="45.58104" lon="4.54145">
        <ele>845.14</ele>
        <time>2014-10-15T09:29:13Z</time>
      </trkpt>
      <trkpt lat="45.58098" lon="4.54157">
        <ele>844.66</ele>
        <time>2014-10-15T09:29:20Z</time>
      </trkpt>
      <trkpt lat="45.58096" lon="4.54163">
        <ele>843.21</ele>
        <time>2014-10-15T09:29:25Z</time>
      </trkpt>
      <trkpt lat="45.58095" lon="4.54167">
        <ele>841.77</ele>
        <time>2014-10-15T09:29:30Z</time>
      </trkpt>
      <trkpt lat="45.58091" lon="4.54174">
        <ele>842.25</ele>
        <time>2014-10-15T09:29:36Z</time>
      </trkpt>
      <trkpt lat="45.58089" lon="4.54176">
        <ele>842.25</ele>
        <time>2014-10-15T09:29:38Z</time>
      </trkpt>
      <trkpt lat="45.58085" lon="4.54182">
        <ele>841.77</ele>
        <time>2014-10-15T09:29:43Z</time>
      </trkpt>
      <trkpt lat="45.58077" lon="4.54193">
        <ele>840.81</ele>
        <time>2014-10-15T09:29:52Z</time>
      </trkpt>
      <trkpt lat="45.58076" lon="4.54195">
        <ele>840.81</ele>
        <time>2014-10-15T09:29:54Z</time>
      </trkpt>
      <trkpt lat="45.58066" lon="4.54206">
        <ele>839.85</ele>
        <time>2014-10-15T09:30:04Z</time>
      </trkpt>
      <trkpt lat="45.58065" lon="4.54208">
        <ele>840.33</ele>
        <time>2014-10-15T09:30:07Z</time>
      </trkpt>
      <trkpt lat="45.58059" lon="4.54215">
        <ele>838.89</ele>
        <time>2014-10-15T09:30:15Z</time>
      </trkpt>
      <trkpt lat="45.58054" lon="4.54225">
        <ele>839.85</ele>
        <time>2014-10-15T09:30:23Z</time>
      </trkpt>
      <trkpt lat="45.58052" lon="4.54231">
        <ele>837.93</ele>
        <time>2014-10-15T09:30:28Z</time>
      </trkpt>
      <trkpt lat="45.58042" lon="4.54238">
        <ele>837.93</ele>
        <time>2014-10-15T09:30:38Z</time>
      </trkpt>
      <trkpt lat="45.58036" lon="4.54245">
        <ele>837.93</ele>
        <time>2014-10-15T09:30:45Z</time>
      </trkpt>
      <trkpt lat="45.58028" lon="4.54253">
        <ele>837.93</ele>
        <time>2014-10-15T09:30:53Z</time>
      </trkpt>
      <trkpt lat="45.5802" lon="4.54258">
        <ele>837.45</ele>
        <time>2014-10-15T09:31:01Z</time>
      </trkpt>
      <trkpt lat="45.58016" lon="4.54263">
        <ele>836</ele>
        <time>2014-10-15T09:31:09Z</time>
      </trkpt>
      <trkpt lat="45.58016" lon="4.54264">
        <ele>835.52</ele>
        <time>2014-10-15T09:31:10Z</time>
      </trkpt>
      <trkpt lat="45.58011" lon="4.54271">
        <ele>835.52</ele>
        <time>2014-10-15T09:31:18Z</time>
      </trkpt>
      <trkpt lat="45.58006" lon="4.54275">
        <ele>836</ele>
        <time>2014-10-15T09:31:24Z</time>
      </trkpt>
      <trkpt lat="45.58003" lon="4.54278">
        <ele>835.04</ele>
        <time>2014-10-15T09:31:29Z</time>
      </trkpt>
      <trkpt lat="45.57999" lon="4.54281">
        <ele>836</ele>
        <time>2014-10-15T09:31:31Z</time>
      </trkpt>
      <trkpt lat="45.57992" lon="4.54285">
        <ele>833.6</ele>
        <time>2014-10-15T09:31:38Z</time>
      </trkpt>
      <trkpt lat="45.57991" lon="4.54285">
        <ele>834.56</ele>
        <time>2014-10-15T09:31:40Z</time>
      </trkpt>
      <trkpt lat="45.57989" lon="4.54288">
        <ele>833.12</ele>
        <time>2014-10-15T09:31:44Z</time>
      </trkpt>
      <trkpt lat="45.57983" lon="4.54292">
        <ele>834.56</ele>
        <time>2014-10-15T09:31:48Z</time>
      </trkpt>
      <trkpt lat="45.57981" lon="4.54293">
        <ele>833.6</ele>
        <time>2014-10-15T09:31:50Z</time>
      </trkpt>
      <trkpt lat="45.57974" lon="4.54301">
        <ele>833.6</ele>
        <time>2014-10-15T09:32:00Z</time>
      </trkpt>
      <trkpt lat="45.57971" lon="4.54305">
        <ele>834.56</ele>
        <time>2014-10-15T09:32:04Z</time>
      </trkpt>
      <trkpt lat="45.5797" lon="4.54313">
        <ele>834.08</ele>
        <time>2014-10-15T09:32:11Z</time>
      </trkpt>
      <trkpt lat="45.57971" lon="4.54318">
        <ele>833.6</ele>
        <time>2014-10-15T09:32:14Z</time>
      </trkpt>
      <trkpt lat="45.57971" lon="4.54335">
        <ele>833.12</ele>
        <time>2014-10-15T09:32:23Z</time>
      </trkpt>
      <trkpt lat="45.5797" lon="4.54344">
        <ele>833.6</ele>
        <time>2014-10-15T09:32:31Z</time>
      </trkpt>
      <trkpt lat="45.5797" lon="4.54355">
        <ele>833.12</ele>
        <time>2014-10-15T09:32:37Z</time>
      </trkpt>
      <trkpt lat="45.57968" lon="4.54369">
        <ele>833.6</ele>
        <time>2014-10-15T09:32:47Z</time>
      </trkpt>
      <trkpt lat="45.57969" lon="4.54385">
        <ele>833.6</ele>
        <time>2014-10-15T09:32:58Z</time>
      </trkpt>
      <trkpt lat="45.57968" lon="4.54395">
        <ele>833.12</ele>
        <time>2014-10-15T09:33:06Z</time>
      </trkpt>
      <trkpt lat="45.57966" lon="4.54408">
        <ele>832.64</ele>
        <time>2014-10-15T09:33:15Z</time>
      </trkpt>
      <trkpt lat="45.57966" lon="4.54417">
        <ele>833.12</ele>
        <time>2014-10-15T09:33:22Z</time>
      </trkpt>
      <trkpt lat="45.57965" lon="4.54433">
        <ele>832.64</ele>
        <time>2014-10-15T09:33:30Z</time>
      </trkpt>
      <trkpt lat="45.57966" lon="4.5444">
        <ele>833.6</ele>
        <time>2014-10-15T09:33:34Z</time>
      </trkpt>
      <trkpt lat="45.57967" lon="4.54451">
        <ele>834.08</ele>
        <time>2014-10-15T09:33:41Z</time>
      </trkpt>
      <trkpt lat="45.57968" lon="4.54463">
        <ele>832.64</ele>
        <time>2014-10-15T09:33:48Z</time>
      </trkpt>
      <trkpt lat="45.57968" lon="4.54464">
        <ele>832.16</ele>
        <time>2014-10-15T09:33:50Z</time>
      </trkpt>
      <trkpt lat="45.57966" lon="4.54474">
        <ele>832.16</ele>
        <time>2014-10-15T09:33:57Z</time>
      </trkpt>
      <trkpt lat="45.57964" lon="4.54491">
        <ele>833.6</ele>
        <time>2014-10-15T09:34:08Z</time>
      </trkpt>
      <trkpt lat="45.57962" lon="4.54498">
        <ele>834.56</ele>
        <time>2014-10-15T09:34:13Z</time>
      </trkpt>
      <trkpt lat="45.57964" lon="4.54505">
        <ele>832.64</ele>
        <time>2014-10-15T09:34:18Z</time>
      </trkpt>
      <trkpt lat="45.57962" lon="4.54508">
        <ele>833.12</ele>
        <time>2014-10-15T09:34:20Z</time>
      </trkpt>
      <trkpt lat="45.57958" lon="4.54524">
        <ele>833.6</ele>
        <time>2014-10-15T09:34:32Z</time>
      </trkpt>
      <trkpt lat="45.57955" lon="4.54535">
        <ele>834.56</ele>
        <time>2014-10-15T09:34:43Z</time>
      </trkpt>
      <trkpt lat="45.57953" lon="4.54553">
        <ele>833.12</ele>
        <time>2014-10-15T09:34:56Z</time>
      </trkpt>
      <trkpt lat="45.57952" lon="4.54562">
        <ele>832.64</ele>
        <time>2014-10-15T09:35:05Z</time>
      </trkpt>
      <trkpt lat="45.57956" lon="4.54582">
        <ele>830.72</ele>
        <time>2014-10-15T09:35:18Z</time>
      </trkpt>
      <trkpt lat="45.57958" lon="4.54596">
        <ele>832.64</ele>
        <time>2014-10-15T09:35:25Z</time>
      </trkpt>
      <trkpt lat="45.5796" lon="4.54627">
        <ele>831.68</ele>
        <time>2014-10-15T09:35:39Z</time>
      </trkpt>
      <trkpt lat="45.57969" lon="4.54648">
        <ele>831.2</ele>
        <time>2014-10-15T09:35:51Z</time>
      </trkpt>
      <trkpt lat="45.57971" lon="4.54662">
        <ele>831.2</ele>
        <time>2014-10-15T09:35:59Z</time>
      </trkpt>
      <trkpt lat="45.57967" lon="4.54672">
        <ele>831.2</ele>
        <time>2014-10-15T09:36:05Z</time>
      </trkpt>
      <trkpt lat="45.57966" lon="4.54677">
        <ele>831.2</ele>
        <time>2014-10-15T09:36:08Z</time>
      </trkpt>
      <trkpt lat="45.57965" lon="4.54683">
        <ele>830.72</ele>
        <time>2014-10-15T09:36:13Z</time>
      </trkpt>
      <trkpt lat="45.57965" lon="4.54689">
        <ele>830.72</ele>
        <time>2014-10-15T09:36:18Z</time>
      </trkpt>
      <trkpt lat="45.57963" lon="4.54706">
        <ele>830.72</ele>
        <time>2014-10-15T09:36:28Z</time>
      </trkpt>
      <trkpt lat="45.5796" lon="4.5472">
        <ele>829.27</ele>
        <time>2014-10-15T09:36:36Z</time>
      </trkpt>
      <trkpt lat="45.57957" lon="4.54727">
        <ele>830.24</ele>
        <time>2014-10-15T09:36:41Z</time>
      </trkpt>
      <trkpt lat="45.57959" lon="4.54734">
        <ele>830.24</ele>
        <time>2014-10-15T09:36:46Z</time>
      </trkpt>
      <trkpt lat="45.57958" lon="4.54743">
        <ele>829.27</ele>
        <time>2014-10-15T09:36:51Z</time>
      </trkpt>
      <trkpt lat="45.57957" lon="4.54747">
        <ele>829.27</ele>
        <time>2014-10-15T09:36:54Z</time>
      </trkpt>
      <trkpt lat="45.57956" lon="4.54756">
        <ele>830.24</ele>
        <time>2014-10-15T09:37:02Z</time>
      </trkpt>
      <trkpt lat="45.57948" lon="4.54772">
        <ele>829.27</ele>
        <time>2014-10-15T09:37:13Z</time>
      </trkpt>
      <trkpt lat="45.57937" lon="4.54786">
        <ele>830.72</ele>
        <time>2014-10-15T09:37:25Z</time>
      </trkpt>
      <trkpt lat="45.57937" lon="4.5479">
        <ele>830.24</ele>
        <time>2014-10-15T09:37:28Z</time>
      </trkpt>
      <trkpt lat="45.57934" lon="4.54798">
        <ele>830.24</ele>
        <time>2014-10-15T09:37:33Z</time>
      </trkpt>
      <trkpt lat="45.57928" lon="4.54808">
        <ele>830.24</ele>
        <time>2014-10-15T09:37:40Z</time>
      </trkpt>
      <trkpt lat="45.57922" lon="4.54812">
        <ele>830.24</ele>
        <time>2014-10-15T09:37:45Z</time>
      </trkpt>
      <trkpt lat="45.5792" lon="4.54819">
        <ele>830.72</ele>
        <time>2014-10-15T09:37:50Z</time>
      </trkpt>
      <trkpt lat="45.57918" lon="4.54822">
        <ele>831.2</ele>
        <time>2014-10-15T09:37:52Z</time>
      </trkpt>
      <trkpt lat="45.57906" lon="4.54829">
        <ele>832.16</ele>
        <time>2014-10-15T09:38:06Z</time>
      </trkpt>
      <trkpt lat="45.57904" lon="4.54833">
        <ele>832.16</ele>
        <time>2014-10-15T09:38:16Z</time>
      </trkpt>
      <trkpt lat="45.57903" lon="4.54829">
        <ele>833.6</ele>
        <time>2014-10-15T09:38:53Z</time>
      </trkpt>
      <trkpt lat="45.57901" lon="4.54814">
        <ele>833.6</ele>
        <time>2014-10-15T09:39:08Z</time>
      </trkpt>
      <trkpt lat="45.57901" lon="4.54806">
        <ele>833.6</ele>
        <time>2014-10-15T09:39:14Z</time>
      </trkpt>
      <trkpt lat="45.57903" lon="4.54792">
        <ele>834.08</ele>
        <time>2014-10-15T09:39:22Z</time>
      </trkpt>
      <trkpt lat="45.57898" lon="4.54777">
        <ele>834.56</ele>
        <time>2014-10-15T09:39:33Z</time>
      </trkpt>
      <trkpt lat="45.579" lon="4.54774">
        <ele>835.04</ele>
        <time>2014-10-15T09:39:37Z</time>
      </trkpt>
      <trkpt lat="45.57902" lon="4.54765">
        <ele>835.04</ele>
        <time>2014-10-15T09:39:48Z</time>
      </trkpt>
      <trkpt lat="45.579" lon="4.5475">
        <ele>836</ele>
        <time>2014-10-15T09:40:01Z</time>
      </trkpt>
      <trkpt lat="45.57899" lon="4.54731">
        <ele>836.96</ele>
        <time>2014-10-15T09:40:13Z</time>
      </trkpt>
      <trkpt lat="45.57902" lon="4.54718">
        <ele>836.96</ele>
        <time>2014-10-15T09:40:24Z</time>
      </trkpt>
      <trkpt lat="45.57902" lon="4.54702">
        <ele>837.45</ele>
        <time>2014-10-15T09:40:35Z</time>
      </trkpt>
      <trkpt lat="45.579" lon="4.54683">
        <ele>838.41</ele>
        <time>2014-10-15T09:40:46Z</time>
      </trkpt>
      <trkpt lat="45.57896" lon="4.54665">
        <ele>838.89</ele>
        <time>2014-10-15T09:41:00Z</time>
      </trkpt>
      <trkpt lat="45.57899" lon="4.54647">
        <ele>838.41</ele>
        <time>2014-10-15T09:41:15Z</time>
      </trkpt>
      <trkpt lat="45.57903" lon="4.54638">
        <ele>839.37</ele>
        <time>2014-10-15T09:41:25Z</time>
      </trkpt>
      <trkpt lat="45.57907" lon="4.54613">
        <ele>839.85</ele>
        <time>2014-10-15T09:41:41Z</time>
      </trkpt>
      <trkpt lat="45.57903" lon="4.54594">
        <ele>841.29</ele>
        <time>2014-10-15T09:41:55Z</time>
      </trkpt>
      <trkpt lat="45.57902" lon="4.54574">
        <ele>841.29</ele>
        <time>2014-10-15T09:42:10Z</time>
      </trkpt>
      <trkpt lat="45.579" lon="4.54569">
        <ele>841.29</ele>
        <time>2014-10-15T09:42:13Z</time>
      </trkpt>
      <trkpt lat="45.5789" lon="4.54547">
        <ele>842.73</ele>
        <time>2014-10-15T09:42:29Z</time>
      </trkpt>
      <trkpt lat="45.57888" lon="4.54534">
        <ele>843.21</ele>
        <time>2014-10-15T09:42:37Z</time>
      </trkpt>
      <trkpt lat="45.57887" lon="4.54521">
        <ele>842.73</ele>
        <time>2014-10-15T09:42:50Z</time>
      </trkpt>
      <trkpt lat="45.57885" lon="4.54506">
        <ele>844.18</ele>
        <time>2014-10-15T09:43:00Z</time>
      </trkpt>
      <trkpt lat="45.57881" lon="4.54494">
        <ele>845.62</ele>
        <time>2014-10-15T09:43:16Z</time>
      </trkpt>
      <trkpt lat="45.57879" lon="4.54488">
        <ele>847.54</ele>
        <time>2014-10-15T09:43:33Z</time>
      </trkpt>
      <trkpt lat="45.57878" lon="4.54475">
        <ele>847.06</ele>
        <time>2014-10-15T09:43:51Z</time>
      </trkpt>
      <trkpt lat="45.57874" lon="4.54465">
        <ele>848.5</ele>
        <time>2014-10-15T09:43:58Z</time>
      </trkpt>
      <trkpt lat="45.5786" lon="4.54447">
        <ele>848.5</ele>
        <time>2014-10-15T09:44:11Z</time>
      </trkpt>
      <trkpt lat="45.57856" lon="4.54442">
        <ele>848.98</ele>
        <time>2014-10-15T09:44:17Z</time>
      </trkpt>
      <trkpt lat="45.57844" lon="4.54424">
        <ele>849.46</ele>
        <time>2014-10-15T09:44:31Z</time>
      </trkpt>
      <trkpt lat="45.57842" lon="4.54418">
        <ele>850.42</ele>
        <time>2014-10-15T09:44:33Z</time>
      </trkpt>
      <trkpt lat="45.57832" lon="4.54403">
        <ele>850.42</ele>
        <time>2014-10-15T09:44:46Z</time>
      </trkpt>
      <trkpt lat="45.57816" lon="4.54384">
        <ele>852.35</ele>
        <time>2014-10-15T09:45:02Z</time>
      </trkpt>
      <trkpt lat="45.57815" lon="4.54382">
        <ele>851.87</ele>
        <time>2014-10-15T09:45:03Z</time>
      </trkpt>
      <trkpt lat="45.57804" lon="4.54371">
        <ele>852.83</ele>
        <time>2014-10-15T09:45:12Z</time>
      </trkpt>
      <trkpt lat="45.57799" lon="4.54368">
        <ele>853.31</ele>
        <time>2014-10-15T09:45:16Z</time>
      </trkpt>
      <trkpt lat="45.57788" lon="4.54358">
        <ele>854.75</ele>
        <time>2014-10-15T09:45:30Z</time>
      </trkpt>
      <trkpt lat="45.57779" lon="4.5435">
        <ele>855.71</ele>
        <time>2014-10-15T09:45:39Z</time>
      </trkpt>
      <trkpt lat="45.57775" lon="4.54346">
        <ele>854.27</ele>
        <time>2014-10-15T09:45:44Z</time>
      </trkpt>
      <trkpt lat="45.57773" lon="4.54345">
        <ele>855.71</ele>
        <time>2014-10-15T09:45:46Z</time>
      </trkpt>
      <trkpt lat="45.57768" lon="4.54344">
        <ele>854.27</ele>
        <time>2014-10-15T09:45:51Z</time>
      </trkpt>
      <trkpt lat="45.57762" lon="4.54334">
        <ele>855.23</ele>
        <time>2014-10-15T09:46:02Z</time>
      </trkpt>
      <trkpt lat="45.57754" lon="4.5432">
        <ele>856.67</ele>
        <time>2014-10-15T09:46:14Z</time>
      </trkpt>
      <trkpt lat="45.57749" lon="4.54311">
        <ele>857.15</ele>
        <time>2014-10-15T09:46:24Z</time>
      </trkpt>
      <trkpt lat="45.57743" lon="4.54304">
        <ele>857.15</ele>
        <time>2014-10-15T09:46:32Z</time>
      </trkpt>
      <trkpt lat="45.57729" lon="4.54291">
        <ele>857.15</ele>
        <time>2014-10-15T09:46:43Z</time>
      </trkpt>
      <trkpt lat="45.57715" lon="4.54277">
        <ele>858.11</ele>
        <time>2014-10-15T09:46:53Z</time>
      </trkpt>
      <trkpt lat="45.57706" lon="4.54273">
        <ele>858.59</ele>
        <time>2014-10-15T09:47:00Z</time>
      </trkpt>
      <trkpt lat="45.57699" lon="4.54264">
        <ele>859.08</ele>
        <time>2014-10-15T09:47:11Z</time>
      </trkpt>
      <trkpt lat="45.57691" lon="4.54252">
        <ele>859.56</ele>
        <time>2014-10-15T09:47:22Z</time>
      </trkpt>
      <trkpt lat="45.57679" lon="4.54239">
        <ele>860.04</ele>
        <time>2014-10-15T09:47:34Z</time>
      </trkpt>
      <trkpt lat="45.5767" lon="4.54228">
        <ele>860.52</ele>
        <time>2014-10-15T09:47:45Z</time>
      </trkpt>
      <trkpt lat="45.57667" lon="4.54226">
        <ele>859.56</ele>
        <time>2014-10-15T09:47:49Z</time>
      </trkpt>
      <trkpt lat="45.57656" lon="4.54218">
        <ele>861</ele>
        <time>2014-10-15T09:48:00Z</time>
      </trkpt>
      <trkpt lat="45.57645" lon="4.54209">
        <ele>863.4</ele>
        <time>2014-10-15T09:48:13Z</time>
      </trkpt>
      <trkpt lat="45.57637" lon="4.542">
        <ele>862.92</ele>
        <time>2014-10-15T09:48:25Z</time>
      </trkpt>
      <trkpt lat="45.57633" lon="4.54195">
        <ele>863.4</ele>
        <time>2014-10-15T09:48:41Z</time>
      </trkpt>
      <trkpt lat="45.57625" lon="4.54184">
        <ele>862.92</ele>
        <time>2014-10-15T09:48:54Z</time>
      </trkpt>
      <trkpt lat="45.57614" lon="4.5417">
        <ele>863.88</ele>
        <time>2014-10-15T09:49:07Z</time>
      </trkpt>
      <trkpt lat="45.57612" lon="4.54167">
        <ele>864.36</ele>
        <time>2014-10-15T09:49:11Z</time>
      </trkpt>
      <trkpt lat="45.57608" lon="4.5416">
        <ele>863.88</ele>
        <time>2014-10-15T09:49:15Z</time>
      </trkpt>
      <trkpt lat="45.57596" lon="4.54141">
        <ele>863.88</ele>
        <time>2014-10-15T09:49:28Z</time>
      </trkpt>
      <trkpt lat="45.57589" lon="4.5412">
        <ele>863.88</ele>
        <time>2014-10-15T09:49:43Z</time>
      </trkpt>
      <trkpt lat="45.57585" lon="4.54105">
        <ele>862.44</ele>
        <time>2014-10-15T09:49:54Z</time>
      </trkpt>
      <trkpt lat="45.57583" lon="4.54091">
        <ele>862.92</ele>
        <time>2014-10-15T09:50:02Z</time>
      </trkpt>
      <trkpt lat="45.5758" lon="4.54075">
        <ele>861.48</ele>
        <time>2014-10-15T09:50:13Z</time>
      </trkpt>
      <trkpt lat="45.5758" lon="4.54072">
        <ele>861.96</ele>
        <time>2014-10-15T09:50:16Z</time>
      </trkpt>
      <trkpt lat="45.57579" lon="4.5406">
        <ele>862.44</ele>
        <time>2014-10-15T09:50:24Z</time>
      </trkpt>
      <trkpt lat="45.57571" lon="4.5404">
        <ele>862.92</ele>
        <time>2014-10-15T09:50:36Z</time>
      </trkpt>
      <trkpt lat="45.57571" lon="4.54032">
        <ele>861.96</ele>
        <time>2014-10-15T09:50:41Z</time>
      </trkpt>
      <trkpt lat="45.57569" lon="4.54023">
        <ele>862.44</ele>
        <time>2014-10-15T09:50:46Z</time>
      </trkpt>
      <trkpt lat="45.57565" lon="4.54015">
        <ele>862.92</ele>
        <time>2014-10-15T09:50:57Z</time>
      </trkpt>
      <trkpt lat="45.57563" lon="4.54009">
        <ele>862.44</ele>
        <time>2014-10-15T09:51:13Z</time>
      </trkpt>
      <trkpt lat="45.5756" lon="4.53996">
        <ele>862.44</ele>
        <time>2014-10-15T09:51:23Z</time>
      </trkpt>
      <trkpt lat="45.5756" lon="4.53993">
        <ele>863.4</ele>
        <time>2014-10-15T09:51:37Z</time>
      </trkpt>
      <trkpt lat="45.5756" lon="4.53991">
        <ele>862.44</ele>
        <time>2014-10-15T09:53:36Z</time>
      </trkpt>
      <trkpt lat="45.5756" lon="4.53991">
        <ele>863.88</ele>
        <time>2014-10-15T09:53:55Z</time>
      </trkpt>
      <trkpt lat="45.57556" lon="4.53982">
        <ele>862.92</ele>
        <time>2014-10-15T09:54:35Z</time>
      </trkpt>
      <trkpt lat="45.57553" lon="4.53976">
        <ele>864.36</ele>
        <time>2014-10-15T09:54:43Z</time>
      </trkpt>
      <trkpt lat="45.57551" lon="4.53964">
        <ele>863.88</ele>
        <time>2014-10-15T09:54:52Z</time>
      </trkpt>
      <trkpt lat="45.57544" lon="4.5395">
        <ele>864.36</ele>
        <time>2014-10-15T09:55:03Z</time>
      </trkpt>
      <trkpt lat="45.57542" lon="4.53947">
        <ele>864.84</ele>
        <time>2014-10-15T09:55:06Z</time>
      </trkpt>
      <trkpt lat="45.57534" lon="4.53933">
        <ele>866.29</ele>
        <time>2014-10-15T09:55:18Z</time>
      </trkpt>
      <trkpt lat="45.57529" lon="4.5392">
        <ele>865.8</ele>
        <time>2014-10-15T09:55:28Z</time>
      </trkpt>
      <trkpt lat="45.57525" lon="4.53909">
        <ele>866.29</ele>
        <time>2014-10-15T09:55:37Z</time>
      </trkpt>
      <trkpt lat="45.57517" lon="4.53896">
        <ele>867.73</ele>
        <time>2014-10-15T09:55:48Z</time>
      </trkpt>
      <trkpt lat="45.57513" lon="4.53888">
        <ele>867.73</ele>
        <time>2014-10-15T09:55:56Z</time>
      </trkpt>
      <trkpt lat="45.57508" lon="4.53877">
        <ele>868.69</ele>
        <time>2014-10-15T09:56:07Z</time>
      </trkpt>
      <trkpt lat="45.57501" lon="4.53866">
        <ele>868.69</ele>
        <time>2014-10-15T09:56:17Z</time>
      </trkpt>
      <trkpt lat="45.57494" lon="4.53859">
        <ele>868.69</ele>
        <time>2014-10-15T09:56:26Z</time>
      </trkpt>
      <trkpt lat="45.5749" lon="4.5385">
        <ele>868.69</ele>
        <time>2014-10-15T09:56:34Z</time>
      </trkpt>
      <trkpt lat="45.57486" lon="4.53839">
        <ele>869.65</ele>
        <time>2014-10-15T09:56:43Z</time>
      </trkpt>
      <trkpt lat="45.5748" lon="4.53825">
        <ele>870.61</ele>
        <time>2014-10-15T09:56:54Z</time>
      </trkpt>
      <trkpt lat="45.57474" lon="4.53814">
        <ele>871.09</ele>
        <time>2014-10-15T09:57:03Z</time>
      </trkpt>
      <trkpt lat="45.57473" lon="4.53812">
        <ele>870.13</ele>
        <time>2014-10-15T09:57:05Z</time>
      </trkpt>
      <trkpt lat="45.5747" lon="4.53806">
        <ele>871.57</ele>
        <time>2014-10-15T09:57:08Z</time>
      </trkpt>
      <trkpt lat="45.57465" lon="4.53797">
        <ele>871.57</ele>
        <time>2014-10-15T09:57:17Z</time>
      </trkpt>
      <trkpt lat="45.57459" lon="4.53787">
        <ele>872.53</ele>
        <time>2014-10-15T09:57:25Z</time>
      </trkpt>
      <trkpt lat="45.57453" lon="4.53782">
        <ele>871.09</ele>
        <time>2014-10-15T09:57:33Z</time>
      </trkpt>
      <trkpt lat="45.57452" lon="4.53781">
        <ele>872.05</ele>
        <time>2014-10-15T09:57:35Z</time>
      </trkpt>
      <trkpt lat="45.57445" lon="4.53772">
        <ele>872.53</ele>
        <time>2014-10-15T09:57:45Z</time>
      </trkpt>
      <trkpt lat="45.57444" lon="4.5377">
        <ele>872.53</ele>
        <time>2014-10-15T09:57:47Z</time>
      </trkpt>
      <trkpt lat="45.57442" lon="4.53764">
        <ele>872.05</ele>
        <time>2014-10-15T09:57:52Z</time>
      </trkpt>
      <trkpt lat="45.57437" lon="4.53757">
        <ele>871.57</ele>
        <time>2014-10-15T09:57:58Z</time>
      </trkpt>
      <trkpt lat="45.57432" lon="4.5375">
        <ele>873.5</ele>
        <time>2014-10-15T09:58:06Z</time>
      </trkpt>
      <trkpt lat="45.57423" lon="4.53738">
        <ele>873.98</ele>
        <time>2014-10-15T09:58:16Z</time>
      </trkpt>
      <trkpt lat="45.57422" lon="4.53736">
        <ele>873.5</ele>
        <time>2014-10-15T09:58:18Z</time>
      </trkpt>
      <trkpt lat="45.57413" lon="4.53726">
        <ele>873.98</ele>
        <time>2014-10-15T09:58:29Z</time>
      </trkpt>
      <trkpt lat="45.57406" lon="4.53719">
        <ele>873.98</ele>
        <time>2014-10-15T09:58:38Z</time>
      </trkpt>
      <trkpt lat="45.57396" lon="4.53708">
        <ele>873.98</ele>
        <time>2014-10-15T09:58:48Z</time>
      </trkpt>
      <trkpt lat="45.57388" lon="4.53696">
        <ele>874.46</ele>
        <time>2014-10-15T09:59:00Z</time>
      </trkpt>
      <trkpt lat="45.57379" lon="4.53687">
        <ele>874.94</ele>
        <time>2014-10-15T09:59:11Z</time>
      </trkpt>
      <trkpt lat="45.5737" lon="4.53672">
        <ele>875.42</ele>
        <time>2014-10-15T09:59:23Z</time>
      </trkpt>
      <trkpt lat="45.57364" lon="4.53657">
        <ele>875.42</ele>
        <time>2014-10-15T09:59:34Z</time>
      </trkpt>
      <trkpt lat="45.57357" lon="4.53643">
        <ele>876.38</ele>
        <time>2014-10-15T09:59:45Z</time>
      </trkpt>
      <trkpt lat="45.57353" lon="4.53634">
        <ele>875.9</ele>
        <time>2014-10-15T09:59:52Z</time>
      </trkpt>
      <trkpt lat="45.57347" lon="4.53621">
        <ele>875.9</ele>
        <time>2014-10-15T10:00:02Z</time>
      </trkpt>
      <trkpt lat="45.57341" lon="4.53608">
        <ele>876.38</ele>
        <time>2014-10-15T10:00:12Z</time>
      </trkpt>
      <trkpt lat="45.57337" lon="4.53597">
        <ele>876.86</ele>
        <time>2014-10-15T10:00:21Z</time>
      </trkpt>
      <trkpt lat="45.57334" lon="4.5359">
        <ele>876.86</ele>
        <time>2014-10-15T10:00:28Z</time>
      </trkpt>
      <trkpt lat="45.57333" lon="4.53584">
        <ele>876.38</ele>
        <time>2014-10-15T10:00:32Z</time>
      </trkpt>
      <trkpt lat="45.57331" lon="4.53571">
        <ele>877.34</ele>
        <time>2014-10-15T10:00:42Z</time>
      </trkpt>
      <trkpt lat="45.5733" lon="4.53556">
        <ele>877.34</ele>
        <time>2014-10-15T10:00:51Z</time>
      </trkpt>
      <trkpt lat="45.57327" lon="4.5354">
        <ele>877.34</ele>
        <time>2014-10-15T10:01:02Z</time>
      </trkpt>
      <trkpt lat="45.57326" lon="4.53537">
        <ele>876.86</ele>
        <time>2014-10-15T10:01:04Z</time>
      </trkpt>
      <trkpt lat="45.5732" lon="4.53524">
        <ele>877.34</ele>
        <time>2014-10-15T10:01:16Z</time>
      </trkpt>
      <trkpt lat="45.57316" lon="4.53512">
        <ele>875.9</ele>
        <time>2014-10-15T10:01:25Z</time>
      </trkpt>
      <trkpt lat="45.57313" lon="4.53506">
        <ele>876.38</ele>
        <time>2014-10-15T10:01:34Z</time>
      </trkpt>
      <trkpt lat="45.57309" lon="4.53496">
        <ele>876.38</ele>
        <time>2014-10-15T10:01:44Z</time>
      </trkpt>
      <trkpt lat="45.57302" lon="4.53481">
        <ele>877.34</ele>
        <time>2014-10-15T10:01:54Z</time>
      </trkpt>
      <trkpt lat="45.57297" lon="4.53473">
        <ele>877.34</ele>
        <time>2014-10-15T10:02:02Z</time>
      </trkpt>
      <trkpt lat="45.5729" lon="4.5346">
        <ele>876.38</ele>
        <time>2014-10-15T10:02:11Z</time>
      </trkpt>
      <trkpt lat="45.57285" lon="4.53445">
        <ele>876.38</ele>
        <time>2014-10-15T10:02:22Z</time>
      </trkpt>
      <trkpt lat="45.57282" lon="4.53431">
        <ele>877.34</ele>
        <time>2014-10-15T10:02:32Z</time>
      </trkpt>
      <trkpt lat="45.57283" lon="4.5343">
        <ele>876.86</ele>
        <time>2014-10-15T10:02:55Z</time>
      </trkpt>
      <trkpt lat="45.57282" lon="4.5343">
        <ele>877.82</ele>
        <time>2014-10-15T10:02:57Z</time>
      </trkpt>
      <trkpt lat="45.57282" lon="4.53431">
        <ele>876.86</ele>
        <time>2014-10-15T10:03:45Z</time>
      </trkpt>
      <trkpt lat="45.57282" lon="4.53431">
        <ele>876.38</ele>
        <time>2014-10-15T10:05:25Z</time>
      </trkpt>
      <trkpt lat="45.57282" lon="4.53431">
        <ele>876.38</ele>
        <time>2014-10-15T10:09:27Z</time>
      </trkpt>
      <trkpt lat="45.5728" lon="4.53428">
        <ele>875.42</ele>
        <time>2014-10-15T10:10:47Z</time>
      </trkpt>
      <trkpt lat="45.5728" lon="4.53428">
        <ele>875.9</ele>
        <time>2014-10-15T10:11:06Z</time>
      </trkpt>
      <trkpt lat="45.57279" lon="4.53425">
        <ele>876.38</ele>
        <time>2014-10-15T10:11:45Z</time>
      </trkpt>
      <trkpt lat="45.57276" lon="4.53405">
        <ele>875.9</ele>
        <time>2014-10-15T10:11:55Z</time>
      </trkpt>
      <trkpt lat="45.57275" lon="4.53392">
        <ele>876.38</ele>
        <time>2014-10-15T10:12:05Z</time>
      </trkpt>
      <trkpt lat="45.57274" lon="4.53375">
        <ele>876.38</ele>
        <time>2014-10-15T10:12:17Z</time>
      </trkpt>
      <trkpt lat="45.57272" lon="4.53363">
        <ele>874.46</ele>
        <time>2014-10-15T10:12:26Z</time>
      </trkpt>
      <trkpt lat="45.57271" lon="4.53362">
        <ele>877.34</ele>
        <time>2014-10-15T10:12:27Z</time>
      </trkpt>
      <trkpt lat="45.57271" lon="4.53352">
        <ele>878.78</ele>
        <time>2014-10-15T10:12:34Z</time>
      </trkpt>
      <trkpt lat="45.57272" lon="4.53342">
        <ele>877.82</ele>
        <time>2014-10-15T10:12:43Z</time>
      </trkpt>
      <trkpt lat="45.57275" lon="4.53327">
        <ele>878.78</ele>
        <time>2014-10-15T10:12:52Z</time>
      </trkpt>
      <trkpt lat="45.57275" lon="4.53325">
        <ele>877.82</ele>
        <time>2014-10-15T10:12:54Z</time>
      </trkpt>
      <trkpt lat="45.57278" lon="4.53309">
        <ele>877.82</ele>
        <time>2014-10-15T10:13:04Z</time>
      </trkpt>
      <trkpt lat="45.57281" lon="4.53293">
        <ele>878.3</ele>
        <time>2014-10-15T10:13:14Z</time>
      </trkpt>
      <trkpt lat="45.57283" lon="4.53283">
        <ele>878.3</ele>
        <time>2014-10-15T10:13:19Z</time>
      </trkpt>
      <trkpt lat="45.57284" lon="4.5328">
        <ele>878.3</ele>
        <time>2014-10-15T10:13:22Z</time>
      </trkpt>
      <trkpt lat="45.57284" lon="4.5326">
        <ele>877.82</ele>
        <time>2014-10-15T10:13:33Z</time>
      </trkpt>
      <trkpt lat="45.57284" lon="4.53243">
        <ele>878.78</ele>
        <time>2014-10-15T10:13:44Z</time>
      </trkpt>
      <trkpt lat="45.57285" lon="4.53242">
        <ele>879.26</ele>
        <time>2014-10-15T10:13:45Z</time>
      </trkpt>
      <trkpt lat="45.57285" lon="4.53238">
        <ele>879.26</ele>
        <time>2014-10-15T10:13:48Z</time>
      </trkpt>
      <trkpt lat="45.57285" lon="4.53224">
        <ele>877.34</ele>
        <time>2014-10-15T10:13:56Z</time>
      </trkpt>
      <trkpt lat="45.57286" lon="4.53211">
        <ele>879.74</ele>
        <time>2014-10-15T10:14:03Z</time>
      </trkpt>
      <trkpt lat="45.57286" lon="4.53193">
        <ele>879.26</ele>
        <time>2014-10-15T10:14:14Z</time>
      </trkpt>
      <trkpt lat="45.57285" lon="4.5317">
        <ele>879.26</ele>
        <time>2014-10-15T10:14:26Z</time>
      </trkpt>
      <trkpt lat="45.57285" lon="4.53163">
        <ele>878.3</ele>
        <time>2014-10-15T10:14:31Z</time>
      </trkpt>
      <trkpt lat="45.57288" lon="4.53149">
        <ele>878.78</ele>
        <time>2014-10-15T10:14:41Z</time>
      </trkpt>
      <trkpt lat="45.57289" lon="4.53131">
        <ele>877.82</ele>
        <time>2014-10-15T10:14:50Z</time>
      </trkpt>
      <trkpt lat="45.57289" lon="4.5313">
        <ele>877.82</ele>
        <time>2014-10-15T10:14:51Z</time>
      </trkpt>
      <trkpt lat="45.57289" lon="4.53111">
        <ele>878.78</ele>
        <time>2014-10-15T10:15:03Z</time>
      </trkpt>
      <trkpt lat="45.57291" lon="4.53098">
        <ele>880.22</ele>
        <time>2014-10-15T10:15:14Z</time>
      </trkpt>
      <trkpt lat="45.57291" lon="4.53083">
        <ele>878.3</ele>
        <time>2014-10-15T10:15:24Z</time>
      </trkpt>
      <trkpt lat="45.57288" lon="4.5308">
        <ele>880.22</ele>
        <time>2014-10-15T10:15:39Z</time>
      </trkpt>
      <trkpt lat="45.57288" lon="4.5308">
        <ele>879.26</ele>
        <time>2014-10-15T10:16:09Z</time>
      </trkpt>
      <trkpt lat="45.57288" lon="4.53078">
        <ele>879.26</ele>
        <time>2014-10-15T10:16:46Z</time>
      </trkpt>
      <trkpt lat="45.57288" lon="4.53078">
        <ele>878.78</ele>
        <time>2014-10-15T10:16:59Z</time>
      </trkpt>
      <trkpt lat="45.57288" lon="4.53076">
        <ele>879.74</ele>
        <time>2014-10-15T10:17:19Z</time>
      </trkpt>
      <trkpt lat="45.57288" lon="4.53076">
        <ele>878.78</ele>
        <time>2014-10-15T10:17:21Z</time>
      </trkpt>
      <trkpt lat="45.57289" lon="4.53076">
        <ele>879.74</ele>
        <time>2014-10-15T10:17:49Z</time>
      </trkpt>
      <trkpt lat="45.5729" lon="4.53061">
        <ele>880.22</ele>
        <time>2014-10-15T10:18:03Z</time>
      </trkpt>
      <trkpt lat="45.57288" lon="4.53044">
        <ele>880.22</ele>
        <time>2014-10-15T10:18:15Z</time>
      </trkpt>
      <trkpt lat="45.57285" lon="4.5303">
        <ele>880.71</ele>
        <time>2014-10-15T10:18:24Z</time>
      </trkpt>
      <trkpt lat="45.57282" lon="4.53011">
        <ele>881.19</ele>
        <time>2014-10-15T10:18:33Z</time>
      </trkpt>
      <trkpt lat="45.57285" lon="4.52999">
        <ele>880.71</ele>
        <time>2014-10-15T10:18:44Z</time>
      </trkpt>
      <trkpt lat="45.57284" lon="4.52991">
        <ele>880.71</ele>
        <time>2014-10-15T10:18:50Z</time>
      </trkpt>
      <trkpt lat="45.5728" lon="4.52965">
        <ele>882.63</ele>
        <time>2014-10-15T10:19:04Z</time>
      </trkpt>
      <trkpt lat="45.5728" lon="4.52958">
        <ele>882.15</ele>
        <time>2014-10-15T10:19:15Z</time>
      </trkpt>
      <trkpt lat="45.57276" lon="4.52946">
        <ele>882.15</ele>
        <time>2014-10-15T10:19:28Z</time>
      </trkpt>
      <trkpt lat="45.57276" lon="4.52945">
        <ele>883.59</ele>
        <time>2014-10-15T10:19:29Z</time>
      </trkpt>
      <trkpt lat="45.57274" lon="4.52931">
        <ele>883.59</ele>
        <time>2014-10-15T10:19:40Z</time>
      </trkpt>
      <trkpt lat="45.57271" lon="4.5292">
        <ele>884.07</ele>
        <time>2014-10-15T10:19:49Z</time>
      </trkpt>
      <trkpt lat="45.57268" lon="4.52906">
        <ele>885.99</ele>
        <time>2014-10-15T10:20:01Z</time>
      </trkpt>
      <trkpt lat="45.57264" lon="4.52895">
        <ele>885.51</ele>
        <time>2014-10-15T10:20:09Z</time>
      </trkpt>
      <trkpt lat="45.57258" lon="4.52887">
        <ele>885.03</ele>
        <time>2014-10-15T10:20:20Z</time>
      </trkpt>
      <trkpt lat="45.57253" lon="4.52882">
        <ele>885.51</ele>
        <time>2014-10-15T10:20:30Z</time>
      </trkpt>
      <trkpt lat="45.5725" lon="4.52881">
        <ele>886.95</ele>
        <time>2014-10-15T10:20:32Z</time>
      </trkpt>
      <trkpt lat="45.57249" lon="4.5288">
        <ele>885.03</ele>
        <time>2014-10-15T10:20:35Z</time>
      </trkpt>
      <trkpt lat="45.57248" lon="4.5288">
        <ele>884.55</ele>
        <time>2014-10-15T10:21:11Z</time>
      </trkpt>
      <trkpt lat="45.57248" lon="4.52879">
        <ele>884.55</ele>
        <time>2014-10-15T10:21:39Z</time>
      </trkpt>
      <trkpt lat="45.57247" lon="4.5288">
        <ele>885.51</ele>
        <time>2014-10-15T10:22:02Z</time>
      </trkpt>
      <trkpt lat="45.57245" lon="4.52877">
        <ele>886.47</ele>
        <time>2014-10-15T10:22:47Z</time>
      </trkpt>
      <trkpt lat="45.5724" lon="4.52871">
        <ele>885.99</ele>
        <time>2014-10-15T10:22:54Z</time>
      </trkpt>
      <trkpt lat="45.57234" lon="4.52863">
        <ele>885.51</ele>
        <time>2014-10-15T10:23:06Z</time>
      </trkpt>
      <trkpt lat="45.57224" lon="4.52848">
        <ele>885.03</ele>
        <time>2014-10-15T10:23:16Z</time>
      </trkpt>
      <trkpt lat="45.57217" lon="4.52836">
        <ele>885.51</ele>
        <time>2014-10-15T10:23:26Z</time>
      </trkpt>
      <trkpt lat="45.57216" lon="4.52833">
        <ele>884.07</ele>
        <time>2014-10-15T10:23:29Z</time>
      </trkpt>
      <trkpt lat="45.57215" lon="4.52831">
        <ele>884.55</ele>
        <time>2014-10-15T10:23:32Z</time>
      </trkpt>
      <trkpt lat="45.5721" lon="4.52821">
        <ele>883.11</ele>
        <time>2014-10-15T10:23:44Z</time>
      </trkpt>
      <trkpt lat="45.57206" lon="4.52806">
        <ele>883.11</ele>
        <time>2014-10-15T10:23:56Z</time>
      </trkpt>
      <trkpt lat="45.57203" lon="4.528">
        <ele>883.59</ele>
        <time>2014-10-15T10:24:06Z</time>
      </trkpt>
      <trkpt lat="45.57195" lon="4.52782">
        <ele>883.11</ele>
        <time>2014-10-15T10:24:23Z</time>
      </trkpt>
      <trkpt lat="45.57194" lon="4.52779">
        <ele>883.11</ele>
        <time>2014-10-15T10:24:40Z</time>
      </trkpt>
      <trkpt lat="45.57193" lon="4.52776">
        <ele>883.11</ele>
        <time>2014-10-15T10:24:51Z</time>
      </trkpt>
      <trkpt lat="45.5719" lon="4.52769">
        <ele>883.59</ele>
        <time>2014-10-15T10:25:03Z</time>
      </trkpt>
      <trkpt lat="45.5719" lon="4.52769">
        <ele>883.59</ele>
        <time>2014-10-15T10:25:39Z</time>
      </trkpt>
      <trkpt lat="45.57189" lon="4.52762">
        <ele>883.11</ele>
        <time>2014-10-15T10:25:56Z</time>
      </trkpt>
      <trkpt lat="45.57189" lon="4.52762">
        <ele>883.11</ele>
        <time>2014-10-15T10:26:06Z</time>
      </trkpt>
      <trkpt lat="45.57187" lon="4.52732">
        <ele>882.63</ele>
        <time>2014-10-15T10:26:21Z</time>
      </trkpt>
      <trkpt lat="45.57184" lon="4.52712">
        <ele>881.67</ele>
        <time>2014-10-15T10:26:32Z</time>
      </trkpt>
      <trkpt lat="45.57183" lon="4.52708">
        <ele>877.82</ele>
        <time>2014-10-15T10:26:35Z</time>
      </trkpt>
      <trkpt lat="45.57183" lon="4.52707">
        <ele>884.07</ele>
        <time>2014-10-15T10:26:36Z</time>
      </trkpt>
      <trkpt lat="45.5718" lon="4.52703">
        <ele>882.63</ele>
        <time>2014-10-15T10:26:40Z</time>
      </trkpt>
      <trkpt lat="45.57178" lon="4.52697">
        <ele>882.63</ele>
        <time>2014-10-15T10:26:45Z</time>
      </trkpt>
      <trkpt lat="45.57175" lon="4.52688">
        <ele>883.11</ele>
        <time>2014-10-15T10:26:52Z</time>
      </trkpt>
      <trkpt lat="45.57171" lon="4.52675">
        <ele>882.63</ele>
        <time>2014-10-15T10:27:01Z</time>
      </trkpt>
      <trkpt lat="45.57169" lon="4.52662">
        <ele>881.67</ele>
        <time>2014-10-15T10:27:11Z</time>
      </trkpt>
      <trkpt lat="45.57168" lon="4.52651">
        <ele>882.15</ele>
        <time>2014-10-15T10:27:20Z</time>
      </trkpt>
      <trkpt lat="45.57165" lon="4.5264">
        <ele>882.63</ele>
        <time>2014-10-15T10:27:27Z</time>
      </trkpt>
      <trkpt lat="45.57157" lon="4.52626">
        <ele>882.15</ele>
        <time>2014-10-15T10:27:39Z</time>
      </trkpt>
      <trkpt lat="45.57152" lon="4.52619">
        <ele>880.71</ele>
        <time>2014-10-15T10:27:46Z</time>
      </trkpt>
      <trkpt lat="45.57143" lon="4.52603">
        <ele>882.15</ele>
        <time>2014-10-15T10:27:58Z</time>
      </trkpt>
      <trkpt lat="45.57138" lon="4.52589">
        <ele>882.15</ele>
        <time>2014-10-15T10:28:08Z</time>
      </trkpt>
      <trkpt lat="45.57133" lon="4.52579">
        <ele>883.11</ele>
        <time>2014-10-15T10:28:17Z</time>
      </trkpt>
      <trkpt lat="45.57127" lon="4.52569">
        <ele>882.15</ele>
        <time>2014-10-15T10:28:23Z</time>
      </trkpt>
      <trkpt lat="45.57121" lon="4.52557">
        <ele>883.59</ele>
        <time>2014-10-15T10:28:33Z</time>
      </trkpt>
      <trkpt lat="45.5712" lon="4.52555">
        <ele>883.59</ele>
        <time>2014-10-15T10:28:42Z</time>
      </trkpt>
      <trkpt lat="45.5712" lon="4.5255">
        <ele>882.63</ele>
        <time>2014-10-15T10:28:59Z</time>
      </trkpt>
      <trkpt lat="45.57117" lon="4.52546">
        <ele>882.63</ele>
        <time>2014-10-15T10:29:07Z</time>
      </trkpt>
      <trkpt lat="45.57113" lon="4.52544">
        <ele>881.67</ele>
        <time>2014-10-15T10:29:12Z</time>
      </trkpt>
      <trkpt lat="45.57106" lon="4.52534">
        <ele>881.19</ele>
        <time>2014-10-15T10:29:23Z</time>
      </trkpt>
      <trkpt lat="45.57104" lon="4.52531">
        <ele>880.71</ele>
        <time>2014-10-15T10:29:28Z</time>
      </trkpt>
      <trkpt lat="45.571" lon="4.52527">
        <ele>880.22</ele>
        <time>2014-10-15T10:29:34Z</time>
      </trkpt>
      <trkpt lat="45.57097" lon="4.52523">
        <ele>879.26</ele>
        <time>2014-10-15T10:29:37Z</time>
      </trkpt>
      <trkpt lat="45.57093" lon="4.52519">
        <ele>879.74</ele>
        <time>2014-10-15T10:29:41Z</time>
      </trkpt>
      <trkpt lat="45.57091" lon="4.52517">
        <ele>879.26</ele>
        <time>2014-10-15T10:29:44Z</time>
      </trkpt>
      <trkpt lat="45.57086" lon="4.52513">
        <ele>878.3</ele>
        <time>2014-10-15T10:29:51Z</time>
      </trkpt>
      <trkpt lat="45.57084" lon="4.52512">
        <ele>878.3</ele>
        <time>2014-10-15T10:29:53Z</time>
      </trkpt>
      <trkpt lat="45.57078" lon="4.52498">
        <ele>879.74</ele>
        <time>2014-10-15T10:30:04Z</time>
      </trkpt>
      <trkpt lat="45.57072" lon="4.52485">
        <ele>880.71</ele>
        <time>2014-10-15T10:30:13Z</time>
      </trkpt>
      <trkpt lat="45.57071" lon="4.52478">
        <ele>879.74</ele>
        <time>2014-10-15T10:30:19Z</time>
      </trkpt>
      <trkpt lat="45.57067" lon="4.5246">
        <ele>880.22</ele>
        <time>2014-10-15T10:30:29Z</time>
      </trkpt>
      <trkpt lat="45.57066" lon="4.52458">
        <ele>881.19</ele>
        <time>2014-10-15T10:30:31Z</time>
      </trkpt>
      <trkpt lat="45.57061" lon="4.52445">
        <ele>881.19</ele>
        <time>2014-10-15T10:30:41Z</time>
      </trkpt>
      <trkpt lat="45.5706" lon="4.5244">
        <ele>881.67</ele>
        <time>2014-10-15T10:30:45Z</time>
      </trkpt>
      <trkpt lat="45.57057" lon="4.52432">
        <ele>882.63</ele>
        <time>2014-10-15T10:30:55Z</time>
      </trkpt>
      <trkpt lat="45.57051" lon="4.52423">
        <ele>882.63</ele>
        <time>2014-10-15T10:31:04Z</time>
      </trkpt>
      <trkpt lat="45.57048" lon="4.52418">
        <ele>883.11</ele>
        <time>2014-10-15T10:31:19Z</time>
      </trkpt>
      <trkpt lat="45.57044" lon="4.52414">
        <ele>884.07</ele>
        <time>2014-10-15T10:31:29Z</time>
      </trkpt>
      <trkpt lat="45.5704" lon="4.52405">
        <ele>883.59</ele>
        <time>2014-10-15T10:31:38Z</time>
      </trkpt>
      <trkpt lat="45.57034" lon="4.52396">
        <ele>884.55</ele>
        <time>2014-10-15T10:31:47Z</time>
      </trkpt>
      <trkpt lat="45.57028" lon="4.52386">
        <ele>885.03</ele>
        <time>2014-10-15T10:31:56Z</time>
      </trkpt>
      <trkpt lat="45.57024" lon="4.52375">
        <ele>887.91</ele>
        <time>2014-10-15T10:32:07Z</time>
      </trkpt>
      <trkpt lat="45.57021" lon="4.52366">
        <ele>888.4</ele>
        <time>2014-10-15T10:32:15Z</time>
      </trkpt>
      <trkpt lat="45.57019" lon="4.5236">
        <ele>888.88</ele>
        <time>2014-10-15T10:32:21Z</time>
      </trkpt>
      <trkpt lat="45.57018" lon="4.52351">
        <ele>889.84</ele>
        <time>2014-10-15T10:32:29Z</time>
      </trkpt>
      <trkpt lat="45.57014" lon="4.52336">
        <ele>889.84</ele>
        <time>2014-10-15T10:32:41Z</time>
      </trkpt>
      <trkpt lat="45.57012" lon="4.52321">
        <ele>890.32</ele>
        <time>2014-10-15T10:32:51Z</time>
      </trkpt>
      <trkpt lat="45.57012" lon="4.52311">
        <ele>892.72</ele>
        <time>2014-10-15T10:32:59Z</time>
      </trkpt>
      <trkpt lat="45.57012" lon="4.52307">
        <ele>892.72</ele>
        <time>2014-10-15T10:33:03Z</time>
      </trkpt>
      <trkpt lat="45.57009" lon="4.52303">
        <ele>892.24</ele>
        <time>2014-10-15T10:33:07Z</time>
      </trkpt>
      <trkpt lat="45.57007" lon="4.52301">
        <ele>893.68</ele>
        <time>2014-10-15T10:33:10Z</time>
      </trkpt>
      <trkpt lat="45.57003" lon="4.52293">
        <ele>895.12</ele>
        <time>2014-10-15T10:33:18Z</time>
      </trkpt>
      <trkpt lat="45.57001" lon="4.52282">
        <ele>894.64</ele>
        <time>2014-10-15T10:33:26Z</time>
      </trkpt>
      <trkpt lat="45.57002" lon="4.52276">
        <ele>894.16</ele>
        <time>2014-10-15T10:33:29Z</time>
      </trkpt>
      <trkpt lat="45.57001" lon="4.52268">
        <ele>894.16</ele>
        <time>2014-10-15T10:33:34Z</time>
      </trkpt>
      <trkpt lat="45.56999" lon="4.52263">
        <ele>895.12</ele>
        <time>2014-10-15T10:33:38Z</time>
      </trkpt>
      <trkpt lat="45.56997" lon="4.52247">
        <ele>896.57</ele>
        <time>2014-10-15T10:33:50Z</time>
      </trkpt>
      <trkpt lat="45.56999" lon="4.52235">
        <ele>897.05</ele>
        <time>2014-10-15T10:34:01Z</time>
      </trkpt>
      <trkpt lat="45.56999" lon="4.52232">
        <ele>895.61</ele>
        <time>2014-10-15T10:34:03Z</time>
      </trkpt>
      <trkpt lat="45.56999" lon="4.5222">
        <ele>897.05</ele>
        <time>2014-10-15T10:34:11Z</time>
      </trkpt>
      <trkpt lat="45.57" lon="4.52211">
        <ele>896.57</ele>
        <time>2014-10-15T10:34:22Z</time>
      </trkpt>
      <trkpt lat="45.57003" lon="4.52187">
        <ele>896.57</ele>
        <time>2014-10-15T10:34:34Z</time>
      </trkpt>
      <trkpt lat="45.57004" lon="4.52184">
        <ele>896.09</ele>
        <time>2014-10-15T10:34:51Z</time>
      </trkpt>
      <trkpt lat="45.57002" lon="4.52177">
        <ele>895.61</ele>
        <time>2014-10-15T10:35:02Z</time>
      </trkpt>
      <trkpt lat="45.57" lon="4.52168">
        <ele>896.09</ele>
        <time>2014-10-15T10:35:09Z</time>
      </trkpt>
      <trkpt lat="45.56996" lon="4.52158">
        <ele>894.64</ele>
        <time>2014-10-15T10:35:15Z</time>
      </trkpt>
      <trkpt lat="45.56989" lon="4.52144">
        <ele>895.12</ele>
        <time>2014-10-15T10:35:27Z</time>
      </trkpt>
      <trkpt lat="45.56985" lon="4.52129">
        <ele>893.68</ele>
        <time>2014-10-15T10:35:39Z</time>
      </trkpt>
      <trkpt lat="45.56983" lon="4.52114">
        <ele>893.2</ele>
        <time>2014-10-15T10:35:49Z</time>
      </trkpt>
      <trkpt lat="45.56983" lon="4.52112">
        <ele>894.64</ele>
        <time>2014-10-15T10:35:52Z</time>
      </trkpt>
      <trkpt lat="45.56982" lon="4.52102">
        <ele>893.2</ele>
        <time>2014-10-15T10:35:59Z</time>
      </trkpt>
      <trkpt lat="45.56982" lon="4.5209">
        <ele>893.68</ele>
        <time>2014-10-15T10:36:07Z</time>
      </trkpt>
      <trkpt lat="45.56982" lon="4.52084">
        <ele>894.16</ele>
        <time>2014-10-15T10:36:10Z</time>
      </trkpt>
      <trkpt lat="45.56984" lon="4.52069">
        <ele>893.68</ele>
        <time>2014-10-15T10:36:22Z</time>
      </trkpt>
      <trkpt lat="45.56983" lon="4.52054">
        <ele>894.64</ele>
        <time>2014-10-15T10:36:33Z</time>
      </trkpt>
      <trkpt lat="45.56983" lon="4.52048">
        <ele>894.16</ele>
        <time>2014-10-15T10:36:46Z</time>
      </trkpt>
      <trkpt lat="45.56983" lon="4.52048">
        <ele>894.64</ele>
        <time>2014-10-15T10:36:48Z</time>
      </trkpt>
      <trkpt lat="45.56983" lon="4.52038">
        <ele>896.09</ele>
        <time>2014-10-15T10:36:56Z</time>
      </trkpt>
      <trkpt lat="45.56983" lon="4.52029">
        <ele>893.68</ele>
        <time>2014-10-15T10:36:59Z</time>
      </trkpt>
      <trkpt lat="45.56983" lon="4.52022">
        <ele>895.12</ele>
        <time>2014-10-15T10:37:01Z</time>
      </trkpt>
      <trkpt lat="45.56984" lon="4.52012">
        <ele>895.12</ele>
        <time>2014-10-15T10:37:08Z</time>
      </trkpt>
      <trkpt lat="45.56986" lon="4.51992">
        <ele>895.12</ele>
        <time>2014-10-15T10:37:21Z</time>
      </trkpt>
      <trkpt lat="45.56991" lon="4.51972">
        <ele>897.05</ele>
        <time>2014-10-15T10:37:32Z</time>
      </trkpt>
      <trkpt lat="45.56991" lon="4.5197">
        <ele>896.09</ele>
        <time>2014-10-15T10:37:33Z</time>
      </trkpt>
      <trkpt lat="45.56994" lon="4.51955">
        <ele>897.53</ele>
        <time>2014-10-15T10:37:43Z</time>
      </trkpt>
      <trkpt lat="45.57001" lon="4.51942">
        <ele>896.57</ele>
        <time>2014-10-15T10:37:52Z</time>
      </trkpt>
      <trkpt lat="45.57003" lon="4.51928">
        <ele>897.05</ele>
        <time>2014-10-15T10:38:02Z</time>
      </trkpt>
      <trkpt lat="45.57004" lon="4.51922">
        <ele>896.57</ele>
        <time>2014-10-15T10:38:08Z</time>
      </trkpt>
      <trkpt lat="45.57003" lon="4.51915">
        <ele>896.09</ele>
        <time>2014-10-15T10:38:14Z</time>
      </trkpt>
      <trkpt lat="45.57006" lon="4.51908">
        <ele>894.64</ele>
        <time>2014-10-15T10:38:20Z</time>
      </trkpt>
      <trkpt lat="45.57006" lon="4.51905">
        <ele>895.61</ele>
        <time>2014-10-15T10:38:22Z</time>
      </trkpt>
      <trkpt lat="45.57005" lon="4.51898">
        <ele>894.16</ele>
        <time>2014-10-15T10:38:26Z</time>
      </trkpt>
      <trkpt lat="45.57006" lon="4.51888">
        <ele>893.2</ele>
        <time>2014-10-15T10:38:36Z</time>
      </trkpt>
      <trkpt lat="45.57006" lon="4.51886">
        <ele>892.72</ele>
        <time>2014-10-15T10:38:42Z</time>
      </trkpt>
      <trkpt lat="45.57006" lon="4.51873">
        <ele>890.8</ele>
        <time>2014-10-15T10:38:55Z</time>
      </trkpt>
      <trkpt lat="45.57003" lon="4.51862">
        <ele>889.84</ele>
        <time>2014-10-15T10:39:08Z</time>
      </trkpt>
      <trkpt lat="45.57002" lon="4.51855">
        <ele>888.4</ele>
        <time>2014-10-15T10:39:14Z</time>
      </trkpt>
      <trkpt lat="45.56999" lon="4.51844">
        <ele>887.43</ele>
        <time>2014-10-15T10:39:28Z</time>
      </trkpt>
      <trkpt lat="45.56998" lon="4.51828">
        <ele>885.03</ele>
        <time>2014-10-15T10:39:40Z</time>
      </trkpt>
      <trkpt lat="45.56995" lon="4.5182">
        <ele>883.11</ele>
        <time>2014-10-15T10:39:50Z</time>
      </trkpt>
      <trkpt lat="45.56993" lon="4.51802">
        <ele>882.15</ele>
        <time>2014-10-15T10:40:01Z</time>
      </trkpt>
      <trkpt lat="45.56989" lon="4.51784">
        <ele>881.19</ele>
        <time>2014-10-15T10:40:14Z</time>
      </trkpt>
      <trkpt lat="45.56989" lon="4.51769">
        <ele>880.22</ele>
        <time>2014-10-15T10:40:26Z</time>
      </trkpt>
      <trkpt lat="45.56988" lon="4.51768">
        <ele>879.74</ele>
        <time>2014-10-15T10:40:27Z</time>
      </trkpt>
      <trkpt lat="45.56986" lon="4.51754">
        <ele>879.26</ele>
        <time>2014-10-15T10:40:37Z</time>
      </trkpt>
      <trkpt lat="45.56985" lon="4.51743">
        <ele>878.78</ele>
        <time>2014-10-15T10:40:45Z</time>
      </trkpt>
      <trkpt lat="45.56983" lon="4.51731">
        <ele>877.82</ele>
        <time>2014-10-15T10:40:54Z</time>
      </trkpt>
      <trkpt lat="45.56983" lon="4.51727">
        <ele>877.34</ele>
        <time>2014-10-15T10:40:57Z</time>
      </trkpt>
      <trkpt lat="45.56982" lon="4.51713">
        <ele>875.9</ele>
        <time>2014-10-15T10:41:08Z</time>
      </trkpt>
      <trkpt lat="45.56981" lon="4.51709">
        <ele>876.86</ele>
        <time>2014-10-15T10:41:11Z</time>
      </trkpt>
      <trkpt lat="45.56981" lon="4.51699">
        <ele>875.42</ele>
        <time>2014-10-15T10:41:19Z</time>
      </trkpt>
      <trkpt lat="45.56981" lon="4.51694">
        <ele>874.94</ele>
        <time>2014-10-15T10:41:24Z</time>
      </trkpt>
      <trkpt lat="45.56982" lon="4.51688">
        <ele>875.42</ele>
        <time>2014-10-15T10:41:37Z</time>
      </trkpt>
      <trkpt lat="45.56981" lon="4.51687">
        <ele>875.42</ele>
        <time>2014-10-15T10:41:41Z</time>
      </trkpt>
      <trkpt lat="45.56981" lon="4.51686">
        <ele>875.42</ele>
        <time>2014-10-15T10:42:03Z</time>
      </trkpt>
      <trkpt lat="45.56983" lon="4.51686">
        <ele>875.42</ele>
        <time>2014-10-15T10:43:20Z</time>
      </trkpt>
      <trkpt lat="45.56982" lon="4.51693">
        <ele>876.86</ele>
        <time>2014-10-15T10:43:28Z</time>
      </trkpt>
      <trkpt lat="45.56982" lon="4.51696">
        <ele>875.42</ele>
        <time>2014-10-15T10:43:46Z</time>
      </trkpt>
      <trkpt lat="45.56982" lon="4.51702">
        <ele>874.94</ele>
        <time>2014-10-15T10:43:51Z</time>
      </trkpt>
      <trkpt lat="45.56982" lon="4.51711">
        <ele>874.46</ele>
        <time>2014-10-15T10:43:58Z</time>
      </trkpt>
      <trkpt lat="45.56983" lon="4.51716">
        <ele>875.9</ele>
        <time>2014-10-15T10:44:00Z</time>
      </trkpt>
      <trkpt lat="45.56984" lon="4.51719">
        <ele>876.38</ele>
        <time>2014-10-15T10:44:04Z</time>
      </trkpt>
      <trkpt lat="45.56985" lon="4.51723">
        <ele>876.86</ele>
        <time>2014-10-15T10:44:08Z</time>
      </trkpt>
      <trkpt lat="45.56985" lon="4.51732">
        <ele>877.82</ele>
        <time>2014-10-15T10:44:18Z</time>
      </trkpt>
      <trkpt lat="45.56983" lon="4.51731">
        <ele>877.34</ele>
        <time>2014-10-15T10:45:30Z</time>
      </trkpt>
      <trkpt lat="45.56982" lon="4.51728">
        <ele>878.3</ele>
        <time>2014-10-15T10:45:32Z</time>
      </trkpt>
      <trkpt lat="45.56982" lon="4.51721">
        <ele>877.82</ele>
        <time>2014-10-15T10:45:43Z</time>
      </trkpt>
      <trkpt lat="45.56982" lon="4.51716">
        <ele>876.86</ele>
        <time>2014-10-15T10:45:47Z</time>
      </trkpt>
      <trkpt lat="45.5698" lon="4.517">
        <ele>875.42</ele>
        <time>2014-10-15T10:45:57Z</time>
      </trkpt>
      <trkpt lat="45.5698" lon="4.51686">
        <ele>875.9</ele>
        <time>2014-10-15T10:46:06Z</time>
      </trkpt>
      <trkpt lat="45.56982" lon="4.51683">
        <ele>873.98</ele>
        <time>2014-10-15T10:46:14Z</time>
      </trkpt>
      <trkpt lat="45.56981" lon="4.51683">
        <ele>875.42</ele>
        <time>2014-10-15T10:47:08Z</time>
      </trkpt>
      <trkpt lat="45.56982" lon="4.51682">
        <ele>874.46</ele>
        <time>2014-10-15T10:47:43Z</time>
      </trkpt>
      <trkpt lat="45.56981" lon="4.51678">
        <ele>875.42</ele>
        <time>2014-10-15T10:48:15Z</time>
      </trkpt>
      <trkpt lat="45.56981" lon="4.51679">
        <ele>874.46</ele>
        <time>2014-10-15T10:48:16Z</time>
      </trkpt>
      <trkpt lat="45.56982" lon="4.51681">
        <ele>874.46</ele>
        <time>2014-10-15T10:48:31Z</time>
      </trkpt>
      <trkpt lat="45.56982" lon="4.51681">
        <ele>873.98</ele>
        <time>2014-10-15T10:50:05Z</time>
      </trkpt>
      <trkpt lat="45.56983" lon="4.5168">
        <ele>873.98</ele>
        <time>2014-10-15T10:50:55Z</time>
      </trkpt>
      <trkpt lat="45.56983" lon="4.51679">
        <ele>874.94</ele>
        <time>2014-10-15T10:51:06Z</time>
      </trkpt>
      <trkpt lat="45.56984" lon="4.5168">
        <ele>874.46</ele>
        <time>2014-10-15T10:51:46Z</time>
      </trkpt>
      <trkpt lat="45.56984" lon="4.51679">
        <ele>874.46</ele>
        <time>2014-10-15T10:52:15Z</time>
      </trkpt>
      <trkpt lat="45.56985" lon="4.51679">
        <ele>873.5</ele>
        <time>2014-10-15T10:52:52Z</time>
      </trkpt>
      <trkpt lat="45.56985" lon="4.51679">
        <ele>873.5</ele>
        <time>2014-10-15T10:52:53Z</time>
      </trkpt>
      <trkpt lat="45.56986" lon="4.51679">
        <ele>874.94</ele>
        <time>2014-10-15T10:54:13Z</time>
      </trkpt>
      <trkpt lat="45.56986" lon="4.51679">
        <ele>874.94</ele>
        <time>2014-10-15T10:54:24Z</time>
      </trkpt>
      <trkpt lat="45.56985" lon="4.51679">
        <ele>873.01</ele>
        <time>2014-10-15T10:55:03Z</time>
      </trkpt>
      <trkpt lat="45.56984" lon="4.51679">
        <ele>873.98</ele>
        <time>2014-10-15T10:56:48Z</time>
      </trkpt>
      <trkpt lat="45.56984" lon="4.51679">
        <ele>873.01</ele>
        <time>2014-10-15T10:57:48Z</time>
      </trkpt>
      <trkpt lat="45.56984" lon="4.5168">
        <ele>873.5</ele>
        <time>2014-10-15T10:57:55Z</time>
      </trkpt>
      <trkpt lat="45.56984" lon="4.51679">
        <ele>873.01</ele>
        <time>2014-10-15T10:58:35Z</time>
      </trkpt>
      <trkpt lat="45.56984" lon="4.51679">
        <ele>871.57</ele>
        <time>2014-10-15T10:59:00Z</time>
      </trkpt>
      <trkpt lat="45.56984" lon="4.51679">
        <ele>873.01</ele>
        <time>2014-10-15T10:59:02Z</time>
      </trkpt>
      <trkpt lat="45.56984" lon="4.51679">
        <ele>876.86</ele>
        <time>2014-10-15T10:59:04Z</time>
      </trkpt>
      <trkpt lat="45.56983" lon="4.51684">
        <ele>872.53</ele>
        <time>2014-10-15T10:59:05Z</time>
      </trkpt>
      <trkpt lat="45.56981" lon="4.51685">
        <ele>872.53</ele>
        <time>2014-10-15T10:59:22Z</time>
      </trkpt>
      <trkpt lat="45.56983" lon="4.51684">
        <ele>873.01</ele>
        <time>2014-10-15T10:59:42Z</time>
      </trkpt>
      <trkpt lat="45.56983" lon="4.51684">
        <ele>872.05</ele>
        <time>2014-10-15T11:01:35Z</time>
      </trkpt>
      <trkpt lat="45.56983" lon="4.51684">
        <ele>873.98</ele>
        <time>2014-10-15T11:01:44Z</time>
      </trkpt>
      <trkpt lat="45.56983" lon="4.51684">
        <ele>870.61</ele>
        <time>2014-10-15T11:03:16Z</time>
      </trkpt>
      <trkpt lat="45.56983" lon="4.51684">
        <ele>873.98</ele>
        <time>2014-10-15T11:03:29Z</time>
      </trkpt>
      <trkpt lat="45.56983" lon="4.51684">
        <ele>872.05</ele>
        <time>2014-10-15T11:03:40Z</time>
      </trkpt>
      <trkpt lat="45.56983" lon="4.51684">
        <ele>873.98</ele>
        <time>2014-10-15T11:03:49Z</time>
      </trkpt>
      <trkpt lat="45.56983" lon="4.51684">
        <ele>870.61</ele>
        <time>2014-10-15T11:04:10Z</time>
      </trkpt>
      <trkpt lat="45.56983" lon="4.51684">
        <ele>873.5</ele>
        <time>2014-10-15T11:04:15Z</time>
      </trkpt>
      <trkpt lat="45.56983" lon="4.51684">
        <ele>870.61</ele>
        <time>2014-10-15T11:04:26Z</time>
      </trkpt>
      <trkpt lat="45.56983" lon="4.51684">
        <ele>873.5</ele>
        <time>2014-10-15T11:04:38Z</time>
      </trkpt>
      <trkpt lat="45.56983" lon="4.51684">
        <ele>870.13</ele>
        <time>2014-10-15T11:04:39Z</time>
      </trkpt>
      <trkpt lat="45.56983" lon="4.51684">
        <ele>873.5</ele>
        <time>2014-10-15T11:04:46Z</time>
      </trkpt>
      <trkpt lat="45.56983" lon="4.51683">
        <ele>870.13</ele>
        <time>2014-10-15T11:05:00Z</time>
      </trkpt>
      <trkpt lat="45.56983" lon="4.51683">
        <ele>873.98</ele>
        <time>2014-10-15T11:05:01Z</time>
      </trkpt>
      <trkpt lat="45.56983" lon="4.51683">
        <ele>872.05</ele>
        <time>2014-10-15T11:05:02Z</time>
      </trkpt>
      <trkpt lat="45.56983" lon="4.51683">
        <ele>873.98</ele>
        <time>2014-10-15T11:05:05Z</time>
      </trkpt>
      <trkpt lat="45.56983" lon="4.51683">
        <ele>873.98</ele>
        <time>2014-10-15T11:05:41Z</time>
      </trkpt>
      <trkpt lat="45.56983" lon="4.51683">
        <ele>872.53</ele>
        <time>2014-10-15T11:05:43Z</time>
      </trkpt>
      <trkpt lat="45.56983" lon="4.51683">
        <ele>871.09</ele>
        <time>2014-10-15T11:05:53Z</time>
      </trkpt>
      <trkpt lat="45.56983" lon="4.51683">
        <ele>871.09</ele>
        <time>2014-10-15T11:05:59Z</time>
      </trkpt>
      <trkpt lat="45.56983" lon="4.51683">
        <ele>873.01</ele>
        <time>2014-10-15T11:06:01Z</time>
      </trkpt>
      <trkpt lat="45.56983" lon="4.51683">
        <ele>873.5</ele>
        <time>2014-10-15T11:06:11Z</time>
      </trkpt>
      <trkpt lat="45.56983" lon="4.51683">
        <ele>871.57</ele>
        <time>2014-10-15T11:06:16Z</time>
      </trkpt>
      <trkpt lat="45.56983" lon="4.51683">
        <ele>873.01</ele>
        <time>2014-10-15T11:06:36Z</time>
      </trkpt>
      <trkpt lat="45.56983" lon="4.51683">
        <ele>871.57</ele>
        <time>2014-10-15T11:06:45Z</time>
      </trkpt>
      <trkpt lat="45.56983" lon="4.51682">
        <ele>873.01</ele>
        <time>2014-10-15T11:07:16Z</time>
      </trkpt>
      <trkpt lat="45.56983" lon="4.51682">
        <ele>872.05</ele>
        <time>2014-10-15T11:07:18Z</time>
      </trkpt>
      <trkpt lat="45.56982" lon="4.51684">
        <ele>872.05</ele>
        <time>2014-10-15T11:07:55Z</time>
      </trkpt>
      <trkpt lat="45.56982" lon="4.51684">
        <ele>874.46</ele>
        <time>2014-10-15T11:08:01Z</time>
      </trkpt>
      <trkpt lat="45.56982" lon="4.51684">
        <ele>870.61</ele>
        <time>2014-10-15T11:08:05Z</time>
      </trkpt>
      <trkpt lat="45.56982" lon="4.51684">
        <ele>873.01</ele>
        <time>2014-10-15T11:08:26Z</time>
      </trkpt>
      <trkpt lat="45.56981" lon="4.51684">
        <ele>872.53</ele>
        <time>2014-10-15T11:08:42Z</time>
      </trkpt>
      <trkpt lat="45.56981" lon="4.51684">
        <ele>869.17</ele>
        <time>2014-10-15T11:08:56Z</time>
      </trkpt>
      <trkpt lat="45.56981" lon="4.51684">
        <ele>872.53</ele>
        <time>2014-10-15T11:08:59Z</time>
      </trkpt>
      <trkpt lat="45.56981" lon="4.51684">
        <ele>871.57</ele>
        <time>2014-10-15T11:09:12Z</time>
      </trkpt>
      <trkpt lat="45.56981" lon="4.51685">
        <ele>870.13</ele>
        <time>2014-10-15T11:10:02Z</time>
      </trkpt>
      <trkpt lat="45.56981" lon="4.51685">
        <ele>873.5</ele>
        <time>2014-10-15T11:10:40Z</time>
      </trkpt>
      <trkpt lat="45.56981" lon="4.51685">
        <ele>870.61</ele>
        <time>2014-10-15T11:10:50Z</time>
      </trkpt>
      <trkpt lat="45.56981" lon="4.51685">
        <ele>872.05</ele>
        <time>2014-10-15T11:10:53Z</time>
      </trkpt>
      <trkpt lat="45.56981" lon="4.51685">
        <ele>872.53</ele>
        <time>2014-10-15T11:10:57Z</time>
      </trkpt>
      <trkpt lat="45.56981" lon="4.51685">
        <ele>871.57</ele>
        <time>2014-10-15T11:11:13Z</time>
      </trkpt>
      <trkpt lat="45.56981" lon="4.51685">
        <ele>871.57</ele>
        <time>2014-10-15T11:11:34Z</time>
      </trkpt>
      <trkpt lat="45.56981" lon="4.51685">
        <ele>871.09</ele>
        <time>2014-10-15T11:11:49Z</time>
      </trkpt>
      <trkpt lat="45.56981" lon="4.51685">
        <ele>872.05</ele>
        <time>2014-10-15T11:11:51Z</time>
      </trkpt>
      <trkpt lat="45.56982" lon="4.51685">
        <ele>869.17</ele>
        <time>2014-10-15T11:12:19Z</time>
      </trkpt>
      <trkpt lat="45.56982" lon="4.51685">
        <ele>872.05</ele>
        <time>2014-10-15T11:12:20Z</time>
      </trkpt>
      <trkpt lat="45.56982" lon="4.51685">
        <ele>870.61</ele>
        <time>2014-10-15T11:12:30Z</time>
      </trkpt>
      <trkpt lat="45.56982" lon="4.51685">
        <ele>871.09</ele>
        <time>2014-10-15T11:12:56Z</time>
      </trkpt>
      <trkpt lat="45.56982" lon="4.51685">
        <ele>872.05</ele>
        <time>2014-10-15T11:12:58Z</time>
      </trkpt>
      <trkpt lat="45.56982" lon="4.51685">
        <ele>870.61</ele>
        <time>2014-10-15T11:13:09Z</time>
      </trkpt>
      <trkpt lat="45.56982" lon="4.51685">
        <ele>871.57</ele>
        <time>2014-10-15T11:13:24Z</time>
      </trkpt>
      <trkpt lat="45.56982" lon="4.51685">
        <ele>870.13</ele>
        <time>2014-10-15T11:13:54Z</time>
      </trkpt>
      <trkpt lat="45.56982" lon="4.51685">
        <ele>870.13</ele>
        <time>2014-10-15T11:14:20Z</time>
      </trkpt>
      <trkpt lat="45.56982" lon="4.51685">
        <ele>871.09</ele>
        <time>2014-10-15T11:14:30Z</time>
      </trkpt>
      <trkpt lat="45.56982" lon="4.51685">
        <ele>868.21</ele>
        <time>2014-10-15T11:15:26Z</time>
      </trkpt>
      <trkpt lat="45.56982" lon="4.51685">
        <ele>869.65</ele>
        <time>2014-10-15T11:15:27Z</time>
      </trkpt>
      <trkpt lat="45.56982" lon="4.51685">
        <ele>870.61</ele>
        <time>2014-10-15T11:15:29Z</time>
      </trkpt>
      <trkpt lat="45.56982" lon="4.51685">
        <ele>871.09</ele>
        <time>2014-10-15T11:15:34Z</time>
      </trkpt>
      <trkpt lat="45.56983" lon="4.51685">
        <ele>868.21</ele>
        <time>2014-10-15T11:16:23Z</time>
      </trkpt>
      <trkpt lat="45.56983" lon="4.51685">
        <ele>869.17</ele>
        <time>2014-10-15T11:16:34Z</time>
      </trkpt>
      <trkpt lat="45.56983" lon="4.51685">
        <ele>870.13</ele>
        <time>2014-10-15T11:17:22Z</time>
      </trkpt>
      <trkpt lat="45.56983" lon="4.51685">
        <ele>869.65</ele>
        <time>2014-10-15T11:17:45Z</time>
      </trkpt>
      <trkpt lat="45.56982" lon="4.51686">
        <ele>866.77</ele>
        <time>2014-10-15T11:18:08Z</time>
      </trkpt>
      <trkpt lat="45.56982" lon="4.51686">
        <ele>868.69</ele>
        <time>2014-10-15T11:18:11Z</time>
      </trkpt>
      <trkpt lat="45.56982" lon="4.51686">
        <ele>867.25</ele>
        <time>2014-10-15T11:18:24Z</time>
      </trkpt>
      <trkpt lat="45.5698" lon="4.51692">
        <ele>867.73</ele>
        <time>2014-10-15T11:18:37Z</time>
      </trkpt>
      <trkpt lat="45.5698" lon="4.51692">
        <ele>868.69</ele>
        <time>2014-10-15T11:18:39Z</time>
      </trkpt>
      <trkpt lat="45.5698" lon="4.51692">
        <ele>867.25</ele>
        <time>2014-10-15T11:18:41Z</time>
      </trkpt>
      <trkpt lat="45.56981" lon="4.51686">
        <ele>870.61</ele>
        <time>2014-10-15T11:18:51Z</time>
      </trkpt>
      <trkpt lat="45.56981" lon="4.51686">
        <ele>867.25</ele>
        <time>2014-10-15T11:18:53Z</time>
      </trkpt>
      <trkpt lat="45.56981" lon="4.51686">
        <ele>871.09</ele>
        <time>2014-10-15T11:18:57Z</time>
      </trkpt>
      <trkpt lat="45.56981" lon="4.51686">
        <ele>866.77</ele>
        <time>2014-10-15T11:19:05Z</time>
      </trkpt>
      <trkpt lat="45.56981" lon="4.51686">
        <ele>869.65</ele>
        <time>2014-10-15T11:19:14Z</time>
      </trkpt>
      <trkpt lat="45.56981" lon="4.51686">
        <ele>869.17</ele>
        <time>2014-10-15T11:20:03Z</time>
      </trkpt>
      <trkpt lat="45.56979" lon="4.51685">
        <ele>869.65</ele>
        <time>2014-10-15T11:20:22Z</time>
      </trkpt>
      <trkpt lat="45.56979" lon="4.51685">
        <ele>866.29</ele>
        <time>2014-10-15T11:20:35Z</time>
      </trkpt>
      <trkpt lat="45.56979" lon="4.51685">
        <ele>869.65</ele>
        <time>2014-10-15T11:20:38Z</time>
      </trkpt>
      <trkpt lat="45.56979" lon="4.51685">
        <ele>870.13</ele>
        <time>2014-10-15T11:20:51Z</time>
      </trkpt>
      <trkpt lat="45.56979" lon="4.51685">
        <ele>866.29</ele>
        <time>2014-10-15T11:20:56Z</time>
      </trkpt>
      <trkpt lat="45.56979" lon="4.51684">
        <ele>869.65</ele>
        <time>2014-10-15T11:20:58Z</time>
      </trkpt>
      <trkpt lat="45.56979" lon="4.51684">
        <ele>867.73</ele>
        <time>2014-10-15T11:21:07Z</time>
      </trkpt>
      <trkpt lat="45.56977" lon="4.51677">
        <ele>865.8</ele>
        <time>2014-10-15T11:21:31Z</time>
      </trkpt>
      <trkpt lat="45.56978" lon="4.51676">
        <ele>868.69</ele>
        <time>2014-10-15T11:21:37Z</time>
      </trkpt>
      <trkpt lat="45.56978" lon="4.51673">
        <ele>868.69</ele>
        <time>2014-10-15T11:21:40Z</time>
      </trkpt>
      <trkpt lat="45.56978" lon="4.51664">
        <ele>867.73</ele>
        <time>2014-10-15T11:21:46Z</time>
      </trkpt>
      <trkpt lat="45.56978" lon="4.5166">
        <ele>868.69</ele>
        <time>2014-10-15T11:21:48Z</time>
      </trkpt>
      <trkpt lat="45.56979" lon="4.51655">
        <ele>865.32</ele>
        <time>2014-10-15T11:21:52Z</time>
      </trkpt>
      <trkpt lat="45.56979" lon="4.51652">
        <ele>869.17</ele>
        <time>2014-10-15T11:21:54Z</time>
      </trkpt>
      <trkpt lat="45.56981" lon="4.51644">
        <ele>865.8</ele>
        <time>2014-10-15T11:22:05Z</time>
      </trkpt>
      <trkpt lat="45.56981" lon="4.51644">
        <ele>865.8</ele>
        <time>2014-10-15T11:22:06Z</time>
      </trkpt>
      <trkpt lat="45.56981" lon="4.51644">
        <ele>868.21</ele>
        <time>2014-10-15T11:22:21Z</time>
      </trkpt>
      <trkpt lat="45.56981" lon="4.51644">
        <ele>866.77</ele>
        <time>2014-10-15T11:22:23Z</time>
      </trkpt>
      <trkpt lat="45.56981" lon="4.51643">
        <ele>867.25</ele>
        <time>2014-10-15T11:22:37Z</time>
      </trkpt>
      <trkpt lat="45.56983" lon="4.51631">
        <ele>868.21</ele>
        <time>2014-10-15T11:22:45Z</time>
      </trkpt>
      <trkpt lat="45.56984" lon="4.51621">
        <ele>865.8</ele>
        <time>2014-10-15T11:22:55Z</time>
      </trkpt>
      <trkpt lat="45.56984" lon="4.5162">
        <ele>867.25</ele>
        <time>2014-10-15T11:23:13Z</time>
      </trkpt>
      <trkpt lat="45.56986" lon="4.51607">
        <ele>864.36</ele>
        <time>2014-10-15T11:23:34Z</time>
      </trkpt>
      <trkpt lat="45.56987" lon="4.51592">
        <ele>866.29</ele>
        <time>2014-10-15T11:23:43Z</time>
      </trkpt>
      <trkpt lat="45.56988" lon="4.51588">
        <ele>865.8</ele>
        <time>2014-10-15T11:23:45Z</time>
      </trkpt>
      <trkpt lat="45.5699" lon="4.51573">
        <ele>863.4</ele>
        <time>2014-10-15T11:23:56Z</time>
      </trkpt>
      <trkpt lat="45.56989" lon="4.51565">
        <ele>864.84</ele>
        <time>2014-10-15T11:23:59Z</time>
      </trkpt>
      <trkpt lat="45.56988" lon="4.51553">
        <ele>864.84</ele>
        <time>2014-10-15T11:24:09Z</time>
      </trkpt>
      <trkpt lat="45.56989" lon="4.51533">
        <ele>863.88</ele>
        <time>2014-10-15T11:24:21Z</time>
      </trkpt>
      <trkpt lat="45.56989" lon="4.51511">
        <ele>864.84</ele>
        <time>2014-10-15T11:24:30Z</time>
      </trkpt>
      <trkpt lat="45.56989" lon="4.51509">
        <ele>866.29</ele>
        <time>2014-10-15T11:24:32Z</time>
      </trkpt>
      <trkpt lat="45.56989" lon="4.51492">
        <ele>863.88</ele>
        <time>2014-10-15T11:24:44Z</time>
      </trkpt>
      <trkpt lat="45.56989" lon="4.51491">
        <ele>863.88</ele>
        <time>2014-10-15T11:24:46Z</time>
      </trkpt>
      <trkpt lat="45.56991" lon="4.51477">
        <ele>865.32</ele>
        <time>2014-10-15T11:24:57Z</time>
      </trkpt>
      <trkpt lat="45.56992" lon="4.51476">
        <ele>865.32</ele>
        <time>2014-10-15T11:24:58Z</time>
      </trkpt>
      <trkpt lat="45.56993" lon="4.51456">
        <ele>865.8</ele>
        <time>2014-10-15T11:25:09Z</time>
      </trkpt>
      <trkpt lat="45.56995" lon="4.51449">
        <ele>863.88</ele>
        <time>2014-10-15T11:25:13Z</time>
      </trkpt>
      <trkpt lat="45.57004" lon="4.51433">
        <ele>865.32</ele>
        <time>2014-10-15T11:25:24Z</time>
      </trkpt>
      <trkpt lat="45.5701" lon="4.51427">
        <ele>864.84</ele>
        <time>2014-10-15T11:25:31Z</time>
      </trkpt>
      <trkpt lat="45.5702" lon="4.51416">
        <ele>865.8</ele>
        <time>2014-10-15T11:25:42Z</time>
      </trkpt>
      <trkpt lat="45.57026" lon="4.51408">
        <ele>866.29</ele>
        <time>2014-10-15T11:25:53Z</time>
      </trkpt>
      <trkpt lat="45.57027" lon="4.51406">
        <ele>866.29</ele>
        <time>2014-10-15T11:26:07Z</time>
      </trkpt>
      <trkpt lat="45.57032" lon="4.51401">
        <ele>866.77</ele>
        <time>2014-10-15T11:26:44Z</time>
      </trkpt>
      <trkpt lat="45.57035" lon="4.51398">
        <ele>865.32</ele>
        <time>2014-10-15T11:26:50Z</time>
      </trkpt>
      <trkpt lat="45.57041" lon="4.51392">
        <ele>866.77</ele>
        <time>2014-10-15T11:26:59Z</time>
      </trkpt>
      <trkpt lat="45.57046" lon="4.51383">
        <ele>866.29</ele>
        <time>2014-10-15T11:27:08Z</time>
      </trkpt>
      <trkpt lat="45.57049" lon="4.51379">
        <ele>867.25</ele>
        <time>2014-10-15T11:27:22Z</time>
      </trkpt>
      <trkpt lat="45.57052" lon="4.51374">
        <ele>867.73</ele>
        <time>2014-10-15T11:27:32Z</time>
      </trkpt>
      <trkpt lat="45.57055" lon="4.51368">
        <ele>866.77</ele>
        <time>2014-10-15T11:27:52Z</time>
      </trkpt>
      <trkpt lat="45.5706" lon="4.51361">
        <ele>866.77</ele>
        <time>2014-10-15T11:28:00Z</time>
      </trkpt>
      <trkpt lat="45.57061" lon="4.51359">
        <ele>866.77</ele>
        <time>2014-10-15T11:28:01Z</time>
      </trkpt>
      <trkpt lat="45.57064" lon="4.51352">
        <ele>866.77</ele>
        <time>2014-10-15T11:28:06Z</time>
      </trkpt>
      <trkpt lat="45.57071" lon="4.51338">
        <ele>867.73</ele>
        <time>2014-10-15T11:28:17Z</time>
      </trkpt>
      <trkpt lat="45.57075" lon="4.51323">
        <ele>867.73</ele>
        <time>2014-10-15T11:28:29Z</time>
      </trkpt>
      <trkpt lat="45.57076" lon="4.51319">
        <ele>867.73</ele>
        <time>2014-10-15T11:28:33Z</time>
      </trkpt>
      <trkpt lat="45.57079" lon="4.5131">
        <ele>867.25</ele>
        <time>2014-10-15T11:28:40Z</time>
      </trkpt>
      <trkpt lat="45.57082" lon="4.51298">
        <ele>866.29</ele>
        <time>2014-10-15T11:28:49Z</time>
      </trkpt>
      <trkpt lat="45.57086" lon="4.51283">
        <ele>867.73</ele>
        <time>2014-10-15T11:28:58Z</time>
      </trkpt>
      <trkpt lat="45.57087" lon="4.51279">
        <ele>866.77</ele>
        <time>2014-10-15T11:29:02Z</time>
      </trkpt>
      <trkpt lat="45.5709" lon="4.51268">
        <ele>866.77</ele>
        <time>2014-10-15T11:29:09Z</time>
      </trkpt>
      <trkpt lat="45.57092" lon="4.5125">
        <ele>866.29</ele>
        <time>2014-10-15T11:29:19Z</time>
      </trkpt>
      <trkpt lat="45.57095" lon="4.51233">
        <ele>865.32</ele>
        <time>2014-10-15T11:29:29Z</time>
      </trkpt>
      <trkpt lat="45.57095" lon="4.51232">
        <ele>866.77</ele>
        <time>2014-10-15T11:29:30Z</time>
      </trkpt>
      <trkpt lat="45.57096" lon="4.51222">
        <ele>865.8</ele>
        <time>2014-10-15T11:29:35Z</time>
      </trkpt>
      <trkpt lat="45.57097" lon="4.51217">
        <ele>865.8</ele>
        <time>2014-10-15T11:29:39Z</time>
      </trkpt>
      <trkpt lat="45.57097" lon="4.51202">
        <ele>865.32</ele>
        <time>2014-10-15T11:29:49Z</time>
      </trkpt>
      <trkpt lat="45.57096" lon="4.51189">
        <ele>864.36</ele>
        <time>2014-10-15T11:29:55Z</time>
      </trkpt>
      <trkpt lat="45.57095" lon="4.51184">
        <ele>864.36</ele>
        <time>2014-10-15T11:29:58Z</time>
      </trkpt>
      <trkpt lat="45.57096" lon="4.51166">
        <ele>864.36</ele>
        <time>2014-10-15T11:30:08Z</time>
      </trkpt>
      <trkpt lat="45.57096" lon="4.51163">
        <ele>864.84</ele>
        <time>2014-10-15T11:30:12Z</time>
      </trkpt>
      <trkpt lat="45.57094" lon="4.51153">
        <ele>864.84</ele>
        <time>2014-10-15T11:30:17Z</time>
      </trkpt>
      <trkpt lat="45.57091" lon="4.51136">
        <ele>864.36</ele>
        <time>2014-10-15T11:30:28Z</time>
      </trkpt>
      <trkpt lat="45.5709" lon="4.5112">
        <ele>863.88</ele>
        <time>2014-10-15T11:30:38Z</time>
      </trkpt>
      <trkpt lat="45.57092" lon="4.51115">
        <ele>864.36</ele>
        <time>2014-10-15T11:30:46Z</time>
      </trkpt>
      <trkpt lat="45.57092" lon="4.51112">
        <ele>864.36</ele>
        <time>2014-10-15T11:31:01Z</time>
      </trkpt>
      <trkpt lat="45.57089" lon="4.51109">
        <ele>863.88</ele>
        <time>2014-10-15T11:31:05Z</time>
      </trkpt>
      <trkpt lat="45.57089" lon="4.51091">
        <ele>863.88</ele>
        <time>2014-10-15T11:31:16Z</time>
      </trkpt>
      <trkpt lat="45.57089" lon="4.51087">
        <ele>863.88</ele>
        <time>2014-10-15T11:31:19Z</time>
      </trkpt>
      <trkpt lat="45.57091" lon="4.51078">
        <ele>864.84</ele>
        <time>2014-10-15T11:31:23Z</time>
      </trkpt>
      <trkpt lat="45.5709" lon="4.51073">
        <ele>863.88</ele>
        <time>2014-10-15T11:31:30Z</time>
      </trkpt>
      <trkpt lat="45.57095" lon="4.51057">
        <ele>863.4</ele>
        <time>2014-10-15T11:31:42Z</time>
      </trkpt>
      <trkpt lat="45.57103" lon="4.5104">
        <ele>864.84</ele>
        <time>2014-10-15T11:31:53Z</time>
      </trkpt>
      <trkpt lat="45.57108" lon="4.51028">
        <ele>864.36</ele>
        <time>2014-10-15T11:32:03Z</time>
      </trkpt>
      <trkpt lat="45.57111" lon="4.51024">
        <ele>865.32</ele>
        <time>2014-10-15T11:32:05Z</time>
      </trkpt>
      <trkpt lat="45.57114" lon="4.5102">
        <ele>864.84</ele>
        <time>2014-10-15T11:32:10Z</time>
      </trkpt>
      <trkpt lat="45.57114" lon="4.51018">
        <ele>864.36</ele>
        <time>2014-10-15T11:32:28Z</time>
      </trkpt>
      <trkpt lat="45.57117" lon="4.51013">
        <ele>864.84</ele>
        <time>2014-10-15T11:32:41Z</time>
      </trkpt>
      <trkpt lat="45.5712" lon="4.5101">
        <ele>864.84</ele>
        <time>2014-10-15T11:33:10Z</time>
      </trkpt>
      <trkpt lat="45.57128" lon="4.50998">
        <ele>864.84</ele>
        <time>2014-10-15T11:33:19Z</time>
      </trkpt>
      <trkpt lat="45.57134" lon="4.50989">
        <ele>864.84</ele>
        <time>2014-10-15T11:33:27Z</time>
      </trkpt>
      <trkpt lat="45.57135" lon="4.50989">
        <ele>865.8</ele>
        <time>2014-10-15T11:33:38Z</time>
      </trkpt>
      <trkpt lat="45.57138" lon="4.50985">
        <ele>865.8</ele>
        <time>2014-10-15T11:33:55Z</time>
      </trkpt>
      <trkpt lat="45.5714" lon="4.50981">
        <ele>866.29</ele>
        <time>2014-10-15T11:33:59Z</time>
      </trkpt>
      <trkpt lat="45.57145" lon="4.50974">
        <ele>867.25</ele>
        <time>2014-10-15T11:34:06Z</time>
      </trkpt>
      <trkpt lat="45.57149" lon="4.50969">
        <ele>867.73</ele>
        <time>2014-10-15T11:34:12Z</time>
      </trkpt>
      <trkpt lat="45.57159" lon="4.50962">
        <ele>867.73</ele>
        <time>2014-10-15T11:34:22Z</time>
      </trkpt>
      <trkpt lat="45.57166" lon="4.50962">
        <ele>868.21</ele>
        <time>2014-10-15T11:34:32Z</time>
      </trkpt>
      <trkpt lat="45.57168" lon="4.50963">
        <ele>867.73</ele>
        <time>2014-10-15T11:34:44Z</time>
      </trkpt>
      <trkpt lat="45.57168" lon="4.50963">
        <ele>868.69</ele>
        <time>2014-10-15T11:35:27Z</time>
      </trkpt>
      <trkpt lat="45.57181" lon="4.50959">
        <ele>869.17</ele>
        <time>2014-10-15T11:35:36Z</time>
      </trkpt>
      <trkpt lat="45.57193" lon="4.50955">
        <ele>868.69</ele>
        <time>2014-10-15T11:35:45Z</time>
      </trkpt>
      <trkpt lat="45.57202" lon="4.5095">
        <ele>869.17</ele>
        <time>2014-10-15T11:35:57Z</time>
      </trkpt>
      <trkpt lat="45.57209" lon="4.50948">
        <ele>871.09</ele>
        <time>2014-10-15T11:36:05Z</time>
      </trkpt>
      <trkpt lat="45.57215" lon="4.50944">
        <ele>870.13</ele>
        <time>2014-10-15T11:36:13Z</time>
      </trkpt>
      <trkpt lat="45.57222" lon="4.5094">
        <ele>871.57</ele>
        <time>2014-10-15T11:36:22Z</time>
      </trkpt>
      <trkpt lat="45.57226" lon="4.50937">
        <ele>871.57</ele>
        <time>2014-10-15T11:36:28Z</time>
      </trkpt>
      <trkpt lat="45.57236" lon="4.50929">
        <ele>872.05</ele>
        <time>2014-10-15T11:36:37Z</time>
      </trkpt>
      <trkpt lat="45.5724" lon="4.50926">
        <ele>873.01</ele>
        <time>2014-10-15T11:36:41Z</time>
      </trkpt>
      <trkpt lat="45.57246" lon="4.50922">
        <ele>873.98</ele>
        <time>2014-10-15T11:36:48Z</time>
      </trkpt>
      <trkpt lat="45.57256" lon="4.50917">
        <ele>874.94</ele>
        <time>2014-10-15T11:36:57Z</time>
      </trkpt>
      <trkpt lat="45.57265" lon="4.5091">
        <ele>875.42</ele>
        <time>2014-10-15T11:37:03Z</time>
      </trkpt>
      <trkpt lat="45.57274" lon="4.50908">
        <ele>875.42</ele>
        <time>2014-10-15T11:37:12Z</time>
      </trkpt>
      <trkpt lat="45.57275" lon="4.50908">
        <ele>875.9</ele>
        <time>2014-10-15T11:37:15Z</time>
      </trkpt>
      <trkpt lat="45.57286" lon="4.50908">
        <ele>877.34</ele>
        <time>2014-10-15T11:37:24Z</time>
      </trkpt>
      <trkpt lat="45.57297" lon="4.50907">
        <ele>877.34</ele>
        <time>2014-10-15T11:37:33Z</time>
      </trkpt>
      <trkpt lat="45.57307" lon="4.50905">
        <ele>876.38</ele>
        <time>2014-10-15T11:37:43Z</time>
      </trkpt>
      <trkpt lat="45.57314" lon="4.50903">
        <ele>878.78</ele>
        <time>2014-10-15T11:37:53Z</time>
      </trkpt>
      <trkpt lat="45.57314" lon="4.50903">
        <ele>878.3</ele>
        <time>2014-10-15T11:38:04Z</time>
      </trkpt>
      <trkpt lat="45.57324" lon="4.50905">
        <ele>878.3</ele>
        <time>2014-10-15T11:38:47Z</time>
      </trkpt>
      <trkpt lat="45.57336" lon="4.50904">
        <ele>881.67</ele>
        <time>2014-10-15T11:38:56Z</time>
      </trkpt>
      <trkpt lat="45.57337" lon="4.50902">
        <ele>881.19</ele>
        <time>2014-10-15T11:38:58Z</time>
      </trkpt>
      <trkpt lat="45.5734" lon="4.50899">
        <ele>880.22</ele>
        <time>2014-10-15T11:39:05Z</time>
      </trkpt>
      <trkpt lat="45.57354" lon="4.50896">
        <ele>882.63</ele>
        <time>2014-10-15T11:39:18Z</time>
      </trkpt>
      <trkpt lat="45.57366" lon="4.50891">
        <ele>885.03</ele>
        <time>2014-10-15T11:39:28Z</time>
      </trkpt>
      <trkpt lat="45.5737" lon="4.5089">
        <ele>885.51</ele>
        <time>2014-10-15T11:39:34Z</time>
      </trkpt>
      <trkpt lat="45.57383" lon="4.50884">
        <ele>886.47</ele>
        <time>2014-10-15T11:39:44Z</time>
      </trkpt>
      <trkpt lat="45.57392" lon="4.50881">
        <ele>887.91</ele>
        <time>2014-10-15T11:39:52Z</time>
      </trkpt>
      <trkpt lat="45.57405" lon="4.50874">
        <ele>889.84</ele>
        <time>2014-10-15T11:40:05Z</time>
      </trkpt>
      <trkpt lat="45.57409" lon="4.50873">
        <ele>889.36</ele>
        <time>2014-10-15T11:40:10Z</time>
      </trkpt>
      <trkpt lat="45.57417" lon="4.50869">
        <ele>889.84</ele>
        <time>2014-10-15T11:40:14Z</time>
      </trkpt>
      <trkpt lat="45.57422" lon="4.50866">
        <ele>891.28</ele>
        <time>2014-10-15T11:40:17Z</time>
      </trkpt>
      <trkpt lat="45.57438" lon="4.50857">
        <ele>892.72</ele>
        <time>2014-10-15T11:40:31Z</time>
      </trkpt>
      <trkpt lat="45.57451" lon="4.50853">
        <ele>891.76</ele>
        <time>2014-10-15T11:40:42Z</time>
      </trkpt>
      <trkpt lat="45.57464" lon="4.50847">
        <ele>893.2</ele>
        <time>2014-10-15T11:40:52Z</time>
      </trkpt>
      <trkpt lat="45.57464" lon="4.50847">
        <ele>893.68</ele>
        <time>2014-10-15T11:40:53Z</time>
      </trkpt>
      <trkpt lat="45.57473" lon="4.50845">
        <ele>893.68</ele>
        <time>2014-10-15T11:41:00Z</time>
      </trkpt>
      <trkpt lat="45.57488" lon="4.50839">
        <ele>892.72</ele>
        <time>2014-10-15T11:41:10Z</time>
      </trkpt>
      <trkpt lat="45.5749" lon="4.50838">
        <ele>893.2</ele>
        <time>2014-10-15T11:41:13Z</time>
      </trkpt>
      <trkpt lat="45.57509" lon="4.50831">
        <ele>894.64</ele>
        <time>2014-10-15T11:41:23Z</time>
      </trkpt>
      <trkpt lat="45.57509" lon="4.50831">
        <ele>894.16</ele>
        <time>2014-10-15T11:41:24Z</time>
      </trkpt>
      <trkpt lat="45.57512" lon="4.5083">
        <ele>892.72</ele>
        <time>2014-10-15T11:41:28Z</time>
      </trkpt>
      <trkpt lat="45.57514" lon="4.50828">
        <ele>893.2</ele>
        <time>2014-10-15T11:41:32Z</time>
      </trkpt>
      <trkpt lat="45.57532" lon="4.50819">
        <ele>892.72</ele>
        <time>2014-10-15T11:41:43Z</time>
      </trkpt>
      <trkpt lat="45.57539" lon="4.50814">
        <ele>893.2</ele>
        <time>2014-10-15T11:41:47Z</time>
      </trkpt>
      <trkpt lat="45.5754" lon="4.50814">
        <ele>892.72</ele>
        <time>2014-10-15T11:41:48Z</time>
      </trkpt>
      <trkpt lat="45.57545" lon="4.50812">
        <ele>892.72</ele>
        <time>2014-10-15T11:41:56Z</time>
      </trkpt>
      <trkpt lat="45.57563" lon="4.50807">
        <ele>891.28</ele>
        <time>2014-10-15T11:42:08Z</time>
      </trkpt>
      <trkpt lat="45.57575" lon="4.50804">
        <ele>890.8</ele>
        <time>2014-10-15T11:42:21Z</time>
      </trkpt>
      <trkpt lat="45.57579" lon="4.50802">
        <ele>889.84</ele>
        <time>2014-10-15T11:42:24Z</time>
      </trkpt>
      <trkpt lat="45.57591" lon="4.50794">
        <ele>888.4</ele>
        <time>2014-10-15T11:42:31Z</time>
      </trkpt>
      <trkpt lat="45.57594" lon="4.50792">
        <ele>889.84</ele>
        <time>2014-10-15T11:42:33Z</time>
      </trkpt>
      <trkpt lat="45.576" lon="4.50785">
        <ele>889.84</ele>
        <time>2014-10-15T11:42:43Z</time>
      </trkpt>
      <trkpt lat="45.57603" lon="4.50781">
        <ele>888.4</ele>
        <time>2014-10-15T11:42:47Z</time>
      </trkpt>
      <trkpt lat="45.57609" lon="4.50776">
        <ele>887.91</ele>
        <time>2014-10-15T11:42:52Z</time>
      </trkpt>
      <trkpt lat="45.5761" lon="4.50775">
        <ele>888.88</ele>
        <time>2014-10-15T11:42:53Z</time>
      </trkpt>
      <trkpt lat="45.57619" lon="4.50768">
        <ele>887.91</ele>
        <time>2014-10-15T11:42:59Z</time>
      </trkpt>
      <trkpt lat="45.5763" lon="4.50756">
        <ele>887.91</ele>
        <time>2014-10-15T11:43:11Z</time>
      </trkpt>
      <trkpt lat="45.57642" lon="4.50748">
        <ele>886.47</ele>
        <time>2014-10-15T11:43:21Z</time>
      </trkpt>
      <trkpt lat="45.57652" lon="4.50741">
        <ele>885.99</ele>
        <time>2014-10-15T11:43:33Z</time>
      </trkpt>
      <trkpt lat="45.57663" lon="4.50735">
        <ele>883.11</ele>
        <time>2014-10-15T11:43:43Z</time>
      </trkpt>
      <trkpt lat="45.57674" lon="4.5073">
        <ele>884.07</ele>
        <time>2014-10-15T11:43:52Z</time>
      </trkpt>
      <trkpt lat="45.57687" lon="4.50724">
        <ele>882.63</ele>
        <time>2014-10-15T11:44:01Z</time>
      </trkpt>
      <trkpt lat="45.57695" lon="4.50721">
        <ele>883.59</ele>
        <time>2014-10-15T11:44:11Z</time>
      </trkpt>
      <trkpt lat="45.57708" lon="4.50717">
        <ele>881.67</ele>
        <time>2014-10-15T11:44:22Z</time>
      </trkpt>
      <trkpt lat="45.5771" lon="4.50716">
        <ele>881.67</ele>
        <time>2014-10-15T11:44:23Z</time>
      </trkpt>
      <trkpt lat="45.5772" lon="4.50712">
        <ele>882.15</ele>
        <time>2014-10-15T11:44:33Z</time>
      </trkpt>
      <trkpt lat="45.57725" lon="4.5071">
        <ele>881.67</ele>
        <time>2014-10-15T11:44:40Z</time>
      </trkpt>
      <trkpt lat="45.57733" lon="4.50705">
        <ele>881.67</ele>
        <time>2014-10-15T11:44:49Z</time>
      </trkpt>
      <trkpt lat="45.57733" lon="4.50705">
        <ele>880.71</ele>
        <time>2014-10-15T11:45:24Z</time>
      </trkpt>
      <trkpt lat="45.57735" lon="4.50698">
        <ele>880.71</ele>
        <time>2014-10-15T11:45:38Z</time>
      </trkpt>
      <trkpt lat="45.57739" lon="4.50691">
        <ele>880.22</ele>
        <time>2014-10-15T11:45:57Z</time>
      </trkpt>
      <trkpt lat="45.57739" lon="4.50686">
        <ele>880.71</ele>
        <time>2014-10-15T11:46:19Z</time>
      </trkpt>
      <trkpt lat="45.57739" lon="4.50686">
        <ele>880.22</ele>
        <time>2014-10-15T11:46:26Z</time>
      </trkpt>
      <trkpt lat="45.57739" lon="4.50682">
        <ele>881.19</ele>
        <time>2014-10-15T11:46:49Z</time>
      </trkpt>
      <trkpt lat="45.57738" lon="4.50678">
        <ele>880.22</ele>
        <time>2014-10-15T11:47:15Z</time>
      </trkpt>
      <trkpt lat="45.57737" lon="4.50679">
        <ele>880.71</ele>
        <time>2014-10-15T11:47:18Z</time>
      </trkpt>
      <trkpt lat="45.57737" lon="4.50681">
        <ele>881.67</ele>
        <time>2014-10-15T11:47:33Z</time>
      </trkpt>
      <trkpt lat="45.57738" lon="4.5068">
        <ele>880.22</ele>
        <time>2014-10-15T11:47:47Z</time>
      </trkpt>
      <trkpt lat="45.57738" lon="4.50678">
        <ele>881.19</ele>
        <time>2014-10-15T11:47:50Z</time>
      </trkpt>
      <trkpt lat="45.57742" lon="4.50672">
        <ele>880.71</ele>
        <time>2014-10-15T11:47:57Z</time>
      </trkpt>
      <trkpt lat="45.57748" lon="4.50675">
        <ele>881.19</ele>
        <time>2014-10-15T11:48:01Z</time>
      </trkpt>
      <trkpt lat="45.57754" lon="4.50686">
        <ele>880.71</ele>
        <time>2014-10-15T11:48:12Z</time>
      </trkpt>
      <trkpt lat="45.57756" lon="4.50688">
        <ele>880.71</ele>
        <time>2014-10-15T11:48:14Z</time>
      </trkpt>
      <trkpt lat="45.57761" lon="4.50693">
        <ele>881.19</ele>
        <time>2014-10-15T11:48:22Z</time>
      </trkpt>
      <trkpt lat="45.57771" lon="4.50684">
        <ele>880.71</ele>
        <time>2014-10-15T11:48:33Z</time>
      </trkpt>
      <trkpt lat="45.5778" lon="4.50677">
        <ele>881.19</ele>
        <time>2014-10-15T11:48:43Z</time>
      </trkpt>
      <trkpt lat="45.57791" lon="4.50669">
        <ele>881.19</ele>
        <time>2014-10-15T11:48:52Z</time>
      </trkpt>
      <trkpt lat="45.578" lon="4.5066">
        <ele>882.15</ele>
        <time>2014-10-15T11:49:03Z</time>
      </trkpt>
      <trkpt lat="45.57809" lon="4.50651">
        <ele>881.67</ele>
        <time>2014-10-15T11:49:13Z</time>
      </trkpt>
      <trkpt lat="45.57811" lon="4.5065">
        <ele>881.19</ele>
        <time>2014-10-15T11:49:15Z</time>
      </trkpt>
      <trkpt lat="45.57819" lon="4.50647">
        <ele>882.15</ele>
        <time>2014-10-15T11:49:26Z</time>
      </trkpt>
      <trkpt lat="45.57821" lon="4.50647">
        <ele>882.63</ele>
        <time>2014-10-15T11:50:01Z</time>
      </trkpt>
      <trkpt lat="45.57821" lon="4.50647">
        <ele>883.11</ele>
        <time>2014-10-15T11:50:11Z</time>
      </trkpt>
      <trkpt lat="45.57827" lon="4.50642">
        <ele>883.59</ele>
        <time>2014-10-15T11:50:45Z</time>
      </trkpt>
      <trkpt lat="45.57834" lon="4.50637">
        <ele>884.07</ele>
        <time>2014-10-15T11:50:54Z</time>
      </trkpt>
      <trkpt lat="45.57841" lon="4.50631">
        <ele>883.59</ele>
        <time>2014-10-15T11:51:03Z</time>
      </trkpt>
      <trkpt lat="45.5785" lon="4.50627">
        <ele>883.59</ele>
        <time>2014-10-15T11:51:11Z</time>
      </trkpt>
      <trkpt lat="45.57859" lon="4.50622">
        <ele>885.03</ele>
        <time>2014-10-15T11:51:20Z</time>
      </trkpt>
      <trkpt lat="45.57862" lon="4.5062">
        <ele>885.51</ele>
        <time>2014-10-15T11:51:29Z</time>
      </trkpt>
      <trkpt lat="45.57868" lon="4.50615">
        <ele>885.99</ele>
        <time>2014-10-15T11:51:38Z</time>
      </trkpt>
      <trkpt lat="45.57873" lon="4.50613">
        <ele>884.55</ele>
        <time>2014-10-15T11:51:43Z</time>
      </trkpt>
      <trkpt lat="45.57883" lon="4.50607">
        <ele>885.99</ele>
        <time>2014-10-15T11:51:53Z</time>
      </trkpt>
      <trkpt lat="45.57892" lon="4.50602">
        <ele>885.51</ele>
        <time>2014-10-15T11:52:02Z</time>
      </trkpt>
      <trkpt lat="45.57893" lon="4.50602">
        <ele>886.47</ele>
        <time>2014-10-15T11:52:03Z</time>
      </trkpt>
      <trkpt lat="45.57904" lon="4.50596">
        <ele>886.95</ele>
        <time>2014-10-15T11:52:14Z</time>
      </trkpt>
      <trkpt lat="45.57913" lon="4.50594">
        <ele>887.43</ele>
        <time>2014-10-15T11:52:24Z</time>
      </trkpt>
      <trkpt lat="45.57921" lon="4.50595">
        <ele>888.88</ele>
        <time>2014-10-15T11:52:31Z</time>
      </trkpt>
      <trkpt lat="45.57923" lon="4.50595">
        <ele>888.4</ele>
        <time>2014-10-15T11:52:33Z</time>
      </trkpt>
      <trkpt lat="45.57936" lon="4.50598">
        <ele>888.4</ele>
        <time>2014-10-15T11:52:45Z</time>
      </trkpt>
      <trkpt lat="45.57941" lon="4.50591">
        <ele>888.88</ele>
        <time>2014-10-15T11:52:54Z</time>
      </trkpt>
      <trkpt lat="45.57944" lon="4.50586">
        <ele>889.36</ele>
        <time>2014-10-15T11:53:05Z</time>
      </trkpt>
      <trkpt lat="45.57944" lon="4.50585">
        <ele>889.36</ele>
        <time>2014-10-15T11:53:07Z</time>
      </trkpt>
      <trkpt lat="45.57954" lon="4.5058">
        <ele>889.84</ele>
        <time>2014-10-15T11:53:18Z</time>
      </trkpt>
      <trkpt lat="45.57961" lon="4.50574">
        <ele>889.36</ele>
        <time>2014-10-15T11:53:27Z</time>
      </trkpt>
      <trkpt lat="45.57968" lon="4.50568">
        <ele>889.84</ele>
        <time>2014-10-15T11:53:37Z</time>
      </trkpt>
      <trkpt lat="45.57977" lon="4.50559">
        <ele>889.84</ele>
        <time>2014-10-15T11:53:47Z</time>
      </trkpt>
      <trkpt lat="45.57977" lon="4.50558">
        <ele>890.32</ele>
        <time>2014-10-15T11:53:48Z</time>
      </trkpt>
      <trkpt lat="45.57987" lon="4.5055">
        <ele>891.28</ele>
        <time>2014-10-15T11:53:58Z</time>
      </trkpt>
      <trkpt lat="45.57994" lon="4.50541">
        <ele>892.24</ele>
        <time>2014-10-15T11:54:07Z</time>
      </trkpt>
      <trkpt lat="45.57995" lon="4.50541">
        <ele>890.8</ele>
        <time>2014-10-15T11:54:08Z</time>
      </trkpt>
      <trkpt lat="45.58007" lon="4.50534">
        <ele>892.72</ele>
        <time>2014-10-15T11:54:20Z</time>
      </trkpt>
      <trkpt lat="45.58016" lon="4.50529">
        <ele>893.2</ele>
        <time>2014-10-15T11:54:32Z</time>
      </trkpt>
      <trkpt lat="45.58022" lon="4.50524">
        <ele>894.16</ele>
        <time>2014-10-15T11:54:43Z</time>
      </trkpt>
      <trkpt lat="45.58029" lon="4.50521">
        <ele>895.61</ele>
        <time>2014-10-15T11:54:55Z</time>
      </trkpt>
      <trkpt lat="45.5803" lon="4.50521">
        <ele>894.64</ele>
        <time>2014-10-15T11:54:57Z</time>
      </trkpt>
      <trkpt lat="45.58038" lon="4.50516">
        <ele>896.57</ele>
        <time>2014-10-15T11:55:08Z</time>
      </trkpt>
      <trkpt lat="45.58043" lon="4.50512">
        <ele>898.01</ele>
        <time>2014-10-15T11:55:18Z</time>
      </trkpt>
      <trkpt lat="45.58053" lon="4.50507">
        <ele>898.97</ele>
        <time>2014-10-15T11:55:28Z</time>
      </trkpt>
      <trkpt lat="45.58056" lon="4.50508">
        <ele>899.45</ele>
        <time>2014-10-15T11:55:32Z</time>
      </trkpt>
      <trkpt lat="45.58067" lon="4.5051">
        <ele>900.41</ele>
        <time>2014-10-15T11:55:44Z</time>
      </trkpt>
      <trkpt lat="45.58073" lon="4.50512">
        <ele>900.89</ele>
        <time>2014-10-15T11:55:51Z</time>
      </trkpt>
      <trkpt lat="45.58085" lon="4.50515">
        <ele>901.85</ele>
        <time>2014-10-15T11:56:07Z</time>
      </trkpt>
      <trkpt lat="45.58091" lon="4.50517">
        <ele>902.82</ele>
        <time>2014-10-15T11:56:16Z</time>
      </trkpt>
      <trkpt lat="45.58104" lon="4.5052">
        <ele>903.3</ele>
        <time>2014-10-15T11:56:28Z</time>
      </trkpt>
      <trkpt lat="45.58118" lon="4.50525">
        <ele>904.74</ele>
        <time>2014-10-15T11:56:40Z</time>
      </trkpt>
      <trkpt lat="45.58122" lon="4.50525">
        <ele>904.74</ele>
        <time>2014-10-15T11:56:43Z</time>
      </trkpt>
      <trkpt lat="45.5813" lon="4.50528">
        <ele>906.66</ele>
        <time>2014-10-15T11:56:57Z</time>
      </trkpt>
      <trkpt lat="45.58131" lon="4.50527">
        <ele>908.1</ele>
        <time>2014-10-15T11:56:59Z</time>
      </trkpt>
      <trkpt lat="45.58136" lon="4.50529">
        <ele>909.06</ele>
        <time>2014-10-15T11:57:04Z</time>
      </trkpt>
      <trkpt lat="45.58142" lon="4.50529">
        <ele>908.1</ele>
        <time>2014-10-15T11:57:07Z</time>
      </trkpt>
      <trkpt lat="45.5815" lon="4.50532">
        <ele>910.03</ele>
        <time>2014-10-15T11:57:19Z</time>
      </trkpt>
      <trkpt lat="45.58153" lon="4.50532">
        <ele>910.51</ele>
        <time>2014-10-15T11:57:22Z</time>
      </trkpt>
      <trkpt lat="45.58161" lon="4.50532">
        <ele>910.99</ele>
        <time>2014-10-15T11:57:34Z</time>
      </trkpt>
      <trkpt lat="45.58165" lon="4.50533">
        <ele>911.95</ele>
        <time>2014-10-15T11:57:41Z</time>
      </trkpt>
      <trkpt lat="45.58176" lon="4.50532">
        <ele>913.87</ele>
        <time>2014-10-15T11:57:52Z</time>
      </trkpt>
      <trkpt lat="45.58185" lon="4.5053">
        <ele>915.79</ele>
        <time>2014-10-15T11:58:04Z</time>
      </trkpt>
      <trkpt lat="45.58188" lon="4.5053">
        <ele>917.24</ele>
        <time>2014-10-15T11:58:14Z</time>
      </trkpt>
      <trkpt lat="45.58193" lon="4.5053">
        <ele>916.75</ele>
        <time>2014-10-15T11:58:24Z</time>
      </trkpt>
      <trkpt lat="45.58194" lon="4.5053">
        <ele>918.2</ele>
        <time>2014-10-15T11:59:09Z</time>
      </trkpt>
      <trkpt lat="45.58203" lon="4.50529">
        <ele>919.16</ele>
        <time>2014-10-15T11:59:17Z</time>
      </trkpt>
      <trkpt lat="45.58211" lon="4.50525">
        <ele>921.56</ele>
        <time>2014-10-15T11:59:28Z</time>
      </trkpt>
      <trkpt lat="45.58213" lon="4.50524">
        <ele>923.48</ele>
        <time>2014-10-15T11:59:31Z</time>
      </trkpt>
      <trkpt lat="45.5822" lon="4.50521">
        <ele>923.48</ele>
        <time>2014-10-15T11:59:39Z</time>
      </trkpt>
      <trkpt lat="45.58229" lon="4.50521">
        <ele>925.41</ele>
        <time>2014-10-15T11:59:49Z</time>
      </trkpt>
      <trkpt lat="45.58238" lon="4.50519">
        <ele>925.41</ele>
        <time>2014-10-15T11:59:57Z</time>
      </trkpt>
      <trkpt lat="45.58246" lon="4.50517">
        <ele>926.37</ele>
        <time>2014-10-15T12:00:08Z</time>
      </trkpt>
      <trkpt lat="45.5825" lon="4.50518">
        <ele>928.29</ele>
        <time>2014-10-15T12:00:13Z</time>
      </trkpt>
      <trkpt lat="45.58257" lon="4.50515">
        <ele>928.77</ele>
        <time>2014-10-15T12:00:21Z</time>
      </trkpt>
      <trkpt lat="45.58267" lon="4.50513">
        <ele>930.21</ele>
        <time>2014-10-15T12:00:31Z</time>
      </trkpt>
      <trkpt lat="45.58276" lon="4.5051">
        <ele>931.65</ele>
        <time>2014-10-15T12:00:43Z</time>
      </trkpt>
      <trkpt lat="45.58282" lon="4.50508">
        <ele>932.14</ele>
        <time>2014-10-15T12:00:53Z</time>
      </trkpt>
      <trkpt lat="45.58288" lon="4.50506">
        <ele>932.62</ele>
        <time>2014-10-15T12:01:00Z</time>
      </trkpt>
      <trkpt lat="45.58297" lon="4.50504">
        <ele>933.58</ele>
        <time>2014-10-15T12:01:08Z</time>
      </trkpt>
      <trkpt lat="45.58307" lon="4.50501">
        <ele>933.58</ele>
        <time>2014-10-15T12:01:15Z</time>
      </trkpt>
      <trkpt lat="45.58315" lon="4.50499">
        <ele>934.54</ele>
        <time>2014-10-15T12:01:24Z</time>
      </trkpt>
      <trkpt lat="45.58324" lon="4.50496">
        <ele>935.98</ele>
        <time>2014-10-15T12:01:34Z</time>
      </trkpt>
      <trkpt lat="45.58334" lon="4.50493">
        <ele>936.94</ele>
        <time>2014-10-15T12:01:43Z</time>
      </trkpt>
      <trkpt lat="45.58347" lon="4.5049">
        <ele>936.94</ele>
        <time>2014-10-15T12:01:55Z</time>
      </trkpt>
      <trkpt lat="45.58353" lon="4.5049">
        <ele>937.42</ele>
        <time>2014-10-15T12:02:00Z</time>
      </trkpt>
      <trkpt lat="45.58364" lon="4.50488">
        <ele>937.9</ele>
        <time>2014-10-15T12:02:10Z</time>
      </trkpt>
      <trkpt lat="45.58375" lon="4.50485">
        <ele>938.38</ele>
        <time>2014-10-15T12:02:22Z</time>
      </trkpt>
      <trkpt lat="45.58387" lon="4.50483">
        <ele>937.42</ele>
        <time>2014-10-15T12:02:32Z</time>
      </trkpt>
      <trkpt lat="45.58393" lon="4.50481">
        <ele>936.94</ele>
        <time>2014-10-15T12:02:39Z</time>
      </trkpt>
      <trkpt lat="45.58407" lon="4.5048">
        <ele>936.46</ele>
        <time>2014-10-15T12:02:53Z</time>
      </trkpt>
      <trkpt lat="45.58408" lon="4.50479">
        <ele>935.98</ele>
        <time>2014-10-15T12:02:54Z</time>
      </trkpt>
      <trkpt lat="45.58412" lon="4.50478">
        <ele>937.9</ele>
        <time>2014-10-15T12:02:58Z</time>
      </trkpt>
      <trkpt lat="45.58416" lon="4.50479">
        <ele>937.42</ele>
        <time>2014-10-15T12:03:07Z</time>
      </trkpt>
      <trkpt lat="45.58416" lon="4.50479">
        <ele>936.46</ele>
        <time>2014-10-15T12:03:32Z</time>
      </trkpt>
      <trkpt lat="45.58417" lon="4.50479">
        <ele>936.46</ele>
        <time>2014-10-15T12:05:41Z</time>
      </trkpt>
      <trkpt lat="45.58417" lon="4.5048">
        <ele>935.5</ele>
        <time>2014-10-15T12:06:04Z</time>
      </trkpt>
      <trkpt lat="45.58419" lon="4.5048">
        <ele>935.98</ele>
        <time>2014-10-15T12:06:18Z</time>
      </trkpt>
      <trkpt lat="45.58425" lon="4.50481">
        <ele>935.5</ele>
        <time>2014-10-15T12:06:33Z</time>
      </trkpt>
      <trkpt lat="45.5843" lon="4.50481">
        <ele>935.5</ele>
        <time>2014-10-15T12:06:37Z</time>
      </trkpt>
      <trkpt lat="45.58437" lon="4.50483">
        <ele>934.06</ele>
        <time>2014-10-15T12:06:42Z</time>
      </trkpt>
      <trkpt lat="45.58449" lon="4.5048">
        <ele>934.54</ele>
        <time>2014-10-15T12:06:54Z</time>
      </trkpt>
      <trkpt lat="45.58453" lon="4.5048">
        <ele>933.1</ele>
        <time>2014-10-15T12:06:58Z</time>
      </trkpt>
      <trkpt lat="45.58461" lon="4.5048">
        <ele>932.62</ele>
        <time>2014-10-15T12:07:08Z</time>
      </trkpt>
      <trkpt lat="45.58467" lon="4.50481">
        <ele>931.17</ele>
        <time>2014-10-15T12:07:16Z</time>
      </trkpt>
      <trkpt lat="45.58475" lon="4.50484">
        <ele>931.65</ele>
        <time>2014-10-15T12:07:25Z</time>
      </trkpt>
      <trkpt lat="45.58476" lon="4.50484">
        <ele>931.17</ele>
        <time>2014-10-15T12:07:27Z</time>
      </trkpt>
      <trkpt lat="45.58485" lon="4.50491">
        <ele>929.73</ele>
        <time>2014-10-15T12:07:38Z</time>
      </trkpt>
      <trkpt lat="45.58493" lon="4.50498">
        <ele>928.77</ele>
        <time>2014-10-15T12:07:46Z</time>
      </trkpt>
      <trkpt lat="45.58499" lon="4.50503">
        <ele>928.29</ele>
        <time>2014-10-15T12:07:55Z</time>
      </trkpt>
      <trkpt lat="45.585" lon="4.50503">
        <ele>927.33</ele>
        <time>2014-10-15T12:07:56Z</time>
      </trkpt>
      <trkpt lat="45.58508" lon="4.50504">
        <ele>926.85</ele>
        <time>2014-10-15T12:08:06Z</time>
      </trkpt>
      <trkpt lat="45.58514" lon="4.50503">
        <ele>925.89</ele>
        <time>2014-10-15T12:08:12Z</time>
      </trkpt>
      <trkpt lat="45.58515" lon="4.50503">
        <ele>925.89</ele>
        <time>2014-10-15T12:08:13Z</time>
      </trkpt>
      <trkpt lat="45.58526" lon="4.50499">
        <ele>924.45</ele>
        <time>2014-10-15T12:08:24Z</time>
      </trkpt>
      <trkpt lat="45.58534" lon="4.50498">
        <ele>922.04</ele>
        <time>2014-10-15T12:08:34Z</time>
      </trkpt>
      <trkpt lat="45.58541" lon="4.50497">
        <ele>921.56</ele>
        <time>2014-10-15T12:08:43Z</time>
      </trkpt>
      <trkpt lat="45.58549" lon="4.50496">
        <ele>921.08</ele>
        <time>2014-10-15T12:08:52Z</time>
      </trkpt>
      <trkpt lat="45.58553" lon="4.50496">
        <ele>919.64</ele>
        <time>2014-10-15T12:08:57Z</time>
      </trkpt>
      <trkpt lat="45.58565" lon="4.50494">
        <ele>919.64</ele>
        <time>2014-10-15T12:09:07Z</time>
      </trkpt>
      <trkpt lat="45.58572" lon="4.50493">
        <ele>917.24</ele>
        <time>2014-10-15T12:09:14Z</time>
      </trkpt>
      <trkpt lat="45.58574" lon="4.50493">
        <ele>918.2</ele>
        <time>2014-10-15T12:09:15Z</time>
      </trkpt>
      <trkpt lat="45.58575" lon="4.50493">
        <ele>918.2</ele>
        <time>2014-10-15T12:09:17Z</time>
      </trkpt>
      <trkpt lat="45.58579" lon="4.50491">
        <ele>917.24</ele>
        <time>2014-10-15T12:09:20Z</time>
      </trkpt>
      <trkpt lat="45.58587" lon="4.5049">
        <ele>916.75</ele>
        <time>2014-10-15T12:09:30Z</time>
      </trkpt>
      <trkpt lat="45.58595" lon="4.50489">
        <ele>915.79</ele>
        <time>2014-10-15T12:09:39Z</time>
      </trkpt>
      <trkpt lat="45.58601" lon="4.50488">
        <ele>913.87</ele>
        <time>2014-10-15T12:09:47Z</time>
      </trkpt>
      <trkpt lat="45.58602" lon="4.50488">
        <ele>914.35</ele>
        <time>2014-10-15T12:09:58Z</time>
      </trkpt>
      <trkpt lat="45.58611" lon="4.50483">
        <ele>913.39</ele>
        <time>2014-10-15T12:10:06Z</time>
      </trkpt>
      <trkpt lat="45.58612" lon="4.50483">
        <ele>912.43</ele>
        <time>2014-10-15T12:10:14Z</time>
      </trkpt>
      <trkpt lat="45.58619" lon="4.50482">
        <ele>912.43</ele>
        <time>2014-10-15T12:10:19Z</time>
      </trkpt>
      <trkpt lat="45.58621" lon="4.50482">
        <ele>912.43</ele>
        <time>2014-10-15T12:10:21Z</time>
      </trkpt>
      <trkpt lat="45.5863" lon="4.50483">
        <ele>911.47</ele>
        <time>2014-10-15T12:10:31Z</time>
      </trkpt>
      <trkpt lat="45.5864" lon="4.50482">
        <ele>910.03</ele>
        <time>2014-10-15T12:10:40Z</time>
      </trkpt>
      <trkpt lat="45.58642" lon="4.50481">
        <ele>909.54</ele>
        <time>2014-10-15T12:10:41Z</time>
      </trkpt>
      <trkpt lat="45.58652" lon="4.50483">
        <ele>909.06</ele>
        <time>2014-10-15T12:10:51Z</time>
      </trkpt>
      <trkpt lat="45.58662" lon="4.50483">
        <ele>907.14</ele>
        <time>2014-10-15T12:11:00Z</time>
      </trkpt>
      <trkpt lat="45.58664" lon="4.50484">
        <ele>907.62</ele>
        <time>2014-10-15T12:11:04Z</time>
      </trkpt>
      <trkpt lat="45.58667" lon="4.50483">
        <ele>907.62</ele>
        <time>2014-10-15T12:11:06Z</time>
      </trkpt>
      <trkpt lat="45.58671" lon="4.50483">
        <ele>907.62</ele>
        <time>2014-10-15T12:11:10Z</time>
      </trkpt>
      <trkpt lat="45.58672" lon="4.50483">
        <ele>907.62</ele>
        <time>2014-10-15T12:11:12Z</time>
      </trkpt>
      <trkpt lat="45.58677" lon="4.50484">
        <ele>906.66</ele>
        <time>2014-10-15T12:11:18Z</time>
      </trkpt>
      <trkpt lat="45.58689" lon="4.50486">
        <ele>905.7</ele>
        <time>2014-10-15T12:11:28Z</time>
      </trkpt>
      <trkpt lat="45.58702" lon="4.50487">
        <ele>904.26</ele>
        <time>2014-10-15T12:11:40Z</time>
      </trkpt>
      <trkpt lat="45.58712" lon="4.50487">
        <ele>905.7</ele>
        <time>2014-10-15T12:11:50Z</time>
      </trkpt>
      <trkpt lat="45.58721" lon="4.50489">
        <ele>903.78</ele>
        <time>2014-10-15T12:11:59Z</time>
      </trkpt>
      <trkpt lat="45.58723" lon="4.50488">
        <ele>904.26</ele>
        <time>2014-10-15T12:12:01Z</time>
      </trkpt>
      <trkpt lat="45.58732" lon="4.5049">
        <ele>904.74</ele>
        <time>2014-10-15T12:12:11Z</time>
      </trkpt>
      <trkpt lat="45.58732" lon="4.5049">
        <ele>904.26</ele>
        <time>2014-10-15T12:12:43Z</time>
      </trkpt>
      <trkpt lat="45.58733" lon="4.50491">
        <ele>904.26</ele>
        <time>2014-10-15T12:13:02Z</time>
      </trkpt>
      <trkpt lat="45.58737" lon="4.50495">
        <ele>903.78</ele>
        <time>2014-10-15T12:13:07Z</time>
      </trkpt>
      <trkpt lat="45.58746" lon="4.50506">
        <ele>903.78</ele>
        <time>2014-10-15T12:13:17Z</time>
      </trkpt>
      <trkpt lat="45.58752" lon="4.50513">
        <ele>904.74</ele>
        <time>2014-10-15T12:13:27Z</time>
      </trkpt>
      <trkpt lat="45.58752" lon="4.50514">
        <ele>903.78</ele>
        <time>2014-10-15T12:13:29Z</time>
      </trkpt>
      <trkpt lat="45.5876" lon="4.50525">
        <ele>903.78</ele>
        <time>2014-10-15T12:13:38Z</time>
      </trkpt>
      <trkpt lat="45.58767" lon="4.50538">
        <ele>903.78</ele>
        <time>2014-10-15T12:13:47Z</time>
      </trkpt>
      <trkpt lat="45.5877" lon="4.5054">
        <ele>903.78</ele>
        <time>2014-10-15T12:13:50Z</time>
      </trkpt>
      <trkpt lat="45.58778" lon="4.50555">
        <ele>903.3</ele>
        <time>2014-10-15T12:14:02Z</time>
      </trkpt>
      <trkpt lat="45.58778" lon="4.50555">
        <ele>904.26</ele>
        <time>2014-10-15T12:14:06Z</time>
      </trkpt>
      <trkpt lat="45.58782" lon="4.50562">
        <ele>904.26</ele>
        <time>2014-10-15T12:14:11Z</time>
      </trkpt>
      <trkpt lat="45.58782" lon="4.50563">
        <ele>903.3</ele>
        <time>2014-10-15T12:14:14Z</time>
      </trkpt>
      <trkpt lat="45.5879" lon="4.50584">
        <ele>904.74</ele>
        <time>2014-10-15T12:14:25Z</time>
      </trkpt>
      <trkpt lat="45.58794" lon="4.50594">
        <ele>903.78</ele>
        <time>2014-10-15T12:14:31Z</time>
      </trkpt>
      <trkpt lat="45.58798" lon="4.50599">
        <ele>904.74</ele>
        <time>2014-10-15T12:14:36Z</time>
      </trkpt>
      <trkpt lat="45.58805" lon="4.50604">
        <ele>903.78</ele>
        <time>2014-10-15T12:14:46Z</time>
      </trkpt>
      <trkpt lat="45.58805" lon="4.50604">
        <ele>905.7</ele>
        <time>2014-10-15T12:14:56Z</time>
      </trkpt>
      <trkpt lat="45.58813" lon="4.5059">
        <ele>904.74</ele>
        <time>2014-10-15T12:15:07Z</time>
      </trkpt>
      <trkpt lat="45.58813" lon="4.5059">
        <ele>905.7</ele>
        <time>2014-10-15T12:15:10Z</time>
      </trkpt>
      <trkpt lat="45.58814" lon="4.50584">
        <ele>904.26</ele>
        <time>2014-10-15T12:15:16Z</time>
      </trkpt>
      <trkpt lat="45.58816" lon="4.50573">
        <ele>905.22</ele>
        <time>2014-10-15T12:15:26Z</time>
      </trkpt>
      <trkpt lat="45.5882" lon="4.50559">
        <ele>905.22</ele>
        <time>2014-10-15T12:15:36Z</time>
      </trkpt>
      <trkpt lat="45.58824" lon="4.50544">
        <ele>906.18</ele>
        <time>2014-10-15T12:15:47Z</time>
      </trkpt>
      <trkpt lat="45.58831" lon="4.50533">
        <ele>904.74</ele>
        <time>2014-10-15T12:15:54Z</time>
      </trkpt>
      <trkpt lat="45.58842" lon="4.50528">
        <ele>904.74</ele>
        <time>2014-10-15T12:16:05Z</time>
      </trkpt>
      <trkpt lat="45.58844" lon="4.50527">
        <ele>905.22</ele>
        <time>2014-10-15T12:16:07Z</time>
      </trkpt>
      <trkpt lat="45.58847" lon="4.50526">
        <ele>906.18</ele>
        <time>2014-10-15T12:16:09Z</time>
      </trkpt>
      <trkpt lat="45.58857" lon="4.50524">
        <ele>906.66</ele>
        <time>2014-10-15T12:16:21Z</time>
      </trkpt>
      <trkpt lat="45.5887" lon="4.50523">
        <ele>907.14</ele>
        <time>2014-10-15T12:16:33Z</time>
      </trkpt>
      <trkpt lat="45.58879" lon="4.50521">
        <ele>908.58</ele>
        <time>2014-10-15T12:16:45Z</time>
      </trkpt>
      <trkpt lat="45.58888" lon="4.50519">
        <ele>909.06</ele>
        <time>2014-10-15T12:16:54Z</time>
      </trkpt>
      <trkpt lat="45.58893" lon="4.50519">
        <ele>910.03</ele>
        <time>2014-10-15T12:17:05Z</time>
      </trkpt>
      <trkpt lat="45.58908" lon="4.50517">
        <ele>910.03</ele>
        <time>2014-10-15T12:17:16Z</time>
      </trkpt>
      <trkpt lat="45.58909" lon="4.50517">
        <ele>910.03</ele>
        <time>2014-10-15T12:17:17Z</time>
      </trkpt>
      <trkpt lat="45.58923" lon="4.50516">
        <ele>910.51</ele>
        <time>2014-10-15T12:17:28Z</time>
      </trkpt>
      <trkpt lat="45.58935" lon="4.5051">
        <ele>910.51</ele>
        <time>2014-10-15T12:17:40Z</time>
      </trkpt>
      <trkpt lat="45.58945" lon="4.50508">
        <ele>911.95</ele>
        <time>2014-10-15T12:17:50Z</time>
      </trkpt>
      <trkpt lat="45.58954" lon="4.50504">
        <ele>912.43</ele>
        <time>2014-10-15T12:18:00Z</time>
      </trkpt>
      <trkpt lat="45.58955" lon="4.50504">
        <ele>912.43</ele>
        <time>2014-10-15T12:18:23Z</time>
      </trkpt>
      <trkpt lat="45.58956" lon="4.50504">
        <ele>913.87</ele>
        <time>2014-10-15T12:18:27Z</time>
      </trkpt>
      <trkpt lat="45.58959" lon="4.50504">
        <ele>914.35</ele>
        <time>2014-10-15T12:18:30Z</time>
      </trkpt>
      <trkpt lat="45.5897" lon="4.50503">
        <ele>914.83</ele>
        <time>2014-10-15T12:18:40Z</time>
      </trkpt>
      <trkpt lat="45.58981" lon="4.50504">
        <ele>915.79</ele>
        <time>2014-10-15T12:18:49Z</time>
      </trkpt>
      <trkpt lat="45.5899" lon="4.50505">
        <ele>917.24</ele>
        <time>2014-10-15T12:18:59Z</time>
      </trkpt>
      <trkpt lat="45.59001" lon="4.50505">
        <ele>917.72</ele>
        <time>2014-10-15T12:19:08Z</time>
      </trkpt>
      <trkpt lat="45.59008" lon="4.50505">
        <ele>919.64</ele>
        <time>2014-10-15T12:19:17Z</time>
      </trkpt>
      <trkpt lat="45.59013" lon="4.50504">
        <ele>921.08</ele>
        <time>2014-10-15T12:19:29Z</time>
      </trkpt>
      <trkpt lat="45.59022" lon="4.50506">
        <ele>922.52</ele>
        <time>2014-10-15T12:19:37Z</time>
      </trkpt>
      <trkpt lat="45.5903" lon="4.50509">
        <ele>924.45</ele>
        <time>2014-10-15T12:19:48Z</time>
      </trkpt>
      <trkpt lat="45.5904" lon="4.50511">
        <ele>923.96</ele>
        <time>2014-10-15T12:19:59Z</time>
      </trkpt>
      <trkpt lat="45.5904" lon="4.50512">
        <ele>924.93</ele>
        <time>2014-10-15T12:20:00Z</time>
      </trkpt>
      <trkpt lat="45.59048" lon="4.50516">
        <ele>925.89</ele>
        <time>2014-10-15T12:20:11Z</time>
      </trkpt>
      <trkpt lat="45.59051" lon="4.5052">
        <ele>925.89</ele>
        <time>2014-10-15T12:20:26Z</time>
      </trkpt>
      <trkpt lat="45.59062" lon="4.50526">
        <ele>926.37</ele>
        <time>2014-10-15T12:20:38Z</time>
      </trkpt>
      <trkpt lat="45.59068" lon="4.50526">
        <ele>926.37</ele>
        <time>2014-10-15T12:20:52Z</time>
      </trkpt>
      <trkpt lat="45.59068" lon="4.50526">
        <ele>925.89</ele>
        <time>2014-10-15T12:21:11Z</time>
      </trkpt>
      <trkpt lat="45.59068" lon="4.50526">
        <ele>926.85</ele>
        <time>2014-10-15T12:21:39Z</time>
      </trkpt>
      <trkpt lat="45.59068" lon="4.50526">
        <ele>926.37</ele>
        <time>2014-10-15T12:21:41Z</time>
      </trkpt>
      <trkpt lat="45.59076" lon="4.50506">
        <ele>926.37</ele>
        <time>2014-10-15T12:21:54Z</time>
      </trkpt>
      <trkpt lat="45.5908" lon="4.50492">
        <ele>927.33</ele>
        <time>2014-10-15T12:22:06Z</time>
      </trkpt>
      <trkpt lat="45.59079" lon="4.50482">
        <ele>928.77</ele>
        <time>2014-10-15T12:22:17Z</time>
      </trkpt>
      <trkpt lat="45.59079" lon="4.50467">
        <ele>929.73</ele>
        <time>2014-10-15T12:22:28Z</time>
      </trkpt>
      <trkpt lat="45.59078" lon="4.50452">
        <ele>930.69</ele>
        <time>2014-10-15T12:22:40Z</time>
      </trkpt>
      <trkpt lat="45.59075" lon="4.5044">
        <ele>931.17</ele>
        <time>2014-10-15T12:22:49Z</time>
      </trkpt>
      <trkpt lat="45.59076" lon="4.50418">
        <ele>930.21</ele>
        <time>2014-10-15T12:23:05Z</time>
      </trkpt>
      <trkpt lat="45.59084" lon="4.50391">
        <ele>929.73</ele>
        <time>2014-10-15T12:23:21Z</time>
      </trkpt>
      <trkpt lat="45.59085" lon="4.50389">
        <ele>929.25</ele>
        <time>2014-10-15T12:23:22Z</time>
      </trkpt>
      <trkpt lat="45.59096" lon="4.50371">
        <ele>928.77</ele>
        <time>2014-10-15T12:23:34Z</time>
      </trkpt>
      <trkpt lat="45.591" lon="4.50364">
        <ele>928.29</ele>
        <time>2014-10-15T12:23:41Z</time>
      </trkpt>
      <trkpt lat="45.59111" lon="4.50352">
        <ele>927.33</ele>
        <time>2014-10-15T12:23:50Z</time>
      </trkpt>
      <trkpt lat="45.59117" lon="4.50347">
        <ele>926.85</ele>
        <time>2014-10-15T12:23:54Z</time>
      </trkpt>
      <trkpt lat="45.59126" lon="4.50339">
        <ele>926.37</ele>
        <time>2014-10-15T12:24:02Z</time>
      </trkpt>
      <trkpt lat="45.59133" lon="4.50331">
        <ele>925.89</ele>
        <time>2014-10-15T12:24:09Z</time>
      </trkpt>
      <trkpt lat="45.59147" lon="4.50326">
        <ele>925.41</ele>
        <time>2014-10-15T12:24:19Z</time>
      </trkpt>
      <trkpt lat="45.59163" lon="4.50317">
        <ele>926.85</ele>
        <time>2014-10-15T12:24:37Z</time>
      </trkpt>
      <trkpt lat="45.59164" lon="4.50316">
        <ele>926.85</ele>
        <time>2014-10-15T12:24:38Z</time>
      </trkpt>
      <trkpt lat="45.59166" lon="4.50315">
        <ele>925.41</ele>
        <time>2014-10-15T12:24:41Z</time>
      </trkpt>
      <trkpt lat="45.59178" lon="4.50308">
        <ele>926.85</ele>
        <time>2014-10-15T12:24:53Z</time>
      </trkpt>
      <trkpt lat="45.59197" lon="4.50307">
        <ele>926.85</ele>
        <time>2014-10-15T12:25:08Z</time>
      </trkpt>
      <trkpt lat="45.59214" lon="4.503">
        <ele>926.85</ele>
        <time>2014-10-15T12:25:22Z</time>
      </trkpt>
      <trkpt lat="45.59224" lon="4.50306">
        <ele>927.33</ele>
        <time>2014-10-15T12:25:36Z</time>
      </trkpt>
      <trkpt lat="45.59242" lon="4.50314">
        <ele>926.85</ele>
        <time>2014-10-15T12:25:52Z</time>
      </trkpt>
      <trkpt lat="45.59243" lon="4.50314">
        <ele>926.85</ele>
        <time>2014-10-15T12:25:53Z</time>
      </trkpt>
      <trkpt lat="45.59258" lon="4.50318">
        <ele>927.33</ele>
        <time>2014-10-15T12:26:07Z</time>
      </trkpt>
      <trkpt lat="45.5926" lon="4.5032">
        <ele>925.89</ele>
        <time>2014-10-15T12:26:09Z</time>
      </trkpt>
      <trkpt lat="45.59268" lon="4.50336">
        <ele>928.29</ele>
        <time>2014-10-15T12:26:23Z</time>
      </trkpt>
      <trkpt lat="45.59271" lon="4.50347">
        <ele>931.65</ele>
        <time>2014-10-15T12:26:30Z</time>
      </trkpt>
      <trkpt lat="45.59272" lon="4.50352">
        <ele>930.21</ele>
        <time>2014-10-15T12:26:42Z</time>
      </trkpt>
      <trkpt lat="45.59273" lon="4.50363">
        <ele>930.69</ele>
        <time>2014-10-15T12:26:57Z</time>
      </trkpt>
      <trkpt lat="45.59275" lon="4.50367">
        <ele>929.25</ele>
        <time>2014-10-15T12:28:14Z</time>
      </trkpt>
      <trkpt lat="45.59275" lon="4.50368">
        <ele>929.73</ele>
        <time>2014-10-15T12:28:28Z</time>
      </trkpt>
      <trkpt lat="45.59271" lon="4.50369">
        <ele>930.69</ele>
        <time>2014-10-15T12:28:39Z</time>
      </trkpt>
      <trkpt lat="45.59265" lon="4.50369">
        <ele>931.17</ele>
        <time>2014-10-15T12:28:54Z</time>
      </trkpt>
      <trkpt lat="45.59264" lon="4.50369">
        <ele>930.21</ele>
        <time>2014-10-15T12:29:12Z</time>
      </trkpt>
      <trkpt lat="45.59257" lon="4.50357">
        <ele>929.73</ele>
        <time>2014-10-15T12:29:25Z</time>
      </trkpt>
      <trkpt lat="45.59256" lon="4.50353">
        <ele>928.77</ele>
        <time>2014-10-15T12:29:43Z</time>
      </trkpt>
      <trkpt lat="45.59248" lon="4.50341">
        <ele>928.29</ele>
        <time>2014-10-15T12:29:56Z</time>
      </trkpt>
      <trkpt lat="45.59244" lon="4.50337">
        <ele>927.81</ele>
        <time>2014-10-15T12:30:15Z</time>
      </trkpt>
      <trkpt lat="45.59235" lon="4.50331">
        <ele>926.85</ele>
        <time>2014-10-15T12:30:22Z</time>
      </trkpt>
      <trkpt lat="45.59226" lon="4.50319">
        <ele>925.89</ele>
        <time>2014-10-15T12:30:36Z</time>
      </trkpt>
      <trkpt lat="45.59226" lon="4.5032">
        <ele>926.37</ele>
        <time>2014-10-15T12:30:37Z</time>
      </trkpt>
      <trkpt lat="45.59209" lon="4.50321">
        <ele>927.33</ele>
        <time>2014-10-15T12:30:55Z</time>
      </trkpt>
      <trkpt lat="45.59208" lon="4.50321">
        <ele>926.37</ele>
        <time>2014-10-15T12:30:57Z</time>
      </trkpt>
      <trkpt lat="45.59196" lon="4.50323">
        <ele>926.85</ele>
        <time>2014-10-15T12:31:11Z</time>
      </trkpt>
      <trkpt lat="45.59179" lon="4.50328">
        <ele>925.89</ele>
        <time>2014-10-15T12:31:26Z</time>
      </trkpt>
      <trkpt lat="45.59175" lon="4.50329">
        <ele>925.41</ele>
        <time>2014-10-15T12:31:44Z</time>
      </trkpt>
      <trkpt lat="45.59172" lon="4.50331">
        <ele>926.85</ele>
        <time>2014-10-15T12:31:51Z</time>
      </trkpt>
      <trkpt lat="45.59147" lon="4.50342">
        <ele>927.33</ele>
        <time>2014-10-15T12:32:07Z</time>
      </trkpt>
      <trkpt lat="45.59142" lon="4.50347">
        <ele>928.77</ele>
        <time>2014-10-15T12:32:13Z</time>
      </trkpt>
      <trkpt lat="45.59125" lon="4.50359">
        <ele>929.73</ele>
        <time>2014-10-15T12:32:28Z</time>
      </trkpt>
      <trkpt lat="45.59111" lon="4.50373">
        <ele>929.73</ele>
        <time>2014-10-15T12:32:42Z</time>
      </trkpt>
      <trkpt lat="45.59102" lon="4.50384">
        <ele>929.73</ele>
        <time>2014-10-15T12:32:53Z</time>
      </trkpt>
      <trkpt lat="45.59098" lon="4.50398">
        <ele>930.69</ele>
        <time>2014-10-15T12:33:08Z</time>
      </trkpt>
      <trkpt lat="45.59096" lon="4.50417">
        <ele>931.17</ele>
        <time>2014-10-15T12:33:23Z</time>
      </trkpt>
      <trkpt lat="45.59096" lon="4.50418">
        <ele>932.14</ele>
        <time>2014-10-15T12:33:24Z</time>
      </trkpt>
      <trkpt lat="45.59094" lon="4.50423">
        <ele>930.69</ele>
        <time>2014-10-15T12:33:27Z</time>
      </trkpt>
      <trkpt lat="45.59092" lon="4.50429">
        <ele>932.62</ele>
        <time>2014-10-15T12:33:31Z</time>
      </trkpt>
      <trkpt lat="45.5909" lon="4.50439">
        <ele>931.65</ele>
        <time>2014-10-15T12:33:38Z</time>
      </trkpt>
      <trkpt lat="45.59087" lon="4.5045">
        <ele>931.65</ele>
        <time>2014-10-15T12:33:46Z</time>
      </trkpt>
      <trkpt lat="45.59091" lon="4.50467">
        <ele>929.73</ele>
        <time>2014-10-15T12:33:58Z</time>
      </trkpt>
      <trkpt lat="45.5909" lon="4.50482">
        <ele>929.25</ele>
        <time>2014-10-15T12:34:09Z</time>
      </trkpt>
      <trkpt lat="45.59095" lon="4.50499">
        <ele>929.25</ele>
        <time>2014-10-15T12:34:24Z</time>
      </trkpt>
      <trkpt lat="45.59094" lon="4.50516">
        <ele>929.25</ele>
        <time>2014-10-15T12:34:37Z</time>
      </trkpt>
      <trkpt lat="45.59092" lon="4.50535">
        <ele>928.77</ele>
        <time>2014-10-15T12:34:50Z</time>
      </trkpt>
      <trkpt lat="45.59091" lon="4.50535">
        <ele>929.73</ele>
        <time>2014-10-15T12:35:26Z</time>
      </trkpt>
      <trkpt lat="45.59083" lon="4.50541">
        <ele>930.69</ele>
        <time>2014-10-15T12:35:35Z</time>
      </trkpt>
      <trkpt lat="45.59069" lon="4.5054">
        <ele>930.21</ele>
        <time>2014-10-15T12:35:46Z</time>
      </trkpt>
      <trkpt lat="45.59062" lon="4.50547">
        <ele>930.69</ele>
        <time>2014-10-15T12:35:54Z</time>
      </trkpt>
      <trkpt lat="45.59065" lon="4.50551">
        <ele>930.69</ele>
        <time>2014-10-15T12:36:02Z</time>
      </trkpt>
      <trkpt lat="45.59067" lon="4.50554">
        <ele>931.65</ele>
        <time>2014-10-15T12:36:06Z</time>
      </trkpt>
      <trkpt lat="45.59067" lon="4.50556">
        <ele>932.14</ele>
        <time>2014-10-15T12:36:09Z</time>
      </trkpt>
      <trkpt lat="45.59068" lon="4.5056">
        <ele>932.62</ele>
        <time>2014-10-15T12:36:19Z</time>
      </trkpt>
      <trkpt lat="45.59071" lon="4.50566">
        <ele>932.62</ele>
        <time>2014-10-15T12:36:28Z</time>
      </trkpt>
      <trkpt lat="45.59082" lon="4.5058">
        <ele>934.54</ele>
        <time>2014-10-15T12:36:41Z</time>
      </trkpt>
      <trkpt lat="45.59087" lon="4.50591">
        <ele>935.5</ele>
        <time>2014-10-15T12:36:54Z</time>
      </trkpt>
      <trkpt lat="45.59091" lon="4.50599">
        <ele>936.94</ele>
        <time>2014-10-15T12:37:03Z</time>
      </trkpt>
      <trkpt lat="45.59094" lon="4.50611">
        <ele>936.94</ele>
        <time>2014-10-15T12:37:14Z</time>
      </trkpt>
      <trkpt lat="45.59094" lon="4.50612">
        <ele>938.38</ele>
        <time>2014-10-15T12:37:18Z</time>
      </trkpt>
      <trkpt lat="45.59094" lon="4.50612">
        <ele>937.9</ele>
        <time>2014-10-15T12:37:22Z</time>
      </trkpt>
      <trkpt lat="45.59093" lon="4.50626">
        <ele>938.38</ele>
        <time>2014-10-15T12:37:30Z</time>
      </trkpt>
      <trkpt lat="45.59093" lon="4.50634">
        <ele>939.83</ele>
        <time>2014-10-15T12:37:40Z</time>
      </trkpt>
      <trkpt lat="45.59093" lon="4.50635">
        <ele>939.35</ele>
        <time>2014-10-15T12:38:20Z</time>
      </trkpt>
      <trkpt lat="45.59093" lon="4.50635">
        <ele>940.31</ele>
        <time>2014-10-15T12:38:52Z</time>
      </trkpt>
      <trkpt lat="45.59091" lon="4.5065">
        <ele>938.86</ele>
        <time>2014-10-15T12:38:59Z</time>
      </trkpt>
      <trkpt lat="45.59092" lon="4.50659">
        <ele>939.35</ele>
        <time>2014-10-15T12:39:10Z</time>
      </trkpt>
      <trkpt lat="45.59095" lon="4.50666">
        <ele>938.86</ele>
        <time>2014-10-15T12:39:16Z</time>
      </trkpt>
      <trkpt lat="45.59099" lon="4.50671">
        <ele>938.38</ele>
        <time>2014-10-15T12:39:25Z</time>
      </trkpt>
      <trkpt lat="45.59102" lon="4.50673">
        <ele>938.86</ele>
        <time>2014-10-15T12:39:30Z</time>
      </trkpt>
      <trkpt lat="45.59107" lon="4.50677">
        <ele>938.38</ele>
        <time>2014-10-15T12:39:41Z</time>
      </trkpt>
      <trkpt lat="45.59111" lon="4.50682">
        <ele>937.42</ele>
        <time>2014-10-15T12:39:48Z</time>
      </trkpt>
      <trkpt lat="45.59117" lon="4.50687">
        <ele>938.38</ele>
        <time>2014-10-15T12:40:00Z</time>
      </trkpt>
      <trkpt lat="45.59123" lon="4.50689">
        <ele>937.9</ele>
        <time>2014-10-15T12:40:10Z</time>
      </trkpt>
      <trkpt lat="45.59126" lon="4.50691">
        <ele>936.46</ele>
        <time>2014-10-15T12:40:21Z</time>
      </trkpt>
      <trkpt lat="45.59132" lon="4.50695">
        <ele>936.46</ele>
        <time>2014-10-15T12:40:33Z</time>
      </trkpt>
      <trkpt lat="45.59142" lon="4.50701">
        <ele>933.58</ele>
        <time>2014-10-15T12:40:44Z</time>
      </trkpt>
      <trkpt lat="45.59148" lon="4.50704">
        <ele>932.62</ele>
        <time>2014-10-15T12:40:56Z</time>
      </trkpt>
      <trkpt lat="45.59155" lon="4.507">
        <ele>931.17</ele>
        <time>2014-10-15T12:41:10Z</time>
      </trkpt>
      <trkpt lat="45.59159" lon="4.50698">
        <ele>930.21</ele>
        <time>2014-10-15T12:41:16Z</time>
      </trkpt>
      <trkpt lat="45.59168" lon="4.50692">
        <ele>927.81</ele>
        <time>2014-10-15T12:41:31Z</time>
      </trkpt>
      <trkpt lat="45.59171" lon="4.50688">
        <ele>927.33</ele>
        <time>2014-10-15T12:41:39Z</time>
      </trkpt>
      <trkpt lat="45.59177" lon="4.50686">
        <ele>924.93</ele>
        <time>2014-10-15T12:41:46Z</time>
      </trkpt>
      <trkpt lat="45.59178" lon="4.50685">
        <ele>924.45</ele>
        <time>2014-10-15T12:41:59Z</time>
      </trkpt>
      <trkpt lat="45.59178" lon="4.50685">
        <ele>922.04</ele>
        <time>2014-10-15T12:42:16Z</time>
      </trkpt>
      <trkpt lat="45.59178" lon="4.50684">
        <ele>923</ele>
        <time>2014-10-15T12:42:43Z</time>
      </trkpt>
      <trkpt lat="45.59178" lon="4.50684">
        <ele>923.96</ele>
        <time>2014-10-15T12:42:59Z</time>
      </trkpt>
      <trkpt lat="45.59182" lon="4.50692">
        <ele>924.45</ele>
        <time>2014-10-15T12:43:04Z</time>
      </trkpt>
      <trkpt lat="45.59209" lon="4.50718">
        <ele>923</ele>
        <time>2014-10-15T12:43:18Z</time>
      </trkpt>
      <trkpt lat="45.59214" lon="4.50725">
        <ele>924.45</ele>
        <time>2014-10-15T12:43:33Z</time>
      </trkpt>
      <trkpt lat="45.59214" lon="4.50729">
        <ele>925.41</ele>
        <time>2014-10-15T12:43:45Z</time>
      </trkpt>
      <trkpt lat="45.59214" lon="4.50729">
        <ele>924.93</ele>
        <time>2014-10-15T12:43:53Z</time>
      </trkpt>
      <trkpt lat="45.59211" lon="4.50746">
        <ele>924.45</ele>
        <time>2014-10-15T12:44:06Z</time>
      </trkpt>
      <trkpt lat="45.59213" lon="4.50769">
        <ele>927.33</ele>
        <time>2014-10-15T12:44:20Z</time>
      </trkpt>
      <trkpt lat="45.59214" lon="4.50784">
        <ele>927.33</ele>
        <time>2014-10-15T12:44:34Z</time>
      </trkpt>
      <trkpt lat="45.59209" lon="4.50797">
        <ele>928.29</ele>
        <time>2014-10-15T12:44:42Z</time>
      </trkpt>
      <trkpt lat="45.59204" lon="4.50819">
        <ele>929.25</ele>
        <time>2014-10-15T12:44:55Z</time>
      </trkpt>
      <trkpt lat="45.592" lon="4.50837">
        <ele>929.25</ele>
        <time>2014-10-15T12:45:07Z</time>
      </trkpt>
      <trkpt lat="45.592" lon="4.50854">
        <ele>930.21</ele>
        <time>2014-10-15T12:45:19Z</time>
      </trkpt>
      <trkpt lat="45.59195" lon="4.5088">
        <ele>930.69</ele>
        <time>2014-10-15T12:45:33Z</time>
      </trkpt>
      <trkpt lat="45.59194" lon="4.50886">
        <ele>931.65</ele>
        <time>2014-10-15T12:45:38Z</time>
      </trkpt>
      <trkpt lat="45.59192" lon="4.50902">
        <ele>930.69</ele>
        <time>2014-10-15T12:45:48Z</time>
      </trkpt>
      <trkpt lat="45.59189" lon="4.50916">
        <ele>930.69</ele>
        <time>2014-10-15T12:45:56Z</time>
      </trkpt>
      <trkpt lat="45.59183" lon="4.50937">
        <ele>930.69</ele>
        <time>2014-10-15T12:46:07Z</time>
      </trkpt>
      <trkpt lat="45.59183" lon="4.5094">
        <ele>931.17</ele>
        <time>2014-10-15T12:46:09Z</time>
      </trkpt>
      <trkpt lat="45.59184" lon="4.50966">
        <ele>929.73</ele>
        <time>2014-10-15T12:46:24Z</time>
      </trkpt>
      <trkpt lat="45.59182" lon="4.50975">
        <ele>928.29</ele>
        <time>2014-10-15T12:46:32Z</time>
      </trkpt>
      <trkpt lat="45.5918" lon="4.50984">
        <ele>927.81</ele>
        <time>2014-10-15T12:46:44Z</time>
      </trkpt>
      <trkpt lat="45.59179" lon="4.50996">
        <ele>926.37</ele>
        <time>2014-10-15T12:46:54Z</time>
      </trkpt>
      <trkpt lat="45.59175" lon="4.51002">
        <ele>925.89</ele>
        <time>2014-10-15T12:46:59Z</time>
      </trkpt>
      <trkpt lat="45.59171" lon="4.51021">
        <ele>925.41</ele>
        <time>2014-10-15T12:47:12Z</time>
      </trkpt>
      <trkpt lat="45.59169" lon="4.51031">
        <ele>923</ele>
        <time>2014-10-15T12:47:21Z</time>
      </trkpt>
      <trkpt lat="45.59165" lon="4.51049">
        <ele>921.56</ele>
        <time>2014-10-15T12:47:33Z</time>
      </trkpt>
      <trkpt lat="45.59163" lon="4.51065">
        <ele>919.64</ele>
        <time>2014-10-15T12:47:44Z</time>
      </trkpt>
      <trkpt lat="45.59161" lon="4.51089">
        <ele>918.2</ele>
        <time>2014-10-15T12:47:57Z</time>
      </trkpt>
      <trkpt lat="45.59161" lon="4.5109">
        <ele>918.68</ele>
        <time>2014-10-15T12:48:00Z</time>
      </trkpt>
      <trkpt lat="45.59162" lon="4.51091">
        <ele>918.2</ele>
        <time>2014-10-15T12:48:04Z</time>
      </trkpt>
      <trkpt lat="45.59169" lon="4.51098">
        <ele>917.24</ele>
        <time>2014-10-15T12:48:12Z</time>
      </trkpt>
      <trkpt lat="45.59175" lon="4.51105">
        <ele>916.75</ele>
        <time>2014-10-15T12:48:22Z</time>
      </trkpt>
      <trkpt lat="45.59178" lon="4.51108">
        <ele>916.27</ele>
        <time>2014-10-15T12:48:27Z</time>
      </trkpt>
      <trkpt lat="45.59185" lon="4.51119">
        <ele>915.79</ele>
        <time>2014-10-15T12:48:36Z</time>
      </trkpt>
      <trkpt lat="45.59195" lon="4.51131">
        <ele>915.31</ele>
        <time>2014-10-15T12:48:46Z</time>
      </trkpt>
      <trkpt lat="45.59201" lon="4.51137">
        <ele>914.35</ele>
        <time>2014-10-15T12:48:52Z</time>
      </trkpt>
      <trkpt lat="45.59209" lon="4.51148">
        <ele>912.91</ele>
        <time>2014-10-15T12:49:02Z</time>
      </trkpt>
      <trkpt lat="45.59215" lon="4.51159">
        <ele>911.95</ele>
        <time>2014-10-15T12:49:09Z</time>
      </trkpt>
      <trkpt lat="45.59216" lon="4.51162">
        <ele>912.91</ele>
        <time>2014-10-15T12:49:11Z</time>
      </trkpt>
      <trkpt lat="45.59226" lon="4.51175">
        <ele>911.95</ele>
        <time>2014-10-15T12:49:21Z</time>
      </trkpt>
      <trkpt lat="45.59233" lon="4.51189">
        <ele>910.99</ele>
        <time>2014-10-15T12:49:31Z</time>
      </trkpt>
      <trkpt lat="45.5924" lon="4.51199">
        <ele>910.03</ele>
        <time>2014-10-15T12:49:41Z</time>
      </trkpt>
      <trkpt lat="45.59246" lon="4.51208">
        <ele>909.06</ele>
        <time>2014-10-15T12:49:50Z</time>
      </trkpt>
      <trkpt lat="45.59253" lon="4.51218">
        <ele>906.66</ele>
        <time>2014-10-15T12:50:01Z</time>
      </trkpt>
      <trkpt lat="45.5926" lon="4.51226">
        <ele>906.66</ele>
        <time>2014-10-15T12:50:10Z</time>
      </trkpt>
      <trkpt lat="45.59268" lon="4.51236">
        <ele>904.74</ele>
        <time>2014-10-15T12:50:20Z</time>
      </trkpt>
      <trkpt lat="45.59278" lon="4.51245">
        <ele>902.33</ele>
        <time>2014-10-15T12:50:31Z</time>
      </trkpt>
      <trkpt lat="45.59287" lon="4.51253">
        <ele>899.45</ele>
        <time>2014-10-15T12:50:42Z</time>
      </trkpt>
      <trkpt lat="45.5929" lon="4.51256">
        <ele>900.89</ele>
        <time>2014-10-15T12:50:45Z</time>
      </trkpt>
      <trkpt lat="45.59296" lon="4.51263">
        <ele>898.97</ele>
        <time>2014-10-15T12:50:52Z</time>
      </trkpt>
      <trkpt lat="45.59304" lon="4.5127">
        <ele>896.57</ele>
        <time>2014-10-15T12:51:01Z</time>
      </trkpt>
      <trkpt lat="45.59313" lon="4.51279">
        <ele>895.12</ele>
        <time>2014-10-15T12:51:11Z</time>
      </trkpt>
      <trkpt lat="45.59322" lon="4.51295">
        <ele>894.16</ele>
        <time>2014-10-15T12:51:23Z</time>
      </trkpt>
      <trkpt lat="45.59325" lon="4.51299">
        <ele>892.72</ele>
        <time>2014-10-15T12:51:28Z</time>
      </trkpt>
      <trkpt lat="45.59328" lon="4.51307">
        <ele>892.72</ele>
        <time>2014-10-15T12:51:33Z</time>
      </trkpt>
      <trkpt lat="45.59337" lon="4.51324">
        <ele>891.76</ele>
        <time>2014-10-15T12:51:46Z</time>
      </trkpt>
      <trkpt lat="45.59338" lon="4.51324">
        <ele>891.28</ele>
        <time>2014-10-15T12:51:48Z</time>
      </trkpt>
      <trkpt lat="45.5934" lon="4.51328">
        <ele>890.32</ele>
        <time>2014-10-15T12:51:53Z</time>
      </trkpt>
      <trkpt lat="45.59347" lon="4.51336">
        <ele>888.88</ele>
        <time>2014-10-15T12:52:01Z</time>
      </trkpt>
      <trkpt lat="45.59358" lon="4.51347">
        <ele>888.88</ele>
        <time>2014-10-15T12:52:12Z</time>
      </trkpt>
      <trkpt lat="45.59365" lon="4.51351">
        <ele>886.95</ele>
        <time>2014-10-15T12:52:22Z</time>
      </trkpt>
      <trkpt lat="45.59367" lon="4.51357">
        <ele>886.47</ele>
        <time>2014-10-15T12:52:35Z</time>
      </trkpt>
      <trkpt lat="45.59375" lon="4.51371">
        <ele>885.51</ele>
        <time>2014-10-15T12:52:44Z</time>
      </trkpt>
      <trkpt lat="45.59378" lon="4.51375">
        <ele>885.51</ele>
        <time>2014-10-15T12:52:46Z</time>
      </trkpt>
      <trkpt lat="45.59382" lon="4.51385">
        <ele>884.55</ele>
        <time>2014-10-15T12:52:57Z</time>
      </trkpt>
      <trkpt lat="45.59389" lon="4.51394">
        <ele>884.55</ele>
        <time>2014-10-15T12:53:07Z</time>
      </trkpt>
      <trkpt lat="45.59391" lon="4.51394">
        <ele>884.07</ele>
        <time>2014-10-15T12:53:20Z</time>
      </trkpt>
      <trkpt lat="45.59391" lon="4.514">
        <ele>883.11</ele>
        <time>2014-10-15T12:54:06Z</time>
      </trkpt>
      <trkpt lat="45.59392" lon="4.514">
        <ele>883.59</ele>
        <time>2014-10-15T12:54:18Z</time>
      </trkpt>
      <trkpt lat="45.59406" lon="4.51411">
        <ele>881.67</ele>
        <time>2014-10-15T12:54:29Z</time>
      </trkpt>
      <trkpt lat="45.59409" lon="4.51417">
        <ele>881.67</ele>
        <time>2014-10-15T12:54:34Z</time>
      </trkpt>
      <trkpt lat="45.59416" lon="4.51429">
        <ele>879.74</ele>
        <time>2014-10-15T12:54:44Z</time>
      </trkpt>
      <trkpt lat="45.59422" lon="4.51439">
        <ele>879.74</ele>
        <time>2014-10-15T12:54:56Z</time>
      </trkpt>
      <trkpt lat="45.59428" lon="4.51451">
        <ele>878.78</ele>
        <time>2014-10-15T12:55:08Z</time>
      </trkpt>
      <trkpt lat="45.59434" lon="4.51461">
        <ele>876.86</ele>
        <time>2014-10-15T12:55:18Z</time>
      </trkpt>
      <trkpt lat="45.59441" lon="4.51468">
        <ele>876.38</ele>
        <time>2014-10-15T12:55:27Z</time>
      </trkpt>
      <trkpt lat="45.59452" lon="4.51478">
        <ele>873.5</ele>
        <time>2014-10-15T12:55:39Z</time>
      </trkpt>
      <trkpt lat="45.59455" lon="4.51483">
        <ele>872.53</ele>
        <time>2014-10-15T12:55:55Z</time>
      </trkpt>
      <trkpt lat="45.59461" lon="4.51489">
        <ele>872.53</ele>
        <time>2014-10-15T12:56:01Z</time>
      </trkpt>
      <trkpt lat="45.59466" lon="4.51495">
        <ele>871.57</ele>
        <time>2014-10-15T12:56:06Z</time>
      </trkpt>
      <trkpt lat="45.59467" lon="4.51497">
        <ele>870.61</ele>
        <time>2014-10-15T12:56:08Z</time>
      </trkpt>
      <trkpt lat="45.59471" lon="4.51504">
        <ele>870.13</ele>
        <time>2014-10-15T12:56:20Z</time>
      </trkpt>
      <trkpt lat="45.59472" lon="4.51505">
        <ele>869.17</ele>
        <time>2014-10-15T12:56:21Z</time>
      </trkpt>
      <trkpt lat="45.59481" lon="4.51513">
        <ele>867.25</ele>
        <time>2014-10-15T12:56:32Z</time>
      </trkpt>
      <trkpt lat="45.59493" lon="4.5153">
        <ele>864.84</ele>
        <time>2014-10-15T12:56:47Z</time>
      </trkpt>
      <trkpt lat="45.59495" lon="4.51534">
        <ele>863.88</ele>
        <time>2014-10-15T12:56:49Z</time>
      </trkpt>
      <trkpt lat="45.595" lon="4.51542">
        <ele>862.92</ele>
        <time>2014-10-15T12:56:55Z</time>
      </trkpt>
      <trkpt lat="45.59508" lon="4.51559">
        <ele>862.44</ele>
        <time>2014-10-15T12:57:07Z</time>
      </trkpt>
      <trkpt lat="45.59508" lon="4.51559">
        <ele>861.48</ele>
        <time>2014-10-15T12:57:21Z</time>
      </trkpt>
      <trkpt lat="45.59514" lon="4.51574">
        <ele>860.52</ele>
        <time>2014-10-15T12:57:28Z</time>
      </trkpt>
      <trkpt lat="45.59523" lon="4.51591">
        <ele>860.04</ele>
        <time>2014-10-15T12:57:43Z</time>
      </trkpt>
      <trkpt lat="45.59524" lon="4.51592">
        <ele>859.56</ele>
        <time>2014-10-15T12:58:09Z</time>
      </trkpt>
      <trkpt lat="45.59529" lon="4.51602">
        <ele>859.08</ele>
        <time>2014-10-15T12:58:26Z</time>
      </trkpt>
      <trkpt lat="45.59532" lon="4.51609">
        <ele>859.08</ele>
        <time>2014-10-15T12:58:36Z</time>
      </trkpt>
      <trkpt lat="45.59539" lon="4.51618">
        <ele>858.59</ele>
        <time>2014-10-15T12:58:44Z</time>
      </trkpt>
      <trkpt lat="45.59547" lon="4.51626">
        <ele>858.11</ele>
        <time>2014-10-15T12:58:54Z</time>
      </trkpt>
      <trkpt lat="45.59553" lon="4.51631">
        <ele>858.59</ele>
        <time>2014-10-15T12:59:02Z</time>
      </trkpt>
      <trkpt lat="45.59561" lon="4.51641">
        <ele>857.15</ele>
        <time>2014-10-15T12:59:10Z</time>
      </trkpt>
      <trkpt lat="45.59571" lon="4.51648">
        <ele>856.67</ele>
        <time>2014-10-15T12:59:19Z</time>
      </trkpt>
      <trkpt lat="45.59579" lon="4.51654">
        <ele>855.71</ele>
        <time>2014-10-15T12:59:26Z</time>
      </trkpt>
      <trkpt lat="45.59588" lon="4.51659">
        <ele>856.19</ele>
        <time>2014-10-15T12:59:36Z</time>
      </trkpt>
      <trkpt lat="45.59596" lon="4.51663">
        <ele>855.23</ele>
        <time>2014-10-15T12:59:46Z</time>
      </trkpt>
      <trkpt lat="45.59597" lon="4.51665">
        <ele>855.23</ele>
        <time>2014-10-15T12:59:48Z</time>
      </trkpt>
      <trkpt lat="45.59609" lon="4.51671">
        <ele>855.71</ele>
        <time>2014-10-15T12:59:59Z</time>
      </trkpt>
      <trkpt lat="45.59616" lon="4.51677">
        <ele>854.75</ele>
        <time>2014-10-15T13:00:08Z</time>
      </trkpt>
      <trkpt lat="45.59618" lon="4.5168">
        <ele>855.23</ele>
        <time>2014-10-15T13:00:11Z</time>
      </trkpt>
      <trkpt lat="45.59626" lon="4.51684">
        <ele>855.71</ele>
        <time>2014-10-15T13:00:21Z</time>
      </trkpt>
      <trkpt lat="45.59637" lon="4.51686">
        <ele>854.27</ele>
        <time>2014-10-15T13:00:31Z</time>
      </trkpt>
      <trkpt lat="45.59643" lon="4.51688">
        <ele>854.75</ele>
        <time>2014-10-15T13:00:36Z</time>
      </trkpt>
      <trkpt lat="45.59653" lon="4.51693">
        <ele>854.27</ele>
        <time>2014-10-15T13:00:46Z</time>
      </trkpt>
      <trkpt lat="45.59658" lon="4.51693">
        <ele>854.27</ele>
        <time>2014-10-15T13:00:52Z</time>
      </trkpt>
      <trkpt lat="45.5966" lon="4.51692">
        <ele>855.23</ele>
        <time>2014-10-15T13:00:54Z</time>
      </trkpt>
      <trkpt lat="45.59666" lon="4.51698">
        <ele>855.23</ele>
        <time>2014-10-15T13:01:04Z</time>
      </trkpt>
      <trkpt lat="45.59673" lon="4.51698">
        <ele>854.75</ele>
        <time>2014-10-15T13:01:12Z</time>
      </trkpt>
      <trkpt lat="45.59681" lon="4.51702">
        <ele>855.23</ele>
        <time>2014-10-15T13:01:19Z</time>
      </trkpt>
      <trkpt lat="45.59683" lon="4.51703">
        <ele>855.71</ele>
        <time>2014-10-15T13:01:21Z</time>
      </trkpt>
      <trkpt lat="45.59691" lon="4.51704">
        <ele>854.75</ele>
        <time>2014-10-15T13:01:26Z</time>
      </trkpt>
      <trkpt lat="45.59698" lon="4.51703">
        <ele>854.27</ele>
        <time>2014-10-15T13:01:33Z</time>
      </trkpt>
      <trkpt lat="45.597" lon="4.51703">
        <ele>853.79</ele>
        <time>2014-10-15T13:01:36Z</time>
      </trkpt>
      <trkpt lat="45.59707" lon="4.51705">
        <ele>854.27</ele>
        <time>2014-10-15T13:01:41Z</time>
      </trkpt>
      <trkpt lat="45.59708" lon="4.51706">
        <ele>853.79</ele>
        <time>2014-10-15T13:01:44Z</time>
      </trkpt>
      <trkpt lat="45.59722" lon="4.51712">
        <ele>853.79</ele>
        <time>2014-10-15T13:01:55Z</time>
      </trkpt>
      <trkpt lat="45.59725" lon="4.51712">
        <ele>852.35</ele>
        <time>2014-10-15T13:01:59Z</time>
      </trkpt>
      <trkpt lat="45.59737" lon="4.51715">
        <ele>853.31</ele>
        <time>2014-10-15T13:02:09Z</time>
      </trkpt>
      <trkpt lat="45.59742" lon="4.51717">
        <ele>851.38</ele>
        <time>2014-10-15T13:02:15Z</time>
      </trkpt>
      <trkpt lat="45.59744" lon="4.51717">
        <ele>851.87</ele>
        <time>2014-10-15T13:02:17Z</time>
      </trkpt>
      <trkpt lat="45.59757" lon="4.51722">
        <ele>852.35</ele>
        <time>2014-10-15T13:02:28Z</time>
      </trkpt>
      <trkpt lat="45.59767" lon="4.51729">
        <ele>850.42</ele>
        <time>2014-10-15T13:02:38Z</time>
      </trkpt>
      <trkpt lat="45.59775" lon="4.51733">
        <ele>850.9</ele>
        <time>2014-10-15T13:02:46Z</time>
      </trkpt>
      <trkpt lat="45.5978" lon="4.51737">
        <ele>850.42</ele>
        <time>2014-10-15T13:02:52Z</time>
      </trkpt>
      <trkpt lat="45.59788" lon="4.51743">
        <ele>849.46</ele>
        <time>2014-10-15T13:03:02Z</time>
      </trkpt>
      <trkpt lat="45.59789" lon="4.51744">
        <ele>850.42</ele>
        <time>2014-10-15T13:03:03Z</time>
      </trkpt>
      <trkpt lat="45.59798" lon="4.51752">
        <ele>850.42</ele>
        <time>2014-10-15T13:03:11Z</time>
      </trkpt>
      <trkpt lat="45.59804" lon="4.51759">
        <ele>848.02</ele>
        <time>2014-10-15T13:03:18Z</time>
      </trkpt>
      <trkpt lat="45.59813" lon="4.51768">
        <ele>848.02</ele>
        <time>2014-10-15T13:03:27Z</time>
      </trkpt>
      <trkpt lat="45.59824" lon="4.51778">
        <ele>847.54</ele>
        <time>2014-10-15T13:03:37Z</time>
      </trkpt>
      <trkpt lat="45.59828" lon="4.5178">
        <ele>847.54</ele>
        <time>2014-10-15T13:03:41Z</time>
      </trkpt>
      <trkpt lat="45.59839" lon="4.51783">
        <ele>847.06</ele>
        <time>2014-10-15T13:03:49Z</time>
      </trkpt>
      <trkpt lat="45.59853" lon="4.51794">
        <ele>846.58</ele>
        <time>2014-10-15T13:04:00Z</time>
      </trkpt>
      <trkpt lat="45.59858" lon="4.51799">
        <ele>846.1</ele>
        <time>2014-10-15T13:04:10Z</time>
      </trkpt>
      <trkpt lat="45.59869" lon="4.51806">
        <ele>845.14</ele>
        <time>2014-10-15T13:04:19Z</time>
      </trkpt>
      <trkpt lat="45.59875" lon="4.51811">
        <ele>844.18</ele>
        <time>2014-10-15T13:04:27Z</time>
      </trkpt>
      <trkpt lat="45.59879" lon="4.51812">
        <ele>845.62</ele>
        <time>2014-10-15T13:04:35Z</time>
      </trkpt>
      <trkpt lat="45.59885" lon="4.51817">
        <ele>844.66</ele>
        <time>2014-10-15T13:04:44Z</time>
      </trkpt>
      <trkpt lat="45.5989" lon="4.51819">
        <ele>845.14</ele>
        <time>2014-10-15T13:04:55Z</time>
      </trkpt>
      <trkpt lat="45.59905" lon="4.51829">
        <ele>843.69</ele>
        <time>2014-10-15T13:05:08Z</time>
      </trkpt>
      <trkpt lat="45.59917" lon="4.51838">
        <ele>844.66</ele>
        <time>2014-10-15T13:05:16Z</time>
      </trkpt>
      <trkpt lat="45.59931" lon="4.51855">
        <ele>843.69</ele>
        <time>2014-10-15T13:05:27Z</time>
      </trkpt>
      <trkpt lat="45.59938" lon="4.5186">
        <ele>843.21</ele>
        <time>2014-10-15T13:05:39Z</time>
      </trkpt>
      <trkpt lat="45.59946" lon="4.51865">
        <ele>844.66</ele>
        <time>2014-10-15T13:05:49Z</time>
      </trkpt>
      <trkpt lat="45.59954" lon="4.51869">
        <ele>843.69</ele>
        <time>2014-10-15T13:05:55Z</time>
      </trkpt>
      <trkpt lat="45.59958" lon="4.51874">
        <ele>844.18</ele>
        <time>2014-10-15T13:06:06Z</time>
      </trkpt>
      <trkpt lat="45.59958" lon="4.51875">
        <ele>843.69</ele>
        <time>2014-10-15T13:06:16Z</time>
      </trkpt>
      <trkpt lat="45.5996" lon="4.51874">
        <ele>844.18</ele>
        <time>2014-10-15T13:06:30Z</time>
      </trkpt>
      <trkpt lat="45.5996" lon="4.51874">
        <ele>843.69</ele>
        <time>2014-10-15T13:06:58Z</time>
      </trkpt>
      <trkpt lat="45.59964" lon="4.51876">
        <ele>842.73</ele>
        <time>2014-10-15T13:07:15Z</time>
      </trkpt>
      <trkpt lat="45.59964" lon="4.51876">
        <ele>842.73</ele>
        <time>2014-10-15T13:07:16Z</time>
      </trkpt>
      <trkpt lat="45.59965" lon="4.51877">
        <ele>843.21</ele>
        <time>2014-10-15T13:07:58Z</time>
      </trkpt>
      <trkpt lat="45.59968" lon="4.51879">
        <ele>843.21</ele>
        <time>2014-10-15T13:08:01Z</time>
      </trkpt>
      <trkpt lat="45.59976" lon="4.51884">
        <ele>843.69</ele>
        <time>2014-10-15T13:08:11Z</time>
      </trkpt>
      <trkpt lat="45.59983" lon="4.51887">
        <ele>843.69</ele>
        <time>2014-10-15T13:08:21Z</time>
      </trkpt>
      <trkpt lat="45.59993" lon="4.5189">
        <ele>844.66</ele>
        <time>2014-10-15T13:08:30Z</time>
      </trkpt>
      <trkpt lat="45.59996" lon="4.51893">
        <ele>843.69</ele>
        <time>2014-10-15T13:08:35Z</time>
      </trkpt>
      <trkpt lat="45.60003" lon="4.51899">
        <ele>843.69</ele>
        <time>2014-10-15T13:08:45Z</time>
      </trkpt>
      <trkpt lat="45.60004" lon="4.519">
        <ele>843.21</ele>
        <time>2014-10-15T13:08:47Z</time>
      </trkpt>
      <trkpt lat="45.60011" lon="4.51906">
        <ele>841.29</ele>
        <time>2014-10-15T13:08:57Z</time>
      </trkpt>
      <trkpt lat="45.60019" lon="4.51911">
        <ele>841.77</ele>
        <time>2014-10-15T13:09:03Z</time>
      </trkpt>
      <trkpt lat="45.60026" lon="4.51922">
        <ele>841.77</ele>
        <time>2014-10-15T13:09:13Z</time>
      </trkpt>
      <trkpt lat="45.60037" lon="4.51931">
        <ele>839.85</ele>
        <time>2014-10-15T13:09:24Z</time>
      </trkpt>
      <trkpt lat="45.60046" lon="4.51942">
        <ele>839.85</ele>
        <time>2014-10-15T13:09:35Z</time>
      </trkpt>
      <trkpt lat="45.60056" lon="4.51954">
        <ele>838.89</ele>
        <time>2014-10-15T13:09:46Z</time>
      </trkpt>
      <trkpt lat="45.60066" lon="4.51966">
        <ele>838.89</ele>
        <time>2014-10-15T13:09:55Z</time>
      </trkpt>
      <trkpt lat="45.60077" lon="4.51975">
        <ele>837.45</ele>
        <time>2014-10-15T13:10:06Z</time>
      </trkpt>
      <trkpt lat="45.60085" lon="4.51987">
        <ele>838.41</ele>
        <time>2014-10-15T13:10:16Z</time>
      </trkpt>
      <trkpt lat="45.60092" lon="4.51995">
        <ele>837.45</ele>
        <time>2014-10-15T13:10:25Z</time>
      </trkpt>
      <trkpt lat="45.60097" lon="4.52001">
        <ele>837.45</ele>
        <time>2014-10-15T13:10:32Z</time>
      </trkpt>
      <trkpt lat="45.60105" lon="4.5201">
        <ele>838.41</ele>
        <time>2014-10-15T13:10:42Z</time>
      </trkpt>
      <trkpt lat="45.60112" lon="4.52021">
        <ele>837.45</ele>
        <time>2014-10-15T13:10:53Z</time>
      </trkpt>
      <trkpt lat="45.6012" lon="4.52028">
        <ele>836.96</ele>
        <time>2014-10-15T13:11:01Z</time>
      </trkpt>
      <trkpt lat="45.60129" lon="4.52037">
        <ele>837.93</ele>
        <time>2014-10-15T13:11:12Z</time>
      </trkpt>
      <trkpt lat="45.60139" lon="4.52044">
        <ele>837.45</ele>
        <time>2014-10-15T13:11:22Z</time>
      </trkpt>
      <trkpt lat="45.60149" lon="4.52051">
        <ele>837.93</ele>
        <time>2014-10-15T13:11:31Z</time>
      </trkpt>
      <trkpt lat="45.60161" lon="4.5206">
        <ele>837.45</ele>
        <time>2014-10-15T13:11:42Z</time>
      </trkpt>
      <trkpt lat="45.60171" lon="4.52069">
        <ele>837.45</ele>
        <time>2014-10-15T13:11:53Z</time>
      </trkpt>
      <trkpt lat="45.60171" lon="4.5207">
        <ele>836.96</ele>
        <time>2014-10-15T13:11:55Z</time>
      </trkpt>
      <trkpt lat="45.60173" lon="4.52071">
        <ele>837.45</ele>
        <time>2014-10-15T13:11:57Z</time>
      </trkpt>
      <trkpt lat="45.60183" lon="4.52079">
        <ele>836.96</ele>
        <time>2014-10-15T13:12:07Z</time>
      </trkpt>
      <trkpt lat="45.60191" lon="4.52089">
        <ele>837.93</ele>
        <time>2014-10-15T13:12:16Z</time>
      </trkpt>
      <trkpt lat="45.60198" lon="4.52098">
        <ele>837.45</ele>
        <time>2014-10-15T13:12:25Z</time>
      </trkpt>
      <trkpt lat="45.60203" lon="4.52102">
        <ele>837.93</ele>
        <time>2014-10-15T13:12:31Z</time>
      </trkpt>
      <trkpt lat="45.60212" lon="4.52113">
        <ele>836</ele>
        <time>2014-10-15T13:12:41Z</time>
      </trkpt>
      <trkpt lat="45.60215" lon="4.52118">
        <ele>835.52</ele>
        <time>2014-10-15T13:12:45Z</time>
      </trkpt>
      <trkpt lat="45.6022" lon="4.52123">
        <ele>836</ele>
        <time>2014-10-15T13:12:53Z</time>
      </trkpt>
      <trkpt lat="45.60228" lon="4.52132">
        <ele>835.52</ele>
        <time>2014-10-15T13:13:01Z</time>
      </trkpt>
      <trkpt lat="45.60238" lon="4.52141">
        <ele>834.56</ele>
        <time>2014-10-15T13:13:11Z</time>
      </trkpt>
      <trkpt lat="45.60251" lon="4.52152">
        <ele>834.08</ele>
        <time>2014-10-15T13:13:21Z</time>
      </trkpt>
      <trkpt lat="45.60256" lon="4.52165">
        <ele>832.16</ele>
        <time>2014-10-15T13:13:31Z</time>
      </trkpt>
      <trkpt lat="45.60258" lon="4.52169">
        <ele>832.64</ele>
        <time>2014-10-15T13:13:35Z</time>
      </trkpt>
      <trkpt lat="45.60264" lon="4.52184">
        <ele>831.68</ele>
        <time>2014-10-15T13:13:45Z</time>
      </trkpt>
      <trkpt lat="45.60268" lon="4.52195">
        <ele>830.24</ele>
        <time>2014-10-15T13:13:53Z</time>
      </trkpt>
      <trkpt lat="45.60273" lon="4.52206">
        <ele>829.27</ele>
        <time>2014-10-15T13:14:03Z</time>
      </trkpt>
      <trkpt lat="45.60274" lon="4.52207">
        <ele>829.76</ele>
        <time>2014-10-15T13:14:05Z</time>
      </trkpt>
      <trkpt lat="45.60277" lon="4.52213">
        <ele>828.79</ele>
        <time>2014-10-15T13:14:10Z</time>
      </trkpt>
      <trkpt lat="45.60281" lon="4.52219">
        <ele>828.31</ele>
        <time>2014-10-15T13:14:16Z</time>
      </trkpt>
      <trkpt lat="45.60283" lon="4.52221">
        <ele>827.83</ele>
        <time>2014-10-15T13:14:18Z</time>
      </trkpt>
      <trkpt lat="45.60292" lon="4.52237">
        <ele>827.35</ele>
        <time>2014-10-15T13:14:28Z</time>
      </trkpt>
      <trkpt lat="45.60296" lon="4.52243">
        <ele>827.35</ele>
        <time>2014-10-15T13:14:33Z</time>
      </trkpt>
      <trkpt lat="45.603" lon="4.52244">
        <ele>825.91</ele>
        <time>2014-10-15T13:14:42Z</time>
      </trkpt>
      <trkpt lat="45.60305" lon="4.52244">
        <ele>826.39</ele>
        <time>2014-10-15T13:14:47Z</time>
      </trkpt>
      <trkpt lat="45.60309" lon="4.52246">
        <ele>825.43</ele>
        <time>2014-10-15T13:14:54Z</time>
      </trkpt>
      <trkpt lat="45.60309" lon="4.52246">
        <ele>825.43</ele>
        <time>2014-10-15T13:14:56Z</time>
      </trkpt>
      <trkpt lat="45.60311" lon="4.52245">
        <ele>825.43</ele>
        <time>2014-10-15T13:15:00Z</time>
      </trkpt>
      <trkpt lat="45.60311" lon="4.52241">
        <ele>825.91</ele>
        <time>2014-10-15T13:15:02Z</time>
      </trkpt>
      <trkpt lat="45.60319" lon="4.52239">
        <ele>824.47</ele>
        <time>2014-10-15T13:15:11Z</time>
      </trkpt>
      <trkpt lat="45.60323" lon="4.52234">
        <ele>824.47</ele>
        <time>2014-10-15T13:15:17Z</time>
      </trkpt>
      <trkpt lat="45.60327" lon="4.52238">
        <ele>823.51</ele>
        <time>2014-10-15T13:15:21Z</time>
      </trkpt>
      <trkpt lat="45.60331" lon="4.52248">
        <ele>823.51</ele>
        <time>2014-10-15T13:15:27Z</time>
      </trkpt>
      <trkpt lat="45.60335" lon="4.5226">
        <ele>822.55</ele>
        <time>2014-10-15T13:15:36Z</time>
      </trkpt>
      <trkpt lat="45.6034" lon="4.5227">
        <ele>822.06</ele>
        <time>2014-10-15T13:15:45Z</time>
      </trkpt>
      <trkpt lat="45.60349" lon="4.5228">
        <ele>822.55</ele>
        <time>2014-10-15T13:15:55Z</time>
      </trkpt>
      <trkpt lat="45.60357" lon="4.52289">
        <ele>822.06</ele>
        <time>2014-10-15T13:16:11Z</time>
      </trkpt>
      <trkpt lat="45.60362" lon="4.52301">
        <ele>822.55</ele>
        <time>2014-10-15T13:16:20Z</time>
      </trkpt>
      <trkpt lat="45.60362" lon="4.52301">
        <ele>822.55</ele>
        <time>2014-10-15T13:16:36Z</time>
      </trkpt>
      <trkpt lat="45.60369" lon="4.5231">
        <ele>823.51</ele>
        <time>2014-10-15T13:17:19Z</time>
      </trkpt>
      <trkpt lat="45.60372" lon="4.52318">
        <ele>823.03</ele>
        <time>2014-10-15T13:17:24Z</time>
      </trkpt>
      <trkpt lat="45.60372" lon="4.52321">
        <ele>822.06</ele>
        <time>2014-10-15T13:17:26Z</time>
      </trkpt>
      <trkpt lat="45.60382" lon="4.52341">
        <ele>822.55</ele>
        <time>2014-10-15T13:17:37Z</time>
      </trkpt>
      <trkpt lat="45.60385" lon="4.52348">
        <ele>822.06</ele>
        <time>2014-10-15T13:17:44Z</time>
      </trkpt>
      <trkpt lat="45.6039" lon="4.52372">
        <ele>823.51</ele>
        <time>2014-10-15T13:17:57Z</time>
      </trkpt>
      <trkpt lat="45.60392" lon="4.52376">
        <ele>822.55</ele>
        <time>2014-10-15T13:18:01Z</time>
      </trkpt>
      <trkpt lat="45.604" lon="4.52399">
        <ele>824.47</ele>
        <time>2014-10-15T13:18:12Z</time>
      </trkpt>
      <trkpt lat="45.60399" lon="4.52403">
        <ele>823.03</ele>
        <time>2014-10-15T13:18:19Z</time>
      </trkpt>
      <trkpt lat="45.60406" lon="4.52426">
        <ele>823.51</ele>
        <time>2014-10-15T13:18:32Z</time>
      </trkpt>
      <trkpt lat="45.60405" lon="4.52429">
        <ele>822.55</ele>
        <time>2014-10-15T13:18:34Z</time>
      </trkpt>
      <trkpt lat="45.60407" lon="4.52444">
        <ele>822.55</ele>
        <time>2014-10-15T13:18:42Z</time>
      </trkpt>
      <trkpt lat="45.60406" lon="4.52449">
        <ele>823.03</ele>
        <time>2014-10-15T13:18:46Z</time>
      </trkpt>
      <trkpt lat="45.60405" lon="4.52461">
        <ele>823.51</ele>
        <time>2014-10-15T13:18:54Z</time>
      </trkpt>
      <trkpt lat="45.60404" lon="4.52467">
        <ele>823.51</ele>
        <time>2014-10-15T13:19:00Z</time>
      </trkpt>
      <trkpt lat="45.60404" lon="4.52472">
        <ele>822.55</ele>
        <time>2014-10-15T13:19:04Z</time>
      </trkpt>
      <trkpt lat="45.60403" lon="4.52474">
        <ele>822.55</ele>
        <time>2014-10-15T13:19:06Z</time>
      </trkpt>
      <trkpt lat="45.60404" lon="4.52485">
        <ele>823.03</ele>
        <time>2014-10-15T13:19:17Z</time>
      </trkpt>
      <trkpt lat="45.60404" lon="4.52486">
        <ele>822.06</ele>
        <time>2014-10-15T13:19:19Z</time>
      </trkpt>
      <trkpt lat="45.60403" lon="4.52489">
        <ele>819.66</ele>
        <time>2014-10-15T13:19:32Z</time>
      </trkpt>
      <trkpt lat="45.60403" lon="4.52489">
        <ele>814.85</ele>
        <time>2014-10-15T13:19:35Z</time>
      </trkpt>
      <trkpt lat="45.60403" lon="4.52489">
        <ele>822.55</ele>
        <time>2014-10-15T13:19:36Z</time>
      </trkpt>
      <trkpt lat="45.60403" lon="4.52489">
        <ele>822.55</ele>
        <time>2014-10-15T13:19:37Z</time>
      </trkpt>
      <trkpt lat="45.60402" lon="4.5249">
        <ele>816.3</ele>
        <time>2014-10-15T13:19:41Z</time>
      </trkpt>
      <trkpt lat="45.60401" lon="4.52491">
        <ele>822.55</ele>
        <time>2014-10-15T13:19:42Z</time>
      </trkpt>
      <trkpt lat="45.60401" lon="4.52491">
        <ele>824.47</ele>
        <time>2014-10-15T13:19:46Z</time>
      </trkpt>
      <trkpt lat="45.60401" lon="4.52491">
        <ele>820.62</ele>
        <time>2014-10-15T13:19:51Z</time>
      </trkpt>
      <trkpt lat="45.60401" lon="4.52491">
        <ele>825.91</ele>
        <time>2014-10-15T13:19:58Z</time>
      </trkpt>
      <trkpt lat="45.60401" lon="4.52491">
        <ele>822.55</ele>
        <time>2014-10-15T13:20:05Z</time>
      </trkpt>
      <trkpt lat="45.60401" lon="4.52491">
        <ele>822.06</ele>
        <time>2014-10-15T13:20:06Z</time>
      </trkpt>
    </trkseg>
  </trk>
</gpx>